[[{"header":{"parameterUnit":"m.s-1","parameterCategory":1,"la1":30.6,"la2":28.766,"lo1":-90.7593,"lo2":-88.6598,"dy":0.0162,"dx":0.0183,"nx":116,"ny":114,"refTime":"2023-04-03T18:00:00:Z","depth":0,"parameterNumber":2,"parameterNumberName":"U-component_of_WINDS"},"data":[0.0,0.0,0.0,0.0,0.0,0.0,0.0,0.0,0.0,0.0,0.0,0.0,0.0,0.0,0.0,0.0,0.0,0.0,0.0,0.0,0.0,0.0,0.0,0.0,0.0,0.0,0.0,0.0,0.0,0.0,0.0,0.0,0.0,0.0,0.0,0.0,0.0,0.0,0.0,0.0,0.0,0.0,0.0,0.0,0.0,0.0,0.0,0.0,0.0,0.0,0.0,0.0,0.0,0.0,0.0,0.0,0.0,0.0,0.0,0.0,0.0,0.0,0.0,0.0,0.0,0.0,0.0,0.0,0.0,0.0,0.0,0.0,0.0,0.0,0.0,0.0,0.0,0.0,0.0,0.0,0.0,0.0,0.0,0.0,0.0,0.0,0.0,0.0,0.0,0.0,0.0,0.0,0.0,0.0,0.0,0.0,0.0,0.0,0.0,0.0,0.0,0.0,0.0,0.0,0.0,0.0,0.0,0.0,0.0,0.0,0.0,0.0,0.0,0.0,0.0,0.0,0.0,0.0,0.0,0.0,0.0,0.0,0.0,0.0,0.0,0.0,0.0,0.0,0.0,0.0,0.0,0.0,0.0,0.0,0.0,0.0,0.0,0.0,0.0,0.0,0.0,0.0,0.0,0.0,0.0,0.0,0.0,0.0,0.0,0.0,0.0,0.0,0.0,0.0,0.0,0.0,0.0,0.0,0.0,0.0,0.0,0.0,0.0,0.0,0.0,0.0,0.0,0.0,0.0,0.0,0.0,0.0,0.0,0.0,0.0,0.0,0.0,0.0,0.0,0.0,0.0,0.0,0.0,0.0,0.0,0.0,0.0,0.0,0.0,0.0,0.0,0.0,0.0,0.0,0.0,0.0,0.0,0.0,0.0,0.0,0.0,0.0,0.0,0.0,0.0,0.0,0.0,0.0,0.0,0.0,0.0,0.0,0.0,0.0,0.0,0.0,0.0,0.0,0.0,0.0,0.0,0.0,0.0,0.0,0.0,0.0,0.0,0.0,0.0,0.0,0.0,0.0,0.0,0.0,0.0,0.0,0.0,0.0,0.0,0.0,0.0,0.0,0.0,0.0,0.0,0.0,0.0,0.0,0.0,0.0,0.0,0.0,0.0,0.0,0.0,0.0,0.0,0.0,0.0,0.0,0.0,0.0,0.0,0.0,0.0,0.0,0.0,0.0,0.0,0.0,0.0,0.0,0.0,0.0,0.0,0.0,0.0,0.0,0.0,0.0,0.0,0.0,0.0,0.0,0.0,0.0,0.0,0.0,0.0,0.0,0.0,0.0,0.0,0.0,0.0,0.0,0.0,0.0,0.0,0.0,0.0,0.0,0.0,0.0,0.0,0.0,0.0,0.0,0.0,0.0,0.0,0.0,0.0,0.0,0.0,0.0,0.0,0.0,0.0,0.0,0.0,0.0,0.0,0.0,0.0,0.0,0.0,0.0,0.0,0.0,0.0,0.0,0.0,0.0,0.0,0.0,0.0,0.0,0.0,0.0,0.0,0.0,0.0,0.0,0.0,0.0,0.0,0.0,0.0,0.0,0.0,0.0,0.0,0.0,0.0,0.0,0.0,0.0,0.0,0.0,0.0,0.0,0.0,0.0,0.0,0.0,0.0,0.0,0.0,0.0,0.0,0.0,0.0,0.0,0.0,0.0,0.0,0.0,0.0,0.0,0.0,0.0,0.0,0.0,0.0,0.0,0.0,0.0,0.0,0.0,0.0,0.0,0.0,0.0,0.0,0.0,0.0,0.0,0.0,0.0,0.0,0.0,0.0,0.0,0.0,0.0,0.0,0.0,0.0,0.0,0.0,0.0,0.0,0.0,0.0,0.0,0.0,0.0,0.0,0.0,0.0,0.0,0.0,0.0,0.0,0.0,0.0,0.0,0.0,0.0,0.0,0.0,0.0,0.0,0.0,0.0,0.0,0.0,0.0,0.0,0.0,0.0,0.0,0.0,0.0,0.0,0.0,0.0,0.0,0.0,0.0,0.0,0.0,0.0,0.0,0.0,0.0,0.0,0.0,0.0,0.0,0.0,0.0,0.0,0.0,0.0,0.0,0.0,0.0,0.0,0.0,0.0,0.0,0.0,0.0,0.0,0.0,0.0,0.0,0.0,0.0,0.0,0.0,0.0,0.0,0.0,0.0,0.0,0.0,0.0,0.0,0.0,0.0,0.0,0.0,0.0,0.0,0.0,0.0,0.0,0.0,0.0,0.0,0.0,0.0,0.0,0.0,0.0,0.0,0.0,0.0,0.0,0.0,0.0,0.0,0.0,0.0,0.0,0.0,0.0,0.0,0.0,0.0,0.0,0.0,0.0,0.0,0.0,0.0,0.0,0.0,0.0,0.0,0.0,0.0,0.0,0.0,0.0,0.0,0.0,0.0,0.0,0.0,0.0,0.0,0.0,0.0,0.0,0.0,0.0,0.0,0.0,0.0,0.0,0.0,0.0,0.0,0.0,0.0,0.0,0.0,0.0,0.0,0.0,0.0,0.0,0.0,0.0,0.0,0.0,0.0,0.0,0.0,0.0,0.0,0.0,0.0,0.0,0.0,0.0,0.0,0.0,0.0,0.0,0.0,0.0,0.0,0.0,0.0,0.0,0.0,0.0,0.0,0.0,0.0,0.0,0.0,0.0,0.0,0.0,0.0,0.0,0.0,0.0,0.0,0.0,0.0,0.0,0.0,0.0,0.0,0.0,0.0,0.0,0.0,0.0,0.0,0.0,0.0,0.0,0.0,0.0,0.0,0.0,0.0,0.0,0.0,0.0,0.0,0.0,0.0,0.0,0.0,0.0,0.0,0.0,0.0,0.0,0.0,0.0,0.0,0.0,0.0,0.0,0.0,0.0,0.0,0.0,0.0,0.0,0.0,0.0,0.0,0.0,0.0,0.0,0.0,0.0,0.0,0.0,0.0,0.0,0.0,0.0,0.0,0.0,0.0,0.0,0.0,0.0,0.0,0.0,0.0,0.0,0.0,0.0,0.0,0.0,0.0,0.0,0.0,0.0,0.0,0.0,0.0,0.0,0.0,0.0,0.0,0.0,0.0,0.0,0.0,0.0,0.0,0.0,0.0,0.0,0.0,0.0,0.0,0.0,0.0,0.0,0.0,0.0,0.0,0.0,0.0,0.0,0.0,0.0,0.0,0.0,0.0,0.0,0.0,0.0,0.0,0.0,0.0,0.0,0.0,0.0,0.0,0.0,0.0,0.0,0.0,0.0,0.0,0.0,0.0,0.0,0.0,0.0,0.0,0.0,0.0,0.0,0.0,0.0,0.0,0.0,0.0,0.0,0.0,0.0,0.0,0.0,0.0,0.0,0.0,0.0,0.0,0.0,0.0,0.0,0.0,0.0,0.0,0.0,0.0,0.0,0.0,0.0,0.0,0.0,0.0,0.0,0.0,0.0,0.0,0.0,0.0,0.0,0.0,0.0,0.0,0.0,0.0,0.0,0.0,0.0,0.0,0.0,0.0,0.0,0.0,0.0,0.0,0.0,0.0,0.0,0.0,0.0,0.0,0.0,0.0,0.0,0.0,0.0,0.0,0.0,0.0,0.0,0.0,0.0,0.0,0.0,0.0,0.0,0.0,0.0,0.0,0.0,0.0,0.0,0.0,0.0,0.0,0.0,0.0,0.0,0.0,0.0,0.0,0.0,0.0,0.0,0.0,0.0,0.0,0.0,0.0,0.0,0.0,0.0,0.0,0.0,0.0,0.0,0.0,0.0,0.0,0.0,0.0,0.0,0.0,0.0,0.0,0.0,0.0,0.0,0.0,0.0,0.0,0.0,0.0,0.0,0.0,0.0,0.0,0.0,0.0,0.0,0.0,0.0,0.0,0.0,0.0,0.0,0.0,0.0,0.0,0.0,0.0,0.0,0.0,0.0,0.0,0.0,0.0,0.0,0.0,0.0,0.0,0.0,0.0,0.0,0.0,0.0,0.0,0.0,0.0,0.0,0.0,0.0,0.0,0.0,0.0,0.0,0.0,0.0,0.0,0.0,0.0,0.0,0.0,0.0,0.0,0.0,0.0,0.0,0.0,0.0,0.0,0.0,0.0,0.0,0.0,0.0,0.0,0.0,0.0,0.0,0.0,0.0,0.0,0.0,0.0,0.0,0.0,0.0,0.0,0.0,0.0,0.0,0.0,0.0,0.0,0.0,0.0,0.0,0.0,0.0,0.0,0.0,0.0,0.0,0.0,0.0,0.0,0.0,0.0,0.0,0.0,0.0,0.0,0.0,0.0,0.0,0.0,0.0,0.0,0.0,0.0,0.0,0.0,0.0,0.0,0.0,0.0,0.0,0.0,0.0,0.0,0.0,0.0,0.0,0.0,0.0,0.0,0.0,0.0,0.0,0.0,0.0,0.0,0.0,0.0,0.0,0.0,0.0,0.0,0.0,0.0,0.0,0.0,0.0,0.0,0.0,0.0,0.0,0.0,0.0,0.0,0.0,0.0,0.0,0.0,0.0,0.0,0.0,0.0,0.0,0.0,0.0,0.0,0.0,0.0,0.0,0.0,0.0,0.0,0.0,0.0,0.0,0.0,0.0,0.0,0.0,0.0,0.0,0.0,0.0,0.0,0.0,0.0,0.0,0.0,0.0,0.0,0.0,0.0,0.0,0.0,0.0,0.0,0.0,0.0,0.0,0.0,0.0,0.0,0.0,0.0,0.0,0.0,0.0,0.0,0.0,0.0,0.0,0.0,0.0,0.0,0.0,0.0,0.0,0.0,0.0,0.0,0.0,0.0,0.0,0.0,0.0,0.0,0.0,0.0,0.0,0.0,0.0,0.0,0.0,0.0,0.0,0.0,0.0,0.0,0.0,0.0,0.0,0.0,0.0,0.0,0.0,0.0,0.0,0.0,0.0,0.0,0.0,0.0,0.0,0.0,0.0,0.0,0.0,0.0,0.0,0.0,0.0,0.0,0.0,0.0,0.0,0.0,0.0,0.0,0.0,0.0,0.0,0.0,0.0,0.0,0.0,0.0,0.0,0.0,0.0,0.0,0.0,0.0,0.0,0.0,0.0,0.0,0.0,0.0,0.0,0.0,0.0,0.0,0.0,0.0,0.0,0.0,0.0,0.0,0.0,0.0,0.0,0.0,0.0,0.0,0.0,0.0,0.0,0.0,0.0,0.0,0.0,0.0,0.0,0.0,0.0,0.0,0.0,0.0,0.0,0.0,0.0,0.0,0.0,0.0,0.0,0.0,0.0,0.0,0.0,0.0,0.0,0.0,0.0,0.0,0.0,0.0,0.0,0.0,0.0,0.0,0.0,0.0,0.0,0.0,0.0,0.0,0.0,0.0,0.0,0.0,0.0,0.0,0.0,0.0,0.0,0.0,0.0,0.0,0.0,0.0,0.0,0.0,0.0,0.0,0.0,0.0,0.0,0.0,0.0,0.0,0.0,0.0,0.0,0.0,0.0,0.0,0.0,0.0,0.0,0.0,0.0,0.0,0.0,0.0,0.0,0.0,0.0,0.0,0.0,0.0,0.0,0.0,0.0,0.0,0.0,0.0,0.0,0.0,0.0,0.0,0.0,0.0,0.0,0.0,0.0,0.0,0.0,0.0,0.0,0.0,0.0,0.0,0.0,0.0,0.0,0.0,0.0,0.0,0.0,0.0,0.0,0.0,0.0,0.0,0.0,0.0,0.0,0.0,0.0,0.0,0.0,0.0,0.0,0.0,0.0,0.0,0.0,0.0,0.0,0.0,0.0,0.0,0.0,0.0,0.0,0.0,0.0,0.0,0.0,0.0,0.0,0.0,0.0,0.0,0.0,0.0,0.0,0.0,0.0,0.0,0.0,0.0,0.0,0.0,0.0,0.0,0.0,0.0,0.0,0.0,0.0,0.0,0.0,0.0,0.0,0.0,0.0,0.0,0.0,0.0,0.0,0.0,0.0,0.0,0.0,0.0,0.0,0.0,0.0,0.0,0.0,0.0,0.0,0.0,0.0,0.0,0.0,0.0,0.0,0.0,0.0,0.0,0.0,0.0,0.0,0.0,0.0,0.0,0.0,0.0,0.0,0.0,0.0,0.0,0.0,0.0,0.0,0.0,0.0,0.0,0.0,0.0,0.0,0.0,0.0,0.0,0.0,1.0717,1.1257,0.0,0.0,0.0,0.0,0.0,0.0,0.0,0.0,0.0,0.0,0.0,0.0,0.0,0.0,0.0,0.0,0.0,0.0,0.0,0.0,0.0,0.0,0.0,0.0,0.0,0.0,0.0,0.0,0.0,0.0,0.0,0.0,0.0,0.0,0.0,0.0,0.0,0.0,2.855,2.849,2.849,2.849,2.849,2.849,0.0,0.0,0.0,0.0,0.0,0.0,0.0,0.0,0.0,0.0,0.0,0.0,0.0,0.0,0.0,0.0,0.0,0.0,0.0,0.0,0.0,0.0,0.0,0.0,0.0,0.0,0.0,0.0,0.0,0.0,0.0,0.0,0.0,0.0,0.0,0.0,0.0,0.0,0.0,0.0,0.0,0.0,0.0,0.0,0.0,0.0,0.0,0.0,0.0,0.0,0.0,0.0,0.0,0.0,0.0,0.0,0.0,0.0,0.0,0.0,0.0,0.0,0.0,0.0,0.0,0.0,0.0,0.0,0.0,0.0,0.9741,0.9958,0.0,0.0,0.0,0.0,0.0,0.0,0.0,0.0,0.0,0.0,0.0,0.0,0.0,0.0,0.0,0.0,0.0,0.0,0.0,0.0,0.0,0.0,0.0,2.9792,2.9792,2.9792,2.9792,2.9792,0.0,0.0,0.0,0.0,0.0,0.0,0.0,2.8843,2.8736,2.849,2.8587,2.8643,2.8635,2.8739,2.8787,2.8735,2.7827,0.0,0.0,0.0,0.0,0.0,0.0,0.0,0.0,0.0,0.0,0.0,0.0,0.0,0.0,0.0,0.0,0.0,0.0,0.0,0.0,0.0,0.0,0.0,0.0,0.0,0.0,0.0,0.0,0.0,0.0,0.0,0.0,0.0,0.0,0.0,0.0,0.0,0.0,0.0,0.0,0.0,0.0,0.0,0.0,0.0,0.0,0.0,0.0,0.0,0.0,0.0,0.0,0.0,0.0,0.0,0.0,0.0,0.0,0.0,0.0,0.0,0.0,0.0,0.8933,0.8476,0.8266,0.8266,0.8138,0.7962,0.8894,0.861,0.7484,0.7326,0.0,0.0,0.0,0.0,0.0,0.0,0.0,0.0,0.0,0.0,0.0,0.0,0.0,0.0,0.0,0.0,0.0,0.0,0.0,0.0,0.0,2.9792,2.9792,2.9792,2.9792,2.9792,2.9792,0.0,0.0,0.0,0.0,0.0,2.9072,2.9052,2.8875,2.849,2.8967,2.9196,2.9208,2.9665,2.9881,2.9833,2.8798,2.7321,2.5624,0.0,0.0,0.0,0.0,0.0,0.0,0.0,0.0,0.0,0.0,0.0,0.0,0.0,0.0,0.0,0.0,0.0,0.0,0.0,0.0,0.0,0.0,0.0,0.0,0.0,0.0,0.0,0.0,0.0,0.0,0.0,0.0,0.0,0.0,0.0,0.0,0.0,0.0,0.0,0.0,0.0,1.3578,1.351,0.0,0.0,0.0,0.0,0.0,0.0,0.0,0.0,0.0,0.0,0.0,0.0,0.0,1.0578,1.034,0.9409,0.8889,0.8762,0.8652,0.859,0.8542,0.8542,0.83,0.79,0.805,0.0,0.7437,0.6628,0.0,0.0,0.0,0.0,0.0,0.0,0.0,0.0,0.0,0.0,0.0,0.0,0.0,0.0,0.0,0.0,0.0,0.0,0.0,0.0,0.0,2.9792,2.9792,2.9792,3.008,3.0118,2.9817,3.008,0.0,0.0,0.0,2.9202,2.8776,2.8756,2.8814,2.8955,2.9184,2.9448,2.9749,2.9998,2.9534,2.8525,2.8556,2.7565,2.5849,2.4761,0.0,0.0,0.0,0.0,0.0,0.0,0.0,0.0,0.0,0.0,0.0,0.0,0.0,0.0,0.0,0.0,0.0,0.0,0.0,0.0,0.0,0.0,0.0,0.0,0.0,0.0,0.0,0.0,0.0,0.0,0.0,0.0,0.0,0.0,0.0,0.0,0.0,0.0,0.0,1.3784,1.3637,1.3027,1.3888,1.4524,0.0,0.0,0.0,0.0,0.0,0.0,0.0,0.0,0.0,1.0857,1.0364,0.9945,0.9591,0.9051,0.8761,0.871,0.8635,0.852,0.838,0.838,0.8208,0.7874,0.7297,0.6918,0.6719,0.6672,0.6517,0.6273,0.0,0.0,0.0,0.0,0.467,0.4488,0.0,0.0,0.0,0.0,0.0,0.0,0.0,0.0,0.0,0.0,0.0,0.0,2.9792,2.9792,2.9854,2.9993,3.0236,3.0274,3.0018,3.0256,3.0029,2.9221,2.9177,2.8993,2.859,2.8663,2.8907,2.9304,2.9569,2.9789,2.9927,3.0316,2.9481,2.7699,2.8343,2.7569,2.5702,2.443,2.3263,2.231,0.0,0.0,0.0,0.0,0.0,0.0,0.0,0.0,0.0,0.0,0.0,0.0,0.0,0.0,0.0,0.0,0.0,0.0,0.0,0.0,0.0,0.0,0.0,0.0,0.0,0.0,0.0,0.0,0.0,0.0,0.0,0.0,0.0,0.0,0.0,0.0,0.0,1.3288,1.321,1.2417,1.3258,1.3884,0.0,0.0,0.0,0.0,0.0,0.0,1.0364,1.029,1.0127,0.9768,0.9759,0.9555,0.9189,0.9027,0.8909,0.8797,0.869,0.8539,0.8292,0.8292,0.8182,0.7918,0.6849,0.629,0.609,0.6093,0.5805,0.5317,0.5072,0.4714,0.4259,0.3911,0.3803,0.3638,0.0,0.0,0.0,0.0,0.0,0.0,0.0,0.0,0.0,0.0,0.0,2.9792,2.9792,2.9792,3.0005,3.0532,3.0118,3.0043,3.0525,3.0118,2.9707,2.9399,2.938,2.9204,2.8803,2.9092,2.9268,2.9304,3.0323,3.0351,2.9455,3.0929,3.0551,2.8627,2.8673,2.7092,2.4393,2.4361,2.379,2.2776,2.2048,0.0,0.0,0.0,0.0,0.0,0.0,0.0,0.0,0.0,0.0,0.0,0.0,0.0,0.0,0.0,0.0,0.0,0.0,0.0,0.0,0.0,0.0,0.0,0.0,0.0,0.0,0.0,0.0,0.0,0.0,0.0,0.0,0.0,0.0,0.0,0.0,0.0,0.0,1.1292,1.2179,0.0,0.0,0.0,0.0,1.2315,1.1184,1.0364,1.0043,1.0019,0.9895,0.9616,0.9612,0.9551,0.9392,0.938,0.9181,0.8797,0.8789,0.8723,0.859,0.859,0.8428,0.8109,0.6927,0.6284,0.5958,0.4137,0.3781,0.4289,0.3379,0.3556,0.4198,0.3287,0.2952,0.2808,0.0,0.0,0.0,0.0,0.0,0.0,0.0,0.0,2.9792,2.9792,2.9792,2.993,3.0281,3.0319,3.0532,3.1072,3.0934,3.0758,3.06,3.0301,2.9848,2.9229,2.9079,2.9041,2.9125,2.9237,2.9326,2.9349,2.9744,2.9607,2.8956,2.9499,2.905,2.7722,2.7722,2.6608,2.4695,2.4708,2.4032,2.2876,2.2593,2.2309,0.0,0.0,0.0,0.0,0.0,0.0,0.0,0.0,0.0,0.0,0.0,0.0,0.0,0.0,0.0,0.0,0.0,0.0,0.0,0.0,0.0,0.0,0.0,0.0,0.0,0.0,0.0,0.0,0.0,0.0,0.0,0.0,0.0,0.0,0.0,0.0,0.0,1.1194,1.1531,0.0,1.1722,1.1502,1.1258,1.1086,1.0507,1.0019,0.9752,0.9747,0.9702,0.9603,0.9603,0.9571,0.9531,0.9437,0.9339,0.9185,0.9051,0.8966,0.8928,0.8783,0.8248,0.7355,0.6234,0.5176,0.4132,0.2844,0.2732,0.3357,0.3023,0.271,0.2396,0.2061,0.1928,0.188,0.0,0.0,0.0,0.0,0.0,0.0,0.0,0.0,2.9792,2.9792,2.9792,3.0005,3.0538,3.06,3.0821,3.1348,3.1223,3.106,3.0884,3.0413,2.9983,2.9684,2.9391,2.9254,2.9292,2.9641,2.9862,2.9919,3.0094,2.968,2.8704,2.905,2.8308,2.671,2.7047,2.634,2.4907,2.4907,2.4195,2.3096,2.2959,2.2739,2.2469,0.0,0.0,0.0,0.0,0.0,0.0,0.0,0.0,0.0,0.0,0.0,0.0,0.0,0.0,0.0,0.0,0.0,0.0,0.0,0.0,0.0,0.0,0.0,0.0,0.0,0.0,0.0,0.0,0.0,0.0,0.0,0.0,0.0,0.0,1.1194,1.1194,1.1194,1.112,1.1071,1.1071,1.0728,1.0462,1.029,1.0019,0.9797,0.9603,0.9603,0.9603,0.9603,0.9603,0.9603,0.9603,0.9506,0.9441,0.94,0.8906,0.8632,0.8547,0.806,0.7378,0.6564,0.5453,0.4356,0.3287,0.2248,0.2062,0.2421,0.2404,0.1995,0.1391,0.1391,0.1391,0.1345,0.0,0.0,0.0,0.0,0.0,0.0,0.0,2.9792,2.9792,2.9792,2.9804,3.003,3.0563,3.0613,3.0846,3.1373,3.0922,3.0814,3.1361,3.0382,3.0072,3.0725,3.0325,2.9854,2.9364,3.0371,3.0879,3.0826,3.1342,3.0588,2.8634,2.9612,2.8505,2.5732,2.671,2.6316,2.4907,2.4907,2.4354,2.348,2.3087,2.2922,2.2876,0.0,0.0,0.0,0.0,0.0,0.0,0.0,0.0,0.0,0.0,0.0,0.0,0.0,0.0,0.0,0.0,0.0,0.0,0.0,0.0,0.0,0.0,0.0,0.0,0.0,0.0,0.0,0.0,0.0,0.0,0.0,0.0,0.0,1.1194,1.1198,1.1203,1.1198,1.0962,1.082,1.079,1.0323,1.0003,1.0003,0.9756,0.9603,0.9603,0.9603,0.9603,0.9603,0.9603,0.9603,0.9603,0.9603,0.9539,0.9388,0.8325,0.7716,0.7476,0.6405,0.5884,0.579,0.4606,0.392,0.3563,0.2381,0.1737,0.1502,0.1424,0.1391,0.1391,0.1391,0.1391,0.1233,0.0,0.0,0.0,0.0,0.0,0.0,0.0,2.9792,2.9792,2.9792,3.0143,3.0583,3.1122,3.1173,3.1399,3.1938,3.1127,3.0766,3.1149,3.0005,2.943,2.9702,2.9582,2.983,3.0456,3.0744,3.037,2.9296,2.9454,2.8505,2.6524,2.6826,2.65,2.5708,2.5989,2.5664,2.4907,2.4907,2.4547,2.3975,2.3523,2.3334,2.3251,0.0,0.0,0.0,0.0,0.0,0.0,0.0,0.0,0.0,0.0,0.0,0.0,0.0,0.0,0.0,0.0,0.0,0.0,0.0,0.0,0.0,0.0,0.0,0.0,0.0,0.0,0.0,0.0,0.0,0.0,0.0,1.1326,1.1373,1.1217,1.1331,1.1298,1.0942,1.1112,1.1108,1.0767,1.0427,1.023,1.023,0.9826,0.9603,0.9603,0.9603,0.9603,0.9603,0.9603,0.9603,0.9603,0.9603,0.9579,0.9526,0.8459,0.7915,0.7822,0.6653,0.5646,0.4773,0.4113,0.3284,0.2358,0.1825,0.156,0.1485,0.1433,0.1391,0.1391,0.1391,0.0964,0.0359,0.0,0.0,0.0,0.0,0.0,0.0,0.0,2.9792,2.9792,2.9792,3.0068,3.047,3.1009,3.106,3.1198,3.1491,3.1173,3.0924,3.089,3.0391,2.9894,2.9455,2.9992,3.0492,3.0889,3.0702,3.0196,2.9326,2.8912,2.798,2.6622,2.6422,2.62,2.5981,2.5796,2.5416,2.4907,2.4907,2.4637,2.4183,2.3895,2.3794,2.373,2.3056,2.2503,2.1978,2.1078,2.0494,1.999,1.8972,0.0,0.0,0.0,0.0,0.0,0.0,0.0,0.0,0.0,0.0,0.0,0.0,0.0,0.0,0.0,0.0,0.0,0.0,0.0,0.0,0.0,0.0,0.0,0.0,1.1204,1.1246,1.1026,1.1258,1.1291,1.089,1.098,1.0949,1.0685,1.042,1.0208,1.0129,0.987,0.968,0.9607,0.9603,0.9603,0.9603,0.9603,0.9603,0.9603,0.915,0.8924,0.8899,0.7378,0.6653,0.6625,0.5468,0.4506,0.3714,0.343,0.2807,0.193,0.1769,0.1642,0.0,0.0,0.0,0.0,0.0,0.0471,-0.0112,0.0,0.0,0.0,0.0,0.0,0.0,0.0,2.9792,2.9792,2.9792,2.9842,3.0068,3.055,3.06,3.06,3.06,3.1014,3.1037,3.0513,3.1025,3.0835,2.9707,3.0912,3.1386,3.0908,3.047,3.0194,3.0011,2.91,2.8375,2.7791,2.7359,2.6915,2.6445,2.6005,2.5497,2.4983,2.4924,2.4634,2.4202,2.4202,2.4202,2.4156,2.3678,2.319,2.2666,2.1734,2.0916,2.0207,1.9534,0.0,0.0,0.0,0.0,0.0,0.0,0.0,0.0,0.0,0.0,0.0,0.0,0.0,0.0,0.0,0.0,0.0,0.0,0.0,0.0,0.0,0.0,0.0,0.0,1.0986,1.1005,1.0748,1.1091,1.1245,1.0915,1.0741,1.0632,1.0584,1.0349,1.0141,0.9954,0.9921,0.9811,0.9611,0.0,0.0,0.0,0.0,0.9352,0.9249,0.8297,0.7822,0.7798,0.5757,0.4809,0.4759,0.3682,0.3054,0.2801,0.2775,0.2474,0.1994,0.196,0.1747,0.1418,0.1343,0.1321,0.12,0.0204,-0.0247,-0.0583,0.0,0.0,0.0,0.0,0.0,0.0,0.0,2.9792,2.9792,2.9792,3.0181,3.0475,3.0588,3.06,3.06,3.06,3.0503,3.025,2.9829,3.0152,3.0272,3.0025,3.0681,3.0987,3.0824,3.0732,3.0071,2.8824,2.8628,2.8071,2.7164,2.709,2.6974,2.6869,2.6569,2.6059,2.5443,2.5174,2.4737,2.4202,2.4202,2.4202,2.4156,2.3678,2.3175,2.2602,2.171,2.1205,2.0696,1.9242,1.8739,1.8568,1.765,1.7111,0.0,0.0,0.0,0.0,0.0,0.0,0.0,0.0,0.0,0.0,0.0,0.0,0.0,0.0,0.0,0.0,0.0,0.0,0.0,1.1025,1.1042,1.0967,1.0812,1.0987,1.1045,1.0689,1.0866,1.0858,1.0476,1.0383,1.0306,1.0145,0.9995,0.9811,0.9611,0.9603,0.92,0.8347,0.8297,0.7897,0.7021,0.6822,0.6697,0.6697,0.0,0.0,0.4759,0.3682,0.3054,0.2801,0.2573,0.2297,0.197,0.1762,0.1144,0.0293,0.0239,0.0234,0.0162,-0.0897,-0.1726,-0.2397,0.0,0.0,0.0,0.0,0.0,0.0,0.0,2.9792,2.9792,2.9792,3.003,3.0206,3.0206,3.0206,3.0206,3.0206,2.994,2.9976,3.0377,3.0316,3.0344,3.0492,3.0529,3.0538,3.0503,2.9728,2.8978,2.8206,2.7894,2.762,2.736,2.7119,2.7139,2.7334,2.6817,2.6235,2.5591,2.5236,2.4751,2.4202,2.4202,2.4202,2.4183,2.3947,2.3497,2.292,2.2211,2.1253,2.0172,1.9026,1.8194,1.7546,1.6981,1.6422,1.5913,0.0,0.0,0.0,0.0,0.0,0.0,0.0,0.0,0.0,0.0,0.0,0.0,0.0,0.0,1.1178,0.0,0.0,1.0925,1.0868,1.1015,1.1014,1.066,1.0881,1.0977,1.069,1.0799,1.0824,1.0574,1.0562,1.0452,1.0211,0.9601,0.9108,0.8811,0.8297,0.7748,0.7223,0.7198,0.6946,0.6398,0.5877,0.5604,0.5579,0.4508,0.4008,0.3982,0.3456,0.3054,0.2801,0.2648,0.2448,0.2146,0.1337,0.0276,-0.0869,-0.1425,-0.1323,-0.0962,-0.1991,-0.263,-0.3066,0.0,0.0,0.0,0.0,0.0,0.0,0.0,2.9792,2.9792,2.9792,2.9792,2.9792,2.9721,2.9721,2.9732,2.9754,2.9466,2.9777,3.0922,3.0399,3.0208,3.0594,3.0152,2.9863,2.977,2.8524,2.7843,2.774,2.733,2.7324,2.7682,2.7393,2.7451,2.78,2.7075,2.6384,2.568,2.5316,2.4785,2.4202,2.4202,2.4078,2.387,2.3811,2.3513,2.307,2.2566,2.118,1.945,1.8829,1.7756,1.6682,1.6626,1.6157,1.5605,1.5456,1.4908,0.0,0.0,0.0,0.0,0.0,0.0,0.0,0.0,0.0,1.1208,1.125,1.1255,1.1247,1.1235,1.1196,1.1081,1.0785,1.1001,1.0953,1.0208,1.0435,1.0519,1.0053,1.0217,1.0359,1.0359,1.0135,0.9872,0.9572,0.8753,0.8095,0.7729,0.6884,0.6322,0.6102,0.6102,0.5999,0.5777,0.4933,0.4483,0.4483,0.3607,0.3205,0.3205,0.3205,0.3054,0.2775,0.2472,0.2194,0.184,0.0554,-0.0756,-0.1991,-0.2871,-0.2843,-0.238,-0.3137,-0.3412,-0.3487,0.0,0.0,0.0,0.0,0.0,0.0,0.0,0.0,2.9792,2.9792,2.9792,2.9702,2.947,2.9438,2.948,2.9613,2.9151,2.9237,3.0161,2.9333,2.9026,2.9555,2.9115,2.863,2.816,2.799,2.7628,2.7096,2.746,2.7643,2.7702,2.7998,2.8174,2.8223,2.7586,2.6871,2.6106,2.5574,2.4935,2.4202,2.4202,2.3596,2.2652,2.2434,2.2434,2.2534,2.2191,2.0883,1.922,1.8495,1.7729,1.6997,1.6689,1.6534,1.6322,1.5605,1.5051,1.44,1.3195,1.2151,1.134,1.1218,1.1194,1.1194,0.0,0.0,1.125,1.1439,1.1482,1.1518,1.1695,1.1526,1.1336,1.1252,1.1065,1.0512,0.9236,0.9102,0.8723,0.7639,0.8447,0.9089,0.9089,0.814,0.7444,0.7283,0.7163,0.6974,0.6674,0.6558,0.603,0.5012,0.4983,0.4533,0.3555,0.343,0.3381,0.3381,0.3256,0.3205,0.3205,0.3205,0.3054,0.2725,0.1285,0.0504,0.0176,-0.0932,-0.2016,-0.3022,-0.3148,-0.3717,-0.447,-0.4498,-0.4472,-0.445,0.0,0.0,0.0,0.0,0.0,0.0,0.0,0.0,0.0,2.956,2.956,2.9509,2.9419,2.9314,2.934,2.9586,2.9107,2.9051,2.964,2.9011,2.8705,2.8991,2.8247,2.7723,2.7489,2.7181,2.6904,2.665,2.708,2.7285,2.7295,2.7471,2.7549,2.7523,2.6965,2.6371,2.5822,2.5279,2.4718,2.4152,2.3488,2.282,2.2181,2.1269,2.0685,2.0334,2.0184,1.8952,0.0,1.703,1.626,1.5444,1.5311,1.5248,1.5129,1.449,1.4154,1.3769,1.2638,1.1785,1.1194,1.1194,1.1194,1.1227,1.1354,1.1283,1.1288,1.1598,1.1575,1.1543,1.171,1.1533,1.1093,0.0,1.0113,0.9505,0.8048,0.7987,0.7853,0.7171,0.6894,0.7042,0.7768,0.7389,0.7013,0.68,0.6206,0.5749,0.5528,0.4913,0.4367,0.3883,0.3858,0.3657,0.3205,0.3205,0.3205,0.3205,0.3205,0.3205,0.3205,0.3205,0.2725,0.184,0.1159,-0.0076,-0.1662,-0.2116,-0.3021,-0.413,-0.413,-0.4406,-0.4805,-0.4769,-0.4732,-0.4718,0.0,0.0,0.0,0.0,0.0,0.0,0.0,0.0,0.0,0.0,2.9321,2.9314,2.9243,2.8843,2.8782,2.925,2.8723,2.8547,2.8995,2.8477,2.8177,2.8117,2.7269,2.6781,2.6781,2.6418,2.6211,2.6211,2.6641,2.6846,2.6846,2.6963,2.6961,2.6858,2.6413,2.5945,2.5431,2.4656,2.409,2.3621,2.2409,2.1576,2.0965,1.983,1.8739,1.7835,1.836,1.7443,1.5991,1.5881,1.5157,1.4298,1.4298,1.4202,1.3986,1.3612,1.3298,1.2905,1.2024,1.1492,1.1208,1.1269,1.1283,1.134,1.1527,1.1477,1.1453,1.173,1.1622,1.1408,1.1199,1.0973,1.038,0.9081,0.8886,0.8373,0.6822,0.6768,0.6702,0.6138,0.5272,0.5063,0.5952,0.6066,0.6003,0.5829,0.5089,0.4584,0.4431,0.3688,0.324,0.3206,0.3205,0.3205,0.3205,0.3205,0.3205,0.3205,0.3205,0.3205,0.318,0.2977,0.2093,0.0731,0.0453,-0.0906,-0.292,-0.3222,-0.3927,-0.4809,-0.4809,-0.4809,-0.4809,-0.4809,-0.4809,-0.4801,0.0,0.0,0.0,0.0,0.0,0.0,0.0,0.0,0.0,0.0,0.0,0.0,0.0,2.7894,2.7603,2.8475,2.7756,2.7465,2.8006,2.7488,2.7011,2.6689,2.6078,2.5757,2.5757,2.5728,2.5728,2.5728,2.6191,2.6431,2.6416,2.6826,2.6858,2.6593,2.6326,2.5843,2.5128,2.3752,2.2911,2.2417,2.1032,1.9674,1.8441,1.7893,1.666,1.5447,1.7264,1.7102,1.5934,1.5549,1.4921,1.4298,1.4298,1.3943,0.0,1.3491,1.2807,0.0,0.0,0.0,1.1246,1.1428,1.1485,1.1537,1.1761,1.1803,1.1803,1.1787,1.158,1.1079,1.0058,0.9697,0.9112,0.7768,0.7607,0.7125,0.5576,0.5372,0.4907,0.3661,0.3466,0.3443,0.0,0.3486,0.3542,0.3595,0.3572,0.352,0.3437,0.3407,0.3327,0.3209,0.3205,0.3205,0.3205,0.3205,0.3205,0.3205,0.3205,0.3205,0.318,0.2396,0.1159,-0.0403,-0.146,-0.239,-0.3274,-0.4305,-0.4759,-0.4809,-0.4809,-0.4809,-0.4809,-0.4809,-0.4809,-0.4809,0.0,0.0,0.0,0.0,0.0,0.0,0.0,0.0,0.0,0.0,0.0,0.0,0.0,0.0,0.0,0.0,2.701,2.6885,2.612,2.5889,2.572,2.5608,2.5419,2.543,2.5684,2.5693,2.5693,2.5693,2.5864,2.5932,2.5932,2.5896,2.5815,2.5706,2.5273,2.4546,2.3632,2.2985,2.2088,2.099,1.961,1.8596,1.7724,1.6437,1.5469,1.4881,0.0,1.5239,1.4805,1.4304,1.3962,1.3702,1.3413,1.3171,0.0,1.2613,0.0,0.0,0.0,0.0,1.1458,1.1641,1.1692,1.1744,1.1956,1.1895,1.1782,1.1739,1.1708,1.145,1.072,0.9949,0.8991,0.7591,0.6641,0.562,0.4288,0.4056,0.387,0.3385,0.329,0.0,0.0,0.0,0.0,0.3379,0.3354,0.339,0.3412,0.3413,0.3348,0.3267,0.3265,0.3246,0.3206,0.3205,0.3205,0.3205,0.2648,0.2118,0.1588,0.0958,-0.0101,-0.151,-0.2215,-0.3196,-0.428,-0.4659,-0.4809,-0.4809,-0.4809,-0.4809,-0.4809,-0.4809,-0.4809,-0.4809,0.0,0.0,0.0,0.0,0.0,0.0,0.0,0.0,0.0,0.0,0.0,0.0,0.0,0.0,0.0,0.0,0.0,2.5856,2.4945,2.5024,2.4962,2.4659,2.4779,2.4971,2.524,2.524,2.5318,2.5498,2.5498,2.5562,2.5684,2.544,2.5235,2.5113,2.4298,2.3486,2.2702,2.1641,2.0594,1.9546,1.8079,1.7198,1.6584,1.5394,1.4796,0.0,1.4358,1.4178,1.3968,1.3612,1.3491,1.3418,1.2958,1.2662,0.0,0.0,0.0,0.0,0.0,1.1546,1.165,1.1857,1.1905,1.1935,1.204,1.1601,1.1124,1.0918,1.062,1.0103,0.9112,0.845,0.7596,0.6134,0.5212,0.4385,0.3577,0.3452,0.3413,0.3305,0.3281,0.3285,0.0,0.0,0.0,0.3383,0.3384,0.3401,0.344,0.3443,0.3416,0.3329,0.3327,0.3298,0.3238,0.2956,0.2641,0.2345,0.1815,0.116,0.0353,0.0025,-0.0983,-0.2444,-0.2797,-0.3652,-0.4809,-0.4809,-0.4809,-0.4809,-0.4809,-0.4809,-0.4834,-0.511,-0.5236,-0.5236,0.0,0.0,0.0,0.0,0.0,0.0,0.0,0.0,0.0,0.0,0.0,0.0,0.0,0.0,0.0,0.0,0.0,0.0,2.4434,2.4783,2.4644,2.3834,2.417,2.4371,2.4391,2.4391,2.4619,2.5053,2.5053,2.5254,2.5601,2.5348,2.5046,2.4694,2.3389,2.2616,2.2114,1.9752,1.8564,1.8101,1.6491,1.5536,1.5041,1.477,1.4527,1.4298,1.4274,1.3919,1.3491,1.3467,0.0,0.0,0.0,0.0,0.0,0.0,0.0,1.1499,1.1518,1.1664,1.1857,1.2021,1.202,1.196,1.1864,1.0881,0.9842,0.9373,0.8543,0.7331,0.0,0.0,0.5201,0.3719,0.3483,0.3473,0.342,0.3461,0.3452,0.0,0.0,0.0,0.0,0.0,0.0,0.3497,0.0,0.3497,0.35,0.3501,0.3476,0.3418,0.3364,0.3308,0.3249,0.2438,0.1592,0.0731,0.0731,0.0328,-0.0455,-0.048,-0.1464,-0.3155,-0.318,-0.3783,-0.4759,-0.4759,-0.4784,-0.4809,-0.4809,-0.4834,-0.496,-0.5714,-0.6017,-0.6067,0.0,0.0,0.0,0.0,0.0,0.0,0.0,0.0,0.0,0.0,0.0,0.0,0.0,0.0,0.0,0.0,0.0,0.0,2.3495,2.3561,2.3681,2.3802,2.3896,2.4092,2.4391,2.4391,2.4473,2.458,2.458,2.4555,2.4508,2.424,2.3583,2.2643,2.2105,2.0851,1.9101,1.8478,1.744,1.6175,1.5551,1.5097,1.4764,1.4509,1.4358,1.425,1.3847,1.3612,1.3443,0.0,0.0,0.0,0.0,1.1512,1.1398,0.0,0.0,1.156,1.1872,1.1989,1.192,1.1472,1.1023,1.0501,0.9784,0.9029,0.8308,0.7801,0.7645,0.7299,0.0,0.0,0.0,0.468,0.3926,0.0,0.3414,0.3461,0.0,0.3309,0.0,0.3429,0.3471,0.3474,0.0,0.0,0.3522,0.3516,0.3561,0.3564,0.3537,0.3477,0.2852,0.2478,0.2408,0.1566,0.0719,-0.0101,-0.0101,-0.0505,-0.1314,-0.1716,-0.2144,-0.2623,-0.3029,-0.3581,-0.4209,-0.4209,-0.4435,-0.4809,-0.4809,-0.516,-0.5714,-0.5917,-0.6392,-0.6989,0.0,0.0,0.0,0.0,0.0,0.0,0.0,0.0,0.0,0.0,0.0,0.0,0.0,0.0,0.0,0.0,0.0,0.0,0.0,2.3091,2.322,2.3474,2.3484,2.3591,2.3825,2.3835,2.3923,2.4141,2.3595,2.339,2.343,2.2628,2.1886,2.1195,2.0353,1.9236,1.7941,1.7222,1.6283,0.0,0.0,1.4759,1.4467,1.4093,1.3943,1.3871,1.337,1.2802,0.0,0.0,0.0,1.1163,1.0877,1.1058,1.1303,1.1104,0.0,1.1235,1.1482,1.1117,1.0685,1.071,0.9955,0.9054,0.8386,0.7529,0.677,0.6305,0.6075,0.0,0.5112,0.483,0.0,0.0,0.0,0.0,0.335,0.3467,0.3493,0.0,0.3437,0.0,0.3533,0.3537,0.355,0.0,0.3556,0.355,0.3585,0.3222,0.2957,0.2929,0.2073,0.1426,0.0997,0.0525,-0.0155,-0.0971,-0.0938,-0.1162,-0.1617,-0.1919,-0.217,-0.2422,0.0,-0.3506,-0.4008,-0.4259,-0.4736,-0.5338,-0.5338,-0.5814,-0.6564,-0.6914,-0.7338,-0.7832,0.0,0.0,0.0,0.0,0.0,0.0,0.0,0.0,0.0,0.0,2.6319,0.0,0.0,0.0,0.0,0.0,0.0,0.0,0.0,0.0,2.3091,2.3091,2.296,2.2862,2.2862,2.2699,2.2815,2.3233,2.2172,2.1838,2.2113,2.0843,2.0118,1.9878,1.8489,1.7745,1.7475,1.6001,1.5252,1.4967,1.466,1.4393,1.413,0.0,1.3418,1.3346,1.2861,1.1819,0.0,0.0,1.031,1.0784,1.028,1.0622,1.1051,1.0521,1.0426,1.0523,1.0543,0.9682,0.893,0.957,0.8693,0.7597,0.7175,0.6151,0.521,0.4912,0.0,0.3758,0.3281,0.3581,0.3756,0.3362,0.0,0.3355,0.3304,0.3467,0.3534,0.3425,0.3516,0.3559,0.3418,0.3418,0.3362,0.325,0.325,0.3278,0.3418,0.252,0.1988,0.1848,0.1121,0.0306,-0.0574,-0.0583,-0.0964,-0.1688,-0.1635,-0.1621,-0.1592,-0.1592,-0.1893,-0.2422,-0.2901,-0.3506,-0.4183,-0.4659,-0.5361,-0.6167,-0.6167,-0.6639,-0.7437,-0.8134,-0.8457,-0.8655,0.0,0.0,0.0,0.0,0.0,0.0,0.0,0.0,0.0,0.0,2.5913,2.5537,0.0,0.0,0.0,0.0,0.0,0.0,0.0,0.0,0.0,2.3091,2.2142,2.1614,2.1614,2.0621,2.0158,2.0249,2.0044,1.985,1.9709,1.9456,1.8668,1.7488,1.7212,1.6412,1.5258,1.4951,1.4679,1.4395,1.3917,1.3676,1.3588,1.3104,0.0,0.0,1.2322,0.0,0.0,0.0,0.9097,0.9223,0.9225,0.9329,0.9467,0.9618,0.9346,0.9013,0.919,0.8718,0.8017,0.7445,0.6708,0.5879,0.504,0.4244,0.0,0.0,0.3439,0.3306,0.3205,0.3281,0.3325,0.3312,0.3305,0.3308,0.3297,0.3431,0.3488,0.0,0.3516,0.3306,0.252,0.2437,0.0,0.0,0.1374,0.1681,0.2408,0.1597,0.0785,0.0084,-0.0084,-0.0612,-0.1558,-0.1549,-0.1603,-0.1688,-0.1683,-0.1641,-0.1592,-0.1592,-0.1893,-0.2396,-0.2497,0.0,-0.5006,-0.5081,-0.5859,-0.6989,-0.6989,-0.7484,-0.8209,-0.8357,-0.8829,-0.9402,0.0,0.0,0.0,0.0,0.0,0.0,0.0,2.7377,2.635,2.5861,2.5411,2.4787,2.3875,2.3288,2.2947,0.0,0.0,0.0,0.0,0.0,0.0,0.0,0.0,0.0,2.0373,1.9807,1.9497,1.9497,0.0,1.8503,1.8342,1.7599,1.6859,1.6167,1.5883,1.5367,1.4688,1.4544,1.4256,1.3871,1.3612,1.3093,1.2452,0.0,0.0,0.0,0.0,0.0,0.0,0.0,0.7702,0.7278,0.8157,0.8537,0.8642,0.8468,0.8043,0.7646,0.7732,0.6972,0.6195,0.6228,0.538,0.4427,0.3931,0.0,0.0,0.0,0.3205,0.3205,0.3205,0.3205,0.0,0.3244,0.3274,0.3139,0.2697,0.2727,0.0,0.2108,0.2126,0.2017,0.0,0.1513,0.1345,0.0925,0.0477,0.0617,0.1485,0.0701,-0.0196,-0.1093,-0.1121,-0.1341,-0.1801,-0.1813,-0.179,-0.1761,-0.1729,-0.1835,-0.2074,-0.2028,-0.2546,-0.345,-0.3726,-0.4601,-0.5852,-0.6132,-0.6858,-0.7836,-0.7836,-0.8308,-0.9031,-0.9031,-0.9278,-0.9603,0.0,0.0,0.0,0.0,0.0,0.0,0.0,2.747,2.6567,2.5631,2.4744,2.3918,2.3178,2.2925,2.2803,0.0,0.0,0.0,0.0,0.0,0.0,0.0,0.0,0.0,0.0,0.0,0.0,1.8718,1.7716,0.0,0.0,0.0,0.0,0.0,1.4879,1.4592,1.4424,1.4028,1.357,0.0,0.0,1.2063,0.0,0.0,0.0,0.0,0.0,0.0,0.0,0.0,0.6706,0.5799,0.7031,0.7527,0.7598,0.709,0.6613,0.623,0.623,0.5286,0.4479,0.5144,0.4409,0.3467,0.3422,0.3329,0.0,0.0,0.3205,0.3205,0.3205,0.3205,0.3205,0.0,0.3244,0.2991,0.2113,0.2094,0.1841,0.0,0.0856,0.0,0.0645,0.0617,0.0,0.0336,-0.0308,-0.0393,0.028,-0.0336,-0.1037,-0.1767,-0.1795,-0.1795,-0.1795,-0.1799,-0.1866,-0.1968,-0.1915,-0.2274,-0.2952,-0.2884,-0.3589,-0.4853,-0.5279,-0.5977,-0.685,-0.7282,-0.7935,-0.8655,-0.8655,-0.9055,-0.9603,-0.9603,-0.9603,-0.9603,0.0,0.0,0.0,0.0,0.0,0.0,0.0,2.6526,2.561,2.4723,2.382,2.32,2.3113,2.2925,2.2803,0.0,0.0,0.0,0.0,0.0,0.0,0.0,0.0,0.0,0.0,0.0,0.0,1.615,1.5849,0.0,0.0,0.0,0.0,0.0,0.0,1.4286,1.3563,1.281,0.0,0.0,0.0,0.0,0.0,0.0,0.0,0.0,0.0,0.0,0.0,0.0,0.0,0.5636,0.5771,0.5634,0.5415,0.5478,0.0,0.0,0.4702,0.4201,0.3699,0.3783,0.3612,0.3418,0.3414,0.0,0.0,0.3206,0.3205,0.3205,0.3205,0.3205,0.3205,0.3205,0.0,0.2934,0.0,0.0,0.0,0.0,0.0,0.0,-0.0196,-0.028,-0.0645,-0.1486,-0.1627,-0.1627,-0.1542,-0.1627,-0.1711,-0.1795,-0.1795,-0.1795,-0.1795,-0.1792,-0.2055,-0.2516,-0.2508,-0.3181,-0.4416,-0.4409,-0.5052,-0.6224,-0.6274,-0.7024,0.0,-0.8258,-0.8754,-0.948,-0.948,-0.9529,-0.9603,-0.9603,-0.9603,-0.9603,0.0,0.0,0.0,0.0,0.0,0.0,2.708,2.6193,2.5295,2.4371,2.3343,2.275,2.2904,2.2605,2.2429,2.2552,0.0,0.0,0.0,0.0,0.0,0.0,0.0,0.0,0.0,0.0,1.5611,1.5611,1.5387,0.0,0.0,0.0,0.0,0.0,0.0,0.0,1.1838,1.1356,0.0,0.0,0.0,0.0,0.0,0.0,0.0,0.0,0.0,0.0,0.0,0.0,0.0,0.0,0.4634,0.4362,0.0,0.0,0.4265,0.3889,0.3889,0.3753,0.3587,0.3587,0.3499,0.3413,0.3413,0.0,0.3205,0.3205,0.3205,0.3205,0.3205,0.3205,0.3205,0.3205,0.0,0.0,0.1382,0.0,0.0,0.0,-0.0703,0.0,0.0,0.0,-0.1402,-0.1767,-0.1795,-0.1795,-0.1795,-0.1795,-0.1795,-0.1795,-0.1795,-0.1964,-0.2328,-0.2856,-0.3402,-0.3989,-0.452,-0.5217,-0.6044,-0.6058,-0.6692,-0.7775,-0.7775,-0.8285,0.0,-0.913,-0.9303,-0.9603,-0.9603,-0.9603,-0.9603,-0.9603,-0.9603,-0.9603,0.0,0.0,0.0,0.0,0.0,2.7135,2.6318,2.5526,2.4659,2.3714,2.2906,2.2463,2.2662,2.234,2.2043,2.1882,2.1512,0.0,0.0,0.0,0.0,0.0,0.0,0.0,0.0,0.0,1.538,1.538,1.51,1.4987,0.0,0.0,0.0,0.0,0.0,0.0,0.0,0.0,0.0,0.0,0.0,0.0,0.0,0.0,0.0,0.0,0.0,0.0,0.0,0.0,0.0,0.0,0.0,0.0,0.0,0.0,0.3695,0.3496,0.3496,0.3541,0.3587,0.3587,0.3499,0.3413,0.0,0.0,0.313,0.2901,0.2851,0.2775,0.2522,0.2497,0.2497,0.2497,0.0,0.1368,0.0565,-0.0051,0.0,0.0,0.0,-0.1785,0.0,-0.1805,-0.1795,-0.1795,-0.1795,-0.1795,-0.1795,-0.1964,-0.1992,-0.1795,-0.1964,-0.2383,-0.3082,-0.3858,-0.4693,-0.5558,-0.6174,-0.6883,-0.7633,-0.7621,-0.819,-0.9142,-0.9142,-0.9353,0.0,-0.9676,-0.9648,-0.9603,-0.9603,-0.9603,-0.9603,-0.9603,-0.9603,-0.9603,0.0,0.0,0.0,0.0,0.0,0.0,2.4956,2.4252,2.3475,2.2542,2.2419,2.2397,2.2397,2.223,2.17,2.0714,2.043,0.0,0.0,0.0,0.0,0.0,0.0,0.0,0.0,0.0,1.5107,1.5107,1.4838,1.4688,1.4664,1.3071,1.2315,1.2242,0.0,0.0,0.0,0.0,0.0,0.0,0.0,0.0,0.0,0.0,0.0,0.0,0.0,0.0,0.0,0.0,0.0,0.0,0.0,0.0,0.0,0.0,0.3405,0.3496,0.3496,0.3541,0.3587,0.3587,0.3499,0.3413,0.0,0.0,0.2977,0.2169,0.2017,0.1765,0.0983,0.0832,0.0832,0.0832,0.0806,0.0,-0.0278,-0.0404,0.0,0.0,0.0,-0.1739,-0.1799,-0.1805,-0.1795,-0.1795,-0.1795,0.0,-0.1795,-0.2356,-0.2413,-0.1823,-0.2384,-0.3109,-0.3967,-0.4583,-0.5614,-0.7083,-0.7083,-0.7795,-0.9083,-0.9079,-0.9473,-1.0186,-1.0186,-1.008,0.0,-0.9909,-0.9782,-0.9603,-0.9603,-0.9603,-0.9603,-0.9603,-0.9603,-0.9603,0.0,0.0,0.0,0.0,0.0,0.0,0.0,2.3984,2.3214,2.2309,2.2052,2.1976,2.2163,2.1401,2.0732,2.043,2.0339,0.0,0.0,0.0,0.0,0.0,0.0,0.0,0.0,1.5046,1.4838,1.4838,1.4184,1.36,1.3022,1.1463,1.0431,0.9862,0.8538,0.7851,0.0,0.0,0.0,0.0,0.0,0.0,0.0,0.0,0.0,0.0,0.0,0.0,0.0,0.0,0.0,0.0,0.0,0.0,0.0,0.3228,0.3289,0.0,0.335,0.3421,0.3332,0.2789,0.2581,0.238,0.183,0.0,0.1487,0.1235,0.1184,0.1109,0.0857,0.0806,0.0806,0.0806,0.0328,0.0,0.0,0.0,0.0,-0.1604,-0.1667,-0.1733,0.0,0.0,-0.1795,-0.1795,-0.2743,-0.3299,-0.3299,-0.4444,-0.4555,-0.3328,-0.3888,-0.4808,-0.6109,-0.6941,-0.7802,-0.8692,-0.9275,-0.9775,-1.0198,-1.0198,-1.0243,-1.0351,-1.0351,-1.0245,-1.0101,-1.0101,-0.9995,-0.9803,-0.9803,-0.973,-0.9603,-0.9603,-0.9603,-0.9603,0.0,0.0,0.0,0.0,0.0,0.0,0.0,2.3224,2.2567,2.203,2.1807,2.1763,2.1941,2.0966,2.0158,1.9772,1.9285,0.0,0.0,0.0,0.0,0.0,0.0,0.0,1.5207,1.4286,1.3781,1.3781,1.281,1.2072,1.1551,1.0087,0.9131,0.8584,0.7257,0.6539,0.0,0.0,0.0,0.0,0.0,0.0,0.4435,0.0,0.0,0.0,0.0,0.0,0.0,0.0,0.0,0.0,0.0,0.0,0.0,0.0,0.2569,0.2442,0.0,0.2681,0.2371,0.1864,0.1707,0.0,0.0,0.0843,0.0706,0.0403,0.0353,0.0252,-0.005,-0.0101,-0.0101,-0.0101,-0.053,-0.0859,0.0,0.0,0.0,-0.1592,0.0,0.0,0.0,-0.2459,-0.266,-0.3135,-0.4108,-0.4691,-0.4691,-0.5859,-0.6276,-0.5716,-0.5723,-0.6334,-0.7609,-0.8441,-0.9192,-0.9888,-1.0441,-1.0692,-1.0692,-1.0692,-1.0635,-1.0503,-1.0503,-1.0428,0.0,-1.0292,-1.0182,-1.0015,-1.0015,-0.988,-0.9726,-0.9726,-0.966,-0.9603,0.0,0.0,0.0,0.0,0.0,0.0,0.0,2.2176,2.1696,2.1696,2.1696,2.1696,2.1696,2.0808,1.9818,1.8857,1.756,0.0,0.0,0.0,0.0,0.0,0.0,0.0,1.4568,1.2998,1.2164,1.2164,1.0936,1.032,1.0222,0.8951,0.829,0.8142,0.6905,0.6034,0.5509,0.496,0.4734,0.4684,0.4158,0.3932,0.0,0.0,0.0,0.0,0.0,0.0,0.0,0.0,0.0,0.0,0.0,0.0,0.0,0.0,0.0,0.0,0.0,0.1467,0.0981,0.0,0.0,0.0,0.0,0.0,0.0,-0.0328,-0.048,-0.0707,-0.1465,-0.1592,-0.1592,-0.1592,-0.1592,-0.1592,0.0,-0.1667,0.0,0.0,-0.1799,0.0,-0.3433,-0.3675,-0.4221,-0.5361,-0.578,-0.6005,-0.6005,-0.6864,-0.775,-0.8634,-0.7802,-0.7775,-0.8634,-0.922,-0.9888,-1.0692,-1.0692,-1.0692,-1.0692,-1.0692,-1.0692,0.0,-1.0692,-1.0603,-1.0426,-1.0426,-1.0347,-1.0206,-1.0206,-1.0092,-0.9926,-0.9913,-0.9782,-0.962,0.0,0.0,0.0,0.0,0.0,0.0,0.0,0.0,0.0,0.0,2.1696,2.1696,2.1696,2.0167,1.8964,0.0,0.0,0.0,0.0,0.0,0.0,0.0,0.0,0.0,1.3167,1.1643,1.0863,1.0863,1.0137,0.9476,0.8856,0.812,0.7229,0.6232,0.5934,0.5484,0.496,0.441,0.4183,0.4133,0.3607,0.3381,0.0,0.0,0.0,0.0,0.3205,0.3205,0.0,0.0,0.0,0.0,0.0,0.0,0.0,0.0,0.0504,-0.0076,0.0127,0.0,0.0689,0.0077,-0.0076,-0.0254,0.0,0.0,0.0,0.0,0.0,0.0,0.0,-0.1592,-0.1592,-0.1592,-0.1592,-0.1592,-0.1592,0.0,0.0,-0.1693,-0.3201,-0.4169,-0.3826,-0.4713,-0.5475,-0.5971,-0.7166,-0.7858,-0.7858,-0.9137,-0.9966,-1.019,-0.9966,-0.9966,-1.019,-1.0331,-1.0496,-1.0692,-1.0692,-1.0692,-1.0692,-1.0692,-1.0692,-1.0692,-1.0692,-1.0668,-1.0631,-1.0631,-1.053,-1.0345,-1.0345,-1.0257,-1.0105,-0.9962,-0.986,-0.9807,0.0,0.0,0.0,0.0,0.0,0.0,0.0,0.0,0.0,0.0,2.1696,2.1486,2.093,1.9513,1.8311,0.0,0.0,0.0,0.0,0.0,0.0,0.0,0.0,1.2412,1.2193,1.0398,0.9489,0.9489,0.8587,0.7773,0.7098,0.683,0.6159,0.5211,0.4985,0.4709,0.4408,0.3858,0.3632,0.3607,0.3306,0.0,0.0,0.0,0.0,0.0,0.3205,0.3205,0.0,0.2775,0.2648,0.2497,0.0,0.0,0.0,0.0,-0.0328,-0.096,-0.096,-0.0631,-0.0404,-0.0833,-0.096,-0.1061,-0.1491,0.0,0.0,0.0,0.0,0.0,0.0,0.0,-0.217,0.0,-0.2422,0.0,0.0,0.0,-0.2422,-0.2346,-0.3641,-0.4778,0.0,-0.6265,-0.7085,-0.7805,-0.8778,-0.9333,-0.9333,-1.0194,-1.0692,-1.0692,-1.0692,-1.0692,-1.0692,-1.0692,-1.0692,-1.0692,-1.0692,-1.0692,-1.0692,-1.0692,-1.0692,-1.0692,-1.0692,-1.0692,-1.0692,-1.0692,-1.0635,-1.0554,-1.0554,-1.0444,-1.0274,-1.0176,-1.0083,-1.0023,0.0,0.0,0.0,0.0,0.0,0.0,0.0,0.0,0.0,0.0,0.0,0.0,0.0,0.0,0.0,0.0,0.0,0.0,0.0,0.0,0.0,0.0,1.2436,1.1707,1.1292,0.9201,0.8092,0.8092,0.688,0.6034,0.5609,0.5509,0.5186,0.4659,0.4108,0.3883,0.3858,0.3381,0.3205,0.3205,0.3205,0.0,0.0,0.0,0.0,0.0,0.0,0.0,0.0,0.2093,0.1815,0.1664,0.0882,0.0,0.0,0.0,0.0,0.0,-0.1592,-0.1592,-0.1592,-0.1592,-0.1592,-0.1592,-0.1592,0.0,0.0,0.0,0.0,0.0,0.0,-0.2446,0.0,0.0,0.0,0.0,-0.3549,-0.2847,-0.2672,-0.3425,-0.4198,0.0,-0.7255,-0.796,-0.8755,-0.9868,-1.0202,-1.0363,-1.0363,-1.0582,-1.0692,-1.0692,-1.0692,-1.0692,-1.0692,-1.0692,-1.0692,-1.0692,-1.0692,-1.0692,-1.0692,-1.0692,-1.0692,-1.0692,0.0,0.0,-1.0692,-1.0692,-1.0692,-1.0692,-1.0692,-1.0603,-1.0446,-1.0417,-1.0335,-1.0253,0.0,0.0,0.0,0.0,0.0,0.0,0.0,0.0,0.0,0.0,0.0,0.0,0.0,0.0,0.0,0.0,0.0,0.0,0.0,0.0,0.0,1.1317,1.0464,0.9973,0.9899,0.7798,0.6709,0.6709,0.6034,0.5687,0.5584,0.5135,0.4634,0.4108,0.3556,0.3331,0.3306,0.323,0.3205,0.3205,0.3205,0.0,0.0,0.0,0.0,0.0,0.0,0.0,0.0,0.126,0.0983,0.0832,0.005,0.0,0.0,0.0,0.0,0.0,-0.1592,-0.1592,-0.1592,-0.1592,-0.1592,-0.1592,-0.1592,0.0,0.0,0.0,0.0,0.0,0.0,-0.2346,-0.2095,0.0,0.0,-0.3699,0.0,0.0,-0.5729,-0.4979,0.0,-0.823,-0.8079,-0.9051,-0.9927,-1.0515,-1.061,-1.0637,-1.0637,-1.0692,-1.0692,-1.0692,-1.0692,-1.0692,-1.0692,-1.0692,-1.0692,-1.0692,-1.0692,-1.0692,-1.0692,-1.0692,-1.0692,-1.0692,0.0,-1.0692,-1.0692,-1.0692,-1.0692,-1.0692,-1.0692,-1.0676,-1.0635,-1.0462,-1.0393,-1.05,0.0,0.0,0.0,0.0,0.0,0.0,0.0,0.0,0.0,0.0,0.0,0.0,0.0,0.0,0.0,0.0,0.0,0.0,0.0,0.0,1.1448,1.0828,0.9332,0.852,0.852,0.6855,0.5959,0.5959,0.5434,0.501,0.4734,0.4183,0.3806,0.3556,0.3306,0.3205,0.3205,0.3205,0.3205,0.3155,0.0,0.0,0.0,0.0,0.0,0.0,0.0,0.0,0.0,0.0,0.0151,0.0,-0.0783,0.0,0.0,0.0,0.0,0.0,-0.1592,-0.1592,-0.1592,-0.1592,-0.1592,-0.1592,-0.1592,0.0,0.0,0.0,0.0,0.0,0.0,0.0,-0.3875,-0.5529,0.0,-0.445,-0.5504,-0.5702,-0.5752,0.0,0.0,-0.8356,-0.8653,-0.9541,-1.0208,-1.04,-1.0497,-1.0554,-1.0554,-1.0639,-1.0692,-1.0692,-1.0692,-1.0692,-1.0692,-1.0692,-1.0692,-1.0692,-1.0692,-1.0692,-1.0692,-1.0692,-1.0692,-1.0692,0.0,-1.0692,-1.0692,-1.0692,-1.0692,-1.0692,-1.0692,-1.0692,-1.0762,-1.1296,-1.1482,-1.1612,0.0,0.0,0.0,0.0,0.0,0.0,0.0,0.0,0.0,0.0,0.0,0.0,0.0,0.0,0.0,0.0,0.0,0.0,0.0,1.1253,1.044,1.0067,0.8368,0.7403,0.7403,0.6234,0.5536,0.5409,0.4885,0.4334,0.3806,0.3204,0.2927,0.2901,0.2725,0.2648,0.2648,0.2648,0.2573,0.2396,0.0,0.0,0.0,0.0,0.0,0.0,0.0,0.0,0.0,0.0,0.0,0.0,0.0,0.0,0.0,-0.1592,-0.1592,-0.1592,-0.1592,-0.1592,-0.1592,-0.1592,-0.1592,-0.1592,0.0,0.0,0.0,0.0,0.0,0.0,0.0,-0.425,0.0,-0.731,-0.6304,-0.5652,-0.6709,-0.6279,-0.6102,-0.6883,-0.7573,-0.8316,-0.9126,-0.9757,-1.0141,-1.0208,-1.0294,-1.0361,-1.0405,-1.0558,-1.0651,-1.0688,-1.0692,-1.0692,-1.0692,-1.0692,-1.0692,-1.0692,-1.0692,-1.0692,-1.0692,-1.0692,-1.0692,-1.0692,-1.0692,-1.0692,-1.0692,-1.0692,-1.0692,-1.0719,-1.0989,-1.1259,-1.1605,-1.2472,-1.2792,-1.2957,0.0,0.0,0.0,0.0,0.0,0.0,0.0,0.0,0.0,0.0,0.0,0.0,0.0,0.0,0.0,0.0,0.0,0.0,0.0,1.0404,0.9394,0.79,0.7204,0.6855,0.6855,0.6034,0.5361,0.486,0.4309,0.3783,0.323,0.2447,0.2093,0.2043,0.131,0.0983,0.0983,0.0983,0.068,0.0227,0.0176,0.0,0.0,0.0,0.0,0.0,0.0,0.0,0.0,0.0,0.0,0.0,0.0,0.0,-0.1592,-0.1592,-0.1592,-0.1592,-0.1592,-0.1592,-0.1592,-0.1592,-0.1592,0.0,-0.1592,-0.2371,0.0,-0.3073,0.0,0.0,0.0,-0.4749,-0.5175,-0.6334,-0.6584,-0.703,-0.8106,0.0,-0.8829,-0.8651,-0.9112,-0.946,-0.9466,-0.9748,-1.0003,-1.02,-1.0202,-1.0284,-1.0401,-1.0417,-1.0498,-1.0688,-1.0692,-1.0692,-1.0692,-1.0692,-1.0692,-1.0692,-1.0692,-1.0692,-1.0692,-1.0692,-1.0692,-1.0692,-1.0692,-1.0692,-1.0692,-1.0692,-1.0692,-1.0802,-1.1851,-1.2928,-1.3868,-1.3944,-1.3976,-1.4159,0.0,0.0,0.0,0.0,0.0,0.0,0.0,0.0,0.0,0.0,0.0,0.0,0.0,0.0,0.0,0.0,0.0,0.0,0.0,0.934,0.8273,0.7154,0.6107,0.5409,0.5058,0.4759,0.451,0.4309,0.3277,0.2218,0.121,0.0907,0.0756,0.0731,0.0101,0.0,0.0277,-0.005,-0.0302,-0.0554,-0.1032,-0.1233,0.0,0.0,0.0,0.0,0.0,0.0,0.0,0.0,-0.2095,-0.2095,-0.2095,-0.1869,-0.1592,-0.1592,-0.1592,-0.1592,-0.1592,-0.2095,-0.2447,-0.1768,-0.2095,0.0,0.0,-0.2898,-0.3399,-0.4049,-0.4524,0.0,0.0,0.0,-0.6933,-0.7338,-0.7609,-0.7882,-0.8109,-0.846,-0.8655,-0.8552,-0.8878,-0.9153,-0.9297,-0.9551,-0.9754,-0.9823,-0.9954,-1.0097,-1.0284,-1.0349,-1.0486,-1.0684,-1.0692,-1.0692,-1.0692,-1.0692,-1.0692,-1.0692,-1.0692,-1.0692,-1.0692,-1.0692,-1.0692,-1.0692,-1.0692,-1.1095,-1.1769,-1.1769,-1.2173,-1.2874,-1.3302,-1.3733,-1.4186,-1.4942,-1.5215,-1.5402,0.0,0.0,0.0,0.0,0.0,0.0,0.0,0.0,0.0,0.0,0.0,0.0,0.0,0.0,0.0,0.0,0.0,0.0,0.9443,0.8273,0.7176,0.6207,0.5133,0.4383,0.4008,0.3578,0.3377,0.3377,0.2017,0.0907,0.0,-0.0428,-0.063,-0.0655,-0.1284,-0.136,-0.1033,-0.141,-0.1661,-0.1861,-0.2416,-0.2643,0.0,0.0,0.0,0.0,0.0,0.0,0.0,0.0,-0.2548,-0.2396,-0.2396,-0.2044,-0.1592,-0.1592,-0.1843,-0.2095,-0.2095,-0.2898,-0.3524,-0.2797,0.0,0.0,-0.4126,-0.3951,-0.3999,-0.5077,-0.5302,-0.5629,-0.6709,0.0,0.0,0.0,-0.8233,-0.8333,-0.8162,-0.8435,-0.8634,-0.8531,-0.8829,-0.9105,-0.9187,-0.943,-0.9603,-0.9603,-0.9738,-0.9934,-1.02,-1.0282,-1.0452,-1.0684,-1.0692,-1.0692,-1.0692,-1.0692,-1.0692,-1.0692,-1.1067,-1.1044,-1.0719,-1.1067,-1.1232,-1.1259,-1.161,-1.2227,-1.2955,-1.2955,-1.3625,-1.4674,-1.4674,-1.4888,-1.5316,-1.6127,-1.6452,-1.6558,0.0,0.0,0.0,0.0,0.0,0.0,0.0,0.0,0.0,0.0,0.0,0.0,0.0,0.0,0.0,0.0,0.0,0.0,0.8071,0.7226,0.6182,0.486,0.4284,0.3982,0.3982,0.2672,0.1967,0.1967,0.063,-0.0025,-0.0076,-0.1409,-0.2013,-0.2063,-0.2849,-0.3205,-0.3205,-0.3205,-0.3531,-0.4008,-0.4008,-0.4008,-0.4008,0.0,0.0,0.0,0.0,0.0,0.0,0.0,-0.2851,-0.2396,-0.2396,-0.2044,-0.1592,-0.1592,-0.2346,-0.3198,-0.3198,-0.3974,-0.4799,-0.4799,0.0,0.0,-0.6159,-0.5579,-0.5127,-0.6184,-0.6412,-0.6736,-0.7814,-0.7138,0.0,-0.7839,-0.8233,-0.8407,-0.8407,-0.8857,-0.9109,-0.8825,-0.9274,-0.948,-0.9236,-0.9455,-0.9603,-0.9603,-0.9603,-0.9782,-1.017,-1.0186,-1.0353,-1.068,-1.0692,-1.0692,-1.0692,-1.0692,-1.0719,-1.0719,-1.1851,-1.1823,-1.0747,-1.1905,-1.2417,-1.2472,-1.362,-1.411,-1.4132,-1.4132,-1.4835,-1.5914,-1.5914,-1.6611,-1.7608,-1.7608,-1.7608,-1.7608,0.0,0.0,0.0,0.0,0.0,0.0,0.0,0.0,0.0,0.0,0.0,0.0,0.0,0.0,0.0,0.0,0.0,0.0,0.6725,0.6029,0.5256,0.4282,0.3732,0.3177,0.2597,0.0731,-0.0252,-0.0252,-0.1032,-0.1888,-0.2821,-0.3225,-0.3401,-0.3426,-0.4056,-0.4108,-0.3783,-0.4158,-0.441,-0.4558,-0.4558,-0.4558,-0.4558,0.0,0.0,0.0,0.0,0.0,0.0,0.0,0.0,0.0,-0.2952,-0.2348,-0.1592,-0.1592,-0.1818,-0.2245,-0.2998,-0.3974,0.0,-0.4799,0.0,0.0,0.0,-0.6159,0.0,0.0,-0.7512,-0.7615,-0.7939,-0.7739,0.0,-0.7939,-0.8233,-0.8407,-0.8407,-0.8705,-0.8952,-0.9055,-0.9232,-0.9356,-0.948,-0.9554,-0.9603,-0.9603,-0.9603,-0.9782,-1.017,-1.0186,-1.0353,-1.068,-1.0692,-1.0692,-1.0692,-1.0692,-1.1095,-1.1905,-1.2227,-1.2227,-1.1932,-1.3085,-1.3599,-1.362,-1.3944,-1.4594,-1.5429,-1.6234,-1.677,-1.71,-1.71,-1.7312,-1.7608,-1.7608,-1.7608,-1.7608,0.0,0.0,0.0,0.0,0.0,0.0,0.0,0.0,0.0,0.0,1.3788,1.2592,0.0,0.0,0.0,0.0,0.0,0.0,0.5804,0.5081,0.4408,0.3707,0.285,0.179,0.0428,-0.1058,-0.1991,-0.2318,-0.2644,-0.3198,-0.4008,-0.4209,-0.4309,-0.4334,-0.4659,-0.4609,-0.4334,-0.4659,-0.4809,-0.4809,-0.4809,-0.4809,-0.4809,0.0,0.0,0.0,0.0,0.0,0.0,0.0,0.0,0.0,-0.3205,-0.2474,-0.1717,-0.2244,-0.2621,-0.3123,-0.43,-0.5327,0.0,-0.6077,-0.6556,-0.7036,-0.7036,0.0,0.0,0.0,-0.7988,-0.7988,-0.7988,-0.7988,0.0,-0.7988,-0.8233,-0.8407,-0.8407,-0.873,-0.9031,-0.9187,-0.9286,-0.943,-0.9579,-0.9603,-0.9603,-0.9603,-0.9603,-0.9782,-1.017,-1.0186,-1.0353,-1.068,-1.1149,-1.1391,-1.1391,-1.1823,-1.239,-1.3085,-1.3572,-1.3787,-1.3814,-1.4513,-1.4808,-1.4835,-1.5289,-1.5908,-1.6638,-1.7312,-1.7608,-1.7608,-1.7608,-1.7608,-1.7608,-1.7608,-1.7608,-1.7608,0.0,0.0,0.0,0.0,0.0,0.0,0.0,0.0,0.0,0.0,1.3162,1.2052,0.0,0.0,0.0,0.0,0.0,0.0,0.0,0.4307,0.3682,0.318,0.1815,0.0076,-0.2038,-0.2618,-0.3299,-0.4083,-0.4083,-0.4083,-0.4083,-0.4583,-0.4809,-0.4809,-0.4809,-0.4809,-0.4809,-0.4809,-0.4809,-0.4809,-0.4809,-0.4809,-0.4809,-0.4809,0.0,0.0,0.0,0.0,0.0,0.0,0.0,0.0,-0.3306,-0.26,-0.1994,-0.3321,-0.4223,-0.51,-0.6404,0.0,0.0,-0.7963,-0.7988,0.0,-0.7988,-0.7988,-0.7988,-0.7988,0.0,-0.7988,-0.7988,-0.7988,-0.7988,-0.7988,-0.8233,-0.8407,-0.8432,-0.8886,-0.9212,-0.9236,-0.9455,-0.9603,-0.9603,-0.9603,-0.9603,-0.9603,-0.9603,-0.9778,-1.0145,-1.0282,-1.05,-1.0819,-1.1951,-1.2548,-1.2548,-1.3572,-1.4159,-1.4266,-1.5375,-1.5941,-1.6047,-1.6047,-1.6047,-1.6101,-1.7147,-1.7608,-1.7608,-1.7608,-1.7608,-1.7608,-1.7608,-1.7608,-1.7608,-1.7608,-1.7608,-1.7608,0.0,0.0,0.0,0.0,0.0,0.0,0.0,0.0,0.0,0.0,0.0,0.0,0.0,0.0,0.0,0.0,0.0,0.0,0.0,0.3278,0.3001,0.2901,0.1008,-0.0856,-0.2592,-0.3351,-0.4031,-0.4634,-0.4634,-0.4634,-0.4634,-0.4734,-0.4809,-0.4809,-0.4809,-0.4809,-0.4809,-0.4809,-0.4809,-0.4809,-0.4809,-0.4809,-0.4809,-0.4809,-0.4809,0.0,0.0,0.0,0.0,0.0,0.0,0.0,-0.4183,-0.3728,-0.3073,-0.42,-0.4674,-0.5049,-0.6182,-0.6612,0.0,0.0,-0.7988,-0.7988,-0.7988,-0.7988,-0.7988,-0.7988,-0.7988,-0.7988,-0.7988,-0.7988,-0.7988,-0.7988,-0.8233,-0.8482,-0.8676,-0.9006,-0.9286,-0.948,-0.9554,-0.9603,-0.9603,-0.9603,-0.9603,-0.9603,-0.9603,-0.9697,-0.9958,-1.0948,-1.1634,-1.1861,-1.3081,-1.3733,-1.3733,-1.3976,-1.4594,-1.5509,-1.5775,-1.6372,-1.7232,-1.7232,-1.7232,-1.7259,-1.7503,-1.7608,-1.7608,-1.7608,-1.7608,-1.7608,-1.7608,-1.7608,-1.7608,-1.7608,-1.7608,-1.7608,0.0,0.0,0.0,0.0,0.0,0.0,0.0,0.0,0.0,0.0,0.0,0.0,0.0,0.0,0.0,0.0,0.0,0.0,0.0,0.0,0.2092,0.0931,-0.068,-0.224,-0.3725,-0.4155,-0.451,-0.4809,-0.4809,-0.4809,-0.4809,-0.4809,-0.4809,-0.4809,-0.4809,-0.4809,-0.4809,-0.4809,-0.4809,-0.4809,-0.4809,-0.4809,-0.4809,-0.4809,-0.4809,-0.486,-0.5236,0.0,0.0,0.0,0.0,0.0,0.0,0.0,-0.44,-0.56,-0.5774,-0.5829,-0.7033,0.0,0.0,-0.7864,0.0,-0.7988,-0.7988,-0.7988,-0.7988,-0.7988,-0.7988,-0.7988,-0.7988,-0.7988,-0.8038,-0.8162,-0.8407,-0.868,-0.8952,-0.9229,-0.943,-0.9579,-0.9603,-0.9603,-0.9603,-0.9603,-0.9603,-0.9603,-1.0088,-1.0438,-1.0601,-1.1768,-1.2592,-1.292,-1.4091,-1.4796,-1.4969,-1.5503,-1.6095,-1.6717,-1.6717,-1.7015,-1.7608,-1.7608,-1.7608,-1.7608,-1.7608,-1.7608,-1.7608,-1.7608,-1.7608,-1.7608,-1.7608,-1.7608,-1.7608,-1.7608,-1.7608,-1.7608,0.0,0.0,0.0,0.0,0.0,0.0,0.0,0.0,0.0,0.0,0.0,0.0,0.0,0.0,0.0,0.0,0.0,0.0,0.0,0.0,0.0,-0.1433,-0.2391,-0.3473,-0.4784,-0.4809,-0.4809,-0.4809,-0.4809,-0.4809,-0.4809,-0.4809,-0.4809,-0.4809,-0.4809,-0.4809,-0.4809,-0.4809,-0.4809,-0.4809,-0.496,-0.501,-0.501,-0.516,-0.5211,-0.5311,-0.5964,-0.6217,-0.6317,-0.6964,0.0,0.0,0.0,0.0,-0.5802,-0.7049,-0.7104,-0.6983,-0.8035,0.0,-0.7988,-0.7988,-0.7988,0.0,-0.7988,-0.7988,-0.7988,-0.7988,-0.7988,-0.7988,-0.7988,-0.8038,-0.8137,-0.8357,-0.8651,-0.8952,-0.9158,-0.943,-0.9603,-0.9603,-0.9603,-0.9603,-0.9603,-0.9603,-0.9677,-0.9871,-1.069,-1.1319,-1.16,-1.2693,-1.3494,-1.3946,-1.5101,-1.5883,-1.618,-1.7127,-1.7608,-1.7608,-1.7608,-1.7608,-1.7608,-1.7608,-1.7608,-1.7608,-1.7608,-1.7608,-1.7608,-1.7608,-1.7608,-1.7608,-1.7608,-1.7608,-1.7608,-1.7608,-1.7608,-1.7608,0.0,0.0,0.0,0.0,0.0,0.0,0.0,0.0,0.0,0.0,0.9723,0.8928,0.0,0.0,0.0,0.0,0.0,0.0,0.0,0.0,0.0,-0.282,-0.3073,-0.3676,-0.4784,-0.4809,-0.4809,-0.4809,-0.4809,-0.4809,-0.4809,-0.4809,-0.4809,-0.4809,-0.4809,-0.4809,-0.4809,-0.4809,-0.4809,-0.486,-0.5564,-0.5842,-0.5917,-0.6612,-0.6886,-0.6886,-0.7014,-0.7039,-0.7064,-0.7163,-0.6855,0.0,0.0,0.0,-0.7098,-0.7978,-0.8184,-0.8109,0.0,0.0,-0.7988,0.0,-0.7988,-0.7988,0.0,0.0,-0.7988,0.0,-0.7988,-0.7988,-0.7988,-0.8187,-0.8357,-0.8382,-0.8832,-0.9158,-0.9187,-0.943,-0.9603,-0.9603,-0.9603,-0.9603,-0.9603,-0.9603,-0.999,-1.093,-1.1126,-1.16,-1.2483,-1.3768,-1.4624,-1.4998,-1.6266,-1.71,-1.7364,-1.7529,-1.7608,-1.7608,-1.7608,-1.7608,-1.7608,-1.7608,-1.7608,-1.7608,-1.7608,-1.7608,-1.7608,-1.7608,-1.7608,-1.7608,-1.7608,-1.7608,-1.7608,-1.7608,-1.7608,-1.7608,0.0,0.0,0.0,0.0,0.0,0.0,0.0,0.0,0.0,0.0,0.0,0.7844,0.0,0.0,0.0,0.0,0.0,0.0,0.0,0.0,0.0,-0.3148,-0.3776,-0.4305,-0.4784,-0.4809,-0.4809,-0.4809,-0.4809,-0.4809,-0.4809,-0.4809,-0.4809,-0.4809,-0.4809,-0.4809,-0.4834,-0.5288,-0.5463,-0.5539,-0.6339,-0.6664,-0.6714,-0.7064,-0.7213,-0.7263,-0.7708,-0.7861,-0.7935,-0.8382,-0.8379,-0.8273,-0.8754,0.0,0.0,0.0,-0.8634,0.0,-0.8063,-0.7988,-0.7988,0.0,-0.7988,-0.7988,-0.7988,0.0,-0.7988,-0.7988,-0.7988,-0.7988,-0.7988,-0.8212,-0.8457,-0.8602,-0.8956,-0.9261,-0.9406,-0.9529,-0.9603,-0.9603,-0.9603,-0.9603,-0.9603,-1.0133,-1.069,-1.117,-1.2271,-1.3125,-1.3559,-1.469,-1.5543,-1.6035,-1.66,-1.7147,-1.7608,-1.7608,-1.7608,-1.7608,-1.7608,-1.7608,-1.7608,-1.7608,-1.7608,-1.7608,-1.7608,-1.7608,-1.7608,-1.7608,-1.7608,-1.7608,-1.7608,-1.7608,-1.7608,-1.7608,-1.7608,-1.7608,0.0,0.0,0.0,0.0,0.0,0.0,0.0,0.0,0.0,0.0,0.0,0.0,0.0,0.0,0.0,0.0,0.0,0.0,0.0,0.0,0.0,-0.3601,-0.4381,-0.4809,-0.4809,-0.4809,-0.4809,-0.4809,-0.5133,-0.5146,-0.4869,-0.5171,-0.5361,-0.5406,-0.4981,-0.491,-0.5135,-0.5739,-0.6117,-0.6367,-0.7188,-0.7512,-0.7537,-0.7736,-0.7811,-0.7885,-0.8482,-0.8705,-0.8804,-0.9402,-0.9603,-0.9603,-0.9603,-0.9455,0.0,0.0,0.0,0.0,0.0,0.0,-0.8088,-0.8017,-0.7988,-0.7988,0.0,0.0,-0.7988,0.0,-0.7988,-0.8013,-0.8088,-0.8308,-0.8581,-0.8853,-0.913,-0.9381,-0.9579,-0.9603,-0.9603,-0.9603,-0.9603,-0.9603,-0.9603,-1.0571,-1.1317,-1.156,-1.327,-1.4418,-1.4682,-1.5397,-1.6041,-1.658,-1.6667,-1.6954,-1.7495,-1.7575,-1.7608,-1.7608,-1.7608,-1.7608,-1.7608,-1.7608,-1.7608,-1.7608,-1.7608,-1.7608,-1.7608,-1.7608,-1.7608,-1.7608,-1.7608,-1.7608,-1.7608,-1.7608,-1.7608,-1.7608,0.0,0.0,0.0,0.0,0.0,0.0,0.0,0.0,0.0,0.0,0.0,0.0,0.3946,0.3422,0.2797,0.1742,0.1617,0.0732,-0.1386,-0.2569,-0.3651,-0.4684,-0.4759,0.0,-0.4809,-0.4809,-0.4809,-0.4809,-0.6082,-0.6113,-0.5015,-0.6158,-0.6856,-0.7095,-0.5519,-0.5236,-0.5942,-0.5992,-0.6442,-0.7213,-0.8006,-0.8333,-0.8432,-0.9179,-0.948,-0.948,-0.9529,-0.9529,-0.9554,-0.9579,-0.9603,-0.9603,-0.9603,-0.9579,0.0,0.0,0.0,0.0,0.0,-0.8382,0.0,-0.8063,-0.7988,0.0,0.0,0.0,-0.7988,-0.7988,-0.7988,-0.8088,-0.8333,-0.8602,-0.8874,-0.9133,-0.9406,-0.9579,-0.9603,-0.9603,-0.9603,-0.9603,-0.9603,-0.9603,-0.9603,-1.0571,-1.1609,-1.2557,-1.3661,-1.4729,-1.5659,-1.5784,-1.5948,-1.631,-1.656,-1.6879,-1.7219,-1.7468,-1.7608,-1.7608,-1.7608,-1.7608,-1.7608,-1.7608,-1.7608,-1.7608,-1.7608,-1.7608,-1.7608,-1.7608,-1.7608,-1.7608,-1.7608,-1.7608,-1.7608,-1.7608,-1.7608,-1.7608,0.0,0.0,0.0,0.0,0.0,0.0,0.0,0.0,0.0,0.0,0.0,0.0,0.0,0.2646,0.2019,0.1642,0.0353,-0.1084,-0.2544,-0.3626,-0.4406,-0.4784,-0.4809,-0.4809,-0.4809,-0.4962,-0.5213,-0.5564,-0.5714,-0.6155,-0.6922,-0.6851,-0.7325,-0.8192,-0.6743,-0.6821,-0.8078,-0.8432,-0.874,-0.9061,-0.9883,-0.999,-0.9719,-0.9994,-0.99,-0.9603,0.0,0.0,0.0,0.0,0.0,0.0,0.0,0.0,0.0,0.0,0.0,0.0,0.0,0.0,0.0,-0.8283,-0.8262,-0.8262,-0.8262,-0.8262,-0.8262,-0.8262,-0.8113,-0.8137,-0.8581,-0.8726,-0.8878,-0.9158,-0.943,-0.9603,-0.9603,-0.9603,-0.9603,-0.9603,-0.9603,-0.9871,-1.0571,-1.156,-1.2611,-1.3661,-1.4675,-1.5421,-1.5784,-1.5808,-1.5941,-1.6284,-1.6553,-1.6934,-1.7448,-1.7555,-1.7608,-1.7608,-1.7608,-1.7608,-1.7608,-1.7608,-1.7608,-1.7608,-1.7608,-1.7608,-1.7608,-1.7608,-1.7608,-1.7608,-1.7608,-1.7608,-1.7608,-1.7608,-1.7608,-1.7608,0.0,0.0,0.0,0.0,0.0,0.0,0.0,0.0,0.6049,0.4701,0.0,0.0,0.0,0.0,0.1465,0.1086,-0.0907,-0.2444,-0.3148,-0.4205,-0.4809,-0.4809,-0.4809,-0.4809,-0.4809,-0.4987,-0.5238,-0.5589,-0.6134,-0.6851,-0.7666,-0.7817,-0.8517,-0.9591,-0.8411,-0.8471,-0.949,-0.9738,-1.0057,-1.0424,-1.0797,-1.0826,-1.063,-1.0265,-1.0019,0.0,0.0,0.0,0.0,0.0,0.0,0.0,0.0,0.0,0.0,0.0,0.0,0.0,-0.9002,0.0,0.0,0.0,0.0,-0.8421,-0.8475,0.0,-0.8531,-0.8531,-0.8382,-0.8411,-0.8853,-0.8928,-0.9027,-0.9282,-0.948,-0.9603,-0.9603,-0.9603,-0.9603,-0.9603,-0.9916,-1.0424,-1.1121,-1.2441,-1.3535,-1.4244,-1.5231,0.0,-1.5808,-1.5808,-1.5981,-1.6431,-1.6607,-1.6987,-1.7602,-1.7608,-1.7608,-1.7608,-1.7608,-1.7608,-1.7608,-1.7608,-1.7608,-1.7608,-1.7608,-1.7608,-1.7608,-1.7608,-1.7608,-1.7608,-1.7608,-1.7608,-1.7608,-1.7608,-1.7608,-1.7608,0.0,0.0,0.0,0.0,0.0,0.0,0.0,0.0,0.4653,0.3324,0.0,0.0,0.0,0.0,0.0,0.0,-0.199,-0.3224,-0.3249,-0.423,-0.4809,-0.4809,-0.4809,-0.4809,-0.4809,-0.4809,-0.4834,-0.486,-0.7468,-0.816,-0.7154,-0.908,-1.0463,-1.1292,-1.0437,-1.0076,-1.006,-0.9736,-1.0242,-1.1194,-1.0679,-1.0752,-1.1096,-1.0043,0.0,0.0,-0.9797,-0.9603,0.0,-0.9603,0.0,0.0,0.0,0.0,0.0,0.0,0.0,0.0,0.0,0.0,0.0,0.0,0.0,0.0,-0.8657,0.0,-0.88,-0.88,-0.88,-0.8878,-0.9158,-0.9212,-0.9286,-0.9554,-0.9603,-0.9603,-0.9603,-0.9603,-0.9603,-0.9603,-1.0542,-1.1219,-1.1243,-1.31,-1.4322,-1.4346,-1.5255,-1.5808,-1.5808,-1.5808,-1.6075,-1.6687,-1.6707,-1.6987,-1.7602,-1.7608,-1.7608,-1.7608,-1.7608,-1.7608,-1.7608,-1.7608,-1.7608,-1.7608,-1.7608,-1.7608,-1.7608,-1.7608,-1.7608,-1.7608,-1.7608,-1.7608,-1.7608,-1.7608,-1.7608,-1.7608,0.0,0.0,0.0,0.0,0.0,0.5477,0.4622,0.4074,0.3349,0.0,0.0,0.0,0.1642,0.0908,-0.0302,-0.2165,-0.2845,-0.3525,-0.4305,-0.4634,-0.4809,-0.4809,-0.4809,-0.4809,-0.4809,-0.4987,-0.5564,-0.6537,-0.688,-0.7892,-0.9457,-0.9826,-1.065,-1.1811,-1.1651,-1.1756,-1.2024,-1.1938,-1.208,-1.2346,-1.22,-1.1756,0.0,0.0,0.0,0.0,0.0,-0.9603,-0.9603,0.0,-0.9603,-0.9603,0.0,0.0,0.0,0.0,0.0,0.0,-0.9505,0.0,0.0,0.0,0.0,0.0,0.0,0.0,-0.9084,-0.9084,-0.8928,-0.8878,-0.9158,-0.9212,-0.9286,-0.9554,-0.9603,-0.9603,-0.9603,-0.9603,-0.9603,-0.9603,-1.0542,-1.1487,-1.2217,-1.3511,-1.461,0.0,-1.5635,-1.5808,-1.5808,-1.5808,-1.6075,-1.6687,-1.6707,-1.6987,-1.7602,-1.7608,-1.7608,-1.7608,-1.7608,-1.7608,-1.7608,-1.7608,-1.7608,-1.7608,-1.7608,-1.7608,-1.7608,-1.7608,-1.7608,-1.7608,-1.7608,-1.7608,-1.7608,-1.7608,-1.7608,-1.7608,0.0,0.0,0.0,0.0,0.0,0.4151,0.3522,0.2922,0.2296,0.0,0.0,0.0,0.0984,-0.0428,-0.1838,-0.3098,-0.3601,-0.413,-0.4759,-0.4809,-0.4809,-0.4809,-0.4809,-0.496,-0.5288,-0.5466,-0.6089,-0.7213,-0.7456,-0.8372,-0.9912,-1.0084,-1.0699,-1.1668,-1.1524,-1.1831,-1.2467,-1.2467,-1.2589,-1.2783,-1.2565,0.0,0.0,-1.1365,-1.0806,0.0,0.0,0.0,-0.9603,-0.9603,-0.9603,0.0,0.0,0.0,0.0,0.0,0.0,0.0,0.0,0.0,0.0,0.0,0.0,0.0,-0.9297,-0.9358,-0.9356,-0.9356,-0.9253,-0.9179,-0.9331,-0.9356,-0.9406,-0.9579,-0.9603,-0.9603,-0.9603,-0.9603,-0.9772,-1.0207,-1.1199,-1.2217,-1.327,-1.431,-1.5159,-1.5754,-1.5808,-1.5808,-1.5808,-1.5808,-1.6075,-1.6687,-1.6707,-1.6987,-1.7602,-1.7608,-1.7608,-1.7608,-1.7608,-1.7608,-1.7608,-1.7608,-1.7608,-1.7608,-1.7608,-1.7608,-1.7608,-1.7608,-1.7608,-1.7608,-1.7608,-1.7608,-1.7608,-1.7608,-1.7608,-1.7608,0.0,0.0,0.4901,0.4674,0.3723,0.3022,0.3022,0.2225,0.1622,0.0,0.1497,0.094,-0.0254,-0.2103,-0.3269,-0.3396,-0.4282,-0.484,-0.484,-0.484,-0.4836,-0.4826,-0.4824,-0.5199,-0.5992,-0.5992,-0.6442,-0.7338,-0.8524,-0.9167,-0.9266,-1.0039,-1.0659,-1.1096,-1.0679,-1.1047,-1.2005,-1.2005,-1.2322,-1.2764,-1.2273,-1.2346,0.0,0.0,-1.1169,-1.1047,-1.0507,-0.9994,-0.9603,-0.9603,-0.9603,0.0,0.0,0.0,0.0,0.0,-0.9603,0.0,0.0,0.0,0.0,0.0,0.0,0.0,-0.9474,-0.9579,-0.9628,-0.9607,-0.9603,-0.9603,-0.9603,-0.9603,-0.9603,-0.9603,-0.9603,-0.9603,-0.9603,-0.9603,-0.999,-1.1077,-1.2096,-1.3119,-1.4202,-1.5207,-1.5808,-1.5808,-1.5808,-1.5808,-1.5808,-1.5808,-1.6075,-1.6687,-1.6707,-1.6987,-1.7602,-1.7608,-1.7608,-1.7608,-1.7608,-1.7608,-1.7608,-1.7608,-1.7608,-1.7608,-1.7608,-1.7608,-1.7608,-1.7608,-1.7608,-1.7608,-1.7608,-1.7608,-1.7608,-1.7608,-1.7608,-1.7608,0.0,0.4325,0.3574,0.3524,0.2622,0.1919,0.1919,0.1791,0.1679,0.1679,0.0836,-0.0553,-0.2606,-0.3185,-0.3791,-0.4659,-0.4924,-0.5029,-0.5029,-0.5029,-0.5022,-0.4974,-0.497,-0.5294,-0.5994,-0.5992,-0.6714,-0.8159,-0.8432,-0.8878,-0.9525,-1.0117,-1.0462,-1.056,-1.0904,-1.1389,-1.2005,-1.2005,-1.2322,-1.2789,-1.2691,-1.2443,-1.2102,-1.1438,-1.0924,-1.0487,-0.9945,-0.9677,-0.9603,-0.9603,-0.9603,-0.9603,0.0,0.0,0.0,-0.9603,0.0,0.0,0.0,0.0,0.0,0.0,0.0,0.0,-0.9602,-0.9708,-0.9795,-0.9632,-0.9603,-0.9603,-0.9603,-0.9603,-0.9603,-0.9603,-0.9603,-0.9603,-0.9603,-0.9603,-0.999,-1.1077,-1.2096,-1.3119,-1.4202,-1.5207,-1.5808,-1.5808,-1.5808,-1.5808,-1.5808,-1.5808,-1.6075,-1.6687,-1.6707,-1.6987,-1.7602,-1.7608,-1.7608,-1.7608,-1.7608,-1.7608,-1.7608,-1.7608,-1.7608,-1.7608,-1.7608,-1.7608,-1.7608,-1.7608,-1.7608,-1.7608,-1.7608,-1.7608,-1.7608,-1.7608,-1.7608,-1.7608,0.4099,0.3148,0.2396,0.2396,0.1984,0.1639,0.1639,0.117,0.0815,0.0815,-0.0714,-0.2234,-0.3378,-0.399,-0.4523,-0.5055,-0.5108,-0.5108,-0.5108,-0.5108,-0.5088,-0.5043,-0.5455,-0.6056,-0.677,-0.7166,-0.7938,-0.9149,-0.9044,-0.9204,-0.9603,-0.9871,-0.9994,-1.0019,-1.029,-1.0708,-1.1194,-1.1194,-1.1658,-1.2419,-1.2691,0.0,-1.237,-1.2102,-1.1658,-1.1169,-1.0904,-1.0462,-0.9945,-0.9702,-0.9603,0.0,0.0,-0.9603,-0.9603,0.0,-0.9603,-0.9603,0.0,0.0,0.0,-0.9734,0.0,0.0,0.0,-0.9758,-0.9734,-0.962,-0.9603,-0.9603,-0.9603,-0.9603,-0.9603,-0.9603,-0.9603,-0.9797,-1.0326,-0.9941,-1.0187,-1.176,-1.2387,-1.3312,-1.489,-1.5493,-1.5808,-1.5808,-1.5808,-1.5808,-1.5808,-1.5808,-1.6075,-1.6687,-1.6707,-1.6987,-1.7602,-1.7608,-1.7608,-1.7608,-1.7608,-1.7608,-1.7608,-1.7608,-1.7608,-1.7608,-1.7608,-1.7608,-1.7608,-1.7608,-1.7608,-1.7608,-1.7608,-1.7608,-1.7608,-1.7608,-1.7608,-1.7608,0.2903,0.2218,0.1608,0.1608,0.1654,0.1618,0.1383,0.0529,-0.0241,-0.0725,-0.2364,-0.3601,-0.3844,-0.465,-0.5215,-0.54,-0.54,-0.54,-0.54,-0.5558,-0.5576,-0.5401,-0.6221,-0.7055,-0.7846,-0.846,-0.9141,-0.9962,-0.9799,-0.9705,-0.9705,-0.9668,-0.9652,-0.9648,-0.962,-0.99,-1.0413,-1.0413,0.0,-1.1883,0.0,-1.2619,-1.2764,-1.2467,-1.2127,-1.181,-1.1614,-1.0973,-1.0191,-0.9871,-0.9677,-0.9628,-0.9727,-0.9677,0.0,0.0,0.0,0.0,0.0,0.0,0.0,0.0,0.0,-0.975,0.0,0.0,0.0,0.0,0.0,0.0,0.0,0.0,0.0,0.0,0.0,0.0,0.0,-1.0137,0.0,-1.2732,-1.2829,-1.3529,-1.5611,-1.5808,-1.5808,-1.5808,-1.5808,-1.5808,-1.5808,-1.5808,-1.6075,-1.6687,-1.6707,-1.6987,-1.7602,-1.7608,-1.7608,-1.7608,-1.7608,-1.7608,-1.7608,-1.7608,-1.7608,-1.7608,-1.7608,-1.7608,-1.7608,-1.7608,-1.7608,-1.7608,-1.7608,-1.7608,-1.7608,-1.7608,-1.7608,-1.7608,0.1879,0.1773,0.1695,0.1695,0.1697,0.1327,0.0265,0.0027,-0.0767,-0.2914,-0.3421,-0.4007,-0.5071,-0.5295,-0.5682,-0.6455,-0.6511,-0.6511,-0.6511,-0.7246,-0.7306,-0.6475,-0.7253,-0.8081,-0.8823,-0.8933,-0.9369,-1.0184,-1.0137,-1.0129,-1.0125,-0.9958,-0.9855,-0.9847,-0.9672,-0.99,-1.0413,0.0,-1.0728,0.0,-1.1365,-1.1956,0.0,-1.1223,-1.0924,-1.1169,-1.0216,-0.9797,-0.9752,0.0,-0.9994,-0.9677,0.0,-0.9994,-0.9603,-0.9603,0.0,0.0,0.0,0.0,0.0,0.0,-0.988,0.0,0.0,0.0,-0.9811,-0.9636,0.0,0.0,0.0,0.0,0.0,0.0,0.0,0.0,-0.9598,-0.9596,-1.0723,-1.3763,-1.327,-1.3529,-1.5611,-1.5808,-1.5808,-1.5808,-1.5808,-1.5808,-1.5808,-1.5808,-1.6075,-1.6687,-1.6707,-1.6987,-1.7602,-1.7608,-1.7608,-1.7608,-1.7608,-1.7608,-1.7608,-1.7608,-1.7608,-1.7608,-1.7608,-1.7608,-1.7608,-1.7608,-1.7608,-1.7608,-1.7608,-1.7608,-1.7608,-1.7608,-1.7608,-1.7608,0.1577,0.1145,0.0666,0.0666,0.0107,-0.0513,-0.0999,-0.1644,-0.2693,-0.4419,-0.4648,-0.4845,-0.5354,0.0,0.0,0.0,0.0,-0.6907,0.0,0.0,-0.7812,-0.7432,-0.8278,-0.8907,-0.9223,-0.9621,-0.9974,-1.0318,-1.0239,-1.0186,-1.0212,-1.0109,-1.0072,-1.0064,-0.9855,0.0,-1.0092,0.0,-1.024,0.0,0.0,0.0,0.0,-1.112,-1.0998,-1.1096,-1.0339,-1.0068,-1.0043,0.0,-0.9797,0.0,0.0,0.0,0.0,0.0,0.0,0.0,0.0,0.0,0.0,0.0,0.0,0.0,-0.9811,0.0,-0.9688,0.0,0.0,0.0,0.0,0.0,0.0,0.0,-0.9551,0.0,0.0,0.0,-1.033,0.0,0.0,0.0,-1.5611,-1.5808,-1.5808,-1.5808,-1.5808,-1.5808,-1.5808,-1.5808,-1.6075,-1.6687,-1.6707,-1.6987,-1.7602,-1.7608,-1.7608,-1.7608,-1.7608,-1.7608,-1.7608,-1.7608,-1.7608,-1.7608,-1.7608,-1.7608,-1.7608,-1.7608,-1.7608,-1.7608,-1.7608,-1.7608,-1.7608,-1.7608,-1.7608,-1.7608,0.0651,0.0,0.0,-0.0567,-0.1254,-0.1923,-0.2252,-0.3331,-0.4395,-0.5296,-0.5409,-0.5409,-0.5409,-0.5605,0.0,0.0,-0.7293,-0.7706,0.0,0.0,-0.864,0.0,0.0,0.0,0.0,-1.0241,-1.0478,-1.0478,-1.0371,-1.0337,-1.0333,-1.0284,-1.0237,-1.0255,-1.0068,-0.9987,-0.9974,0.0,-0.9896,-1.021,-0.9768,-1.0068,-1.0781,-1.0924,-1.0904,-1.0703,-1.0314,-1.0191,-1.0142,-0.9895,-0.9727,0.0,-0.9776,0.0,0.0,0.0,0.0,0.0,-0.9603,0.0,0.0,0.0,0.0,0.0,0.0,0.0,0.0,0.0,0.0,0.0,0.0,0.0,0.0,0.0,0.0,-0.9929,0.0,-1.0079,0.0,0.0,0.0,0.0,0.0,-1.5808,-1.5808,-1.5808,-1.5808,-1.5808,-1.5808,-1.5808,-1.6075,-1.6687,-1.6707,-1.6987,-1.7602,-1.7608,-1.7608,-1.7608,-1.7608,-1.7608,-1.7608,-1.7608,-1.7608,-1.7608,-1.7608,-1.7608,-1.7608,-1.7608,-1.7608,-1.7608,-1.7608,-1.7608,-1.7608,-1.7608,-1.7608,-1.7608,-0.1454,-0.1733,0.0,0.0,-0.1789,-0.2181,-0.3354,-0.4562,-0.5354,-0.5382,0.0,0.0,0.0,0.0,0.0,0.0,0.0,-0.9333,-0.9361,0.0,-1.0249,0.0,0.0,-1.0665,0.0,0.0,-1.0684,-1.0684,-1.0676,-1.0676,-1.0672,-1.0478,-1.0401,-1.0393,-1.0263,-1.0178,-1.0192,-0.9978,-0.9901,-0.9889,-0.9693,-0.9628,-0.9702,0.0,-1.0093,-0.9653,-0.9628,0.0,0.0,-1.0216,-1.0019,0.0,0.0,0.0,0.0,0.0,0.0,0.0,0.0,0.0,0.0,-0.9652,0.0,0.0,0.0,0.0,-0.9827,0.0,0.0,0.0,0.0,0.0,0.0,0.0,0.0,0.0,0.0,0.0,0.0,0.0,0.0,0.0,0.0,-1.5808,-1.5808,-1.5808,-1.5808,-1.5808,-1.5808,-1.5808,-1.6075,-1.6687,-1.6707,-1.6987,-1.7602,-1.7608,-1.7608,-1.7608,-1.7608,-1.7608,-1.7608,-1.7608,-1.7608,-1.7608,-1.7608,-1.7608,-1.7608,-1.7608,-1.7608,-1.7608,-1.7608,-1.7608,-1.7608,-1.7608,-1.7608,-1.7608,0.0,0.0,0.0,0.0,0.0,0.0,0.0,-0.5128,0.0,0.0,0.0,0.0,0.0,-0.7041,-0.7922,0.0,0.0,-0.9636,-1.0217,-1.0527,0.0,0.0,0.0,-1.0692,0.0,0.0,0.0,0.0,-1.0692,-1.0692,-1.0688,-1.0631,-1.0603,-1.0599,-1.042,-1.0343,0.0,0.0,0.0,0.0,0.0,-0.9672,-0.9812,0.0,-0.9752,-0.9603,-0.9603,-0.9603,0.0,-0.9801,-0.9747,-0.9628,-0.9826,-0.9747,-0.9603,-0.9603,-0.9603,-0.9603,0.0,0.0,-0.9843,-0.9644,0.0,0.0,0.0,0.0,0.0,0.0,0.0,0.0,0.0,0.0,0.0,0.0,0.0,0.0,0.0,0.0,0.0,0.0,0.0,0.0,0.0,0.0,-1.5808,-1.5808,-1.5808,-1.5808,-1.5808,-1.5808,-1.6012,-1.6431,-1.6607,-1.6894,-1.7321,-1.7508,-1.7608,-1.7608,-1.7608,-1.7608,-1.7608,-1.7608,-1.7608,-1.7608,-1.7608,-1.7608,-1.7608,-1.7608,-1.7608,-1.7608,-1.7608,-1.7608,-1.7608,-1.7608,-1.7608,-1.7608,-0.417,0.0,0.0,0.0,0.0,0.0,0.0,0.0,0.0,0.0,-0.6629,0.0,-0.7152,0.0,-0.8751,0.0,-0.9695,-1.0107,-1.0665,-1.0692,0.0,-1.0692,-1.0692,0.0,0.0,0.0,0.0,0.0,0.0,-1.0692,-1.0692,-1.0692,-1.0692,-1.0688,-1.0547,-1.0498,-1.0486,-1.0335,-1.0188,0.0,0.0,-0.9884,0.0,0.0,-0.9819,-0.9811,0.0,-0.9697,-0.9684,-0.9624,-0.9603,-0.9603,-0.9603,-0.9603,-0.9603,-0.9603,-0.9603,-0.9603,-0.9603,-0.9684,0.0,-0.9632,-0.9684,0.0,-0.9628,0.0,-0.9851,0.0,0.0,0.0,0.0,0.0,0.0,0.0,0.0,0.0,0.0,-0.9603,0.0,0.0,0.0,0.0,0.0,0.0,-1.5808,-1.5808,-1.5808,-1.5808,-1.5808,-1.5808,-1.5941,-1.6284,-1.6553,-1.6847,-1.7199,-1.7468,-1.7608,-1.7608,-1.7608,-1.7608,-1.7608,-1.7608,-1.7608,-1.7608,-1.7608,-1.7608,-1.7608,-1.7608,-1.7608,-1.7608,-1.7608,-1.7608,-1.7608,-1.7608,-1.7608,-1.7608,-0.5184,0.0,0.0,0.0,-0.5409,0.0,0.0,0.0,-0.6687,0.0,-0.7509,-0.8057,-0.8057,-0.8916,-0.9471,-0.9471,-1.0217,-1.0692,-1.0692,-1.0692,0.0,0.0,-1.0692,-1.0692,-1.0692,0.0,0.0,0.0,0.0,0.0,-1.0692,-1.0692,-1.0692,-1.0692,-1.0692,0.0,-1.068,-1.049,-1.0417,-1.0393,-1.0263,-1.0194,-1.0202,-1.0202,-1.0206,-1.0186,-0.9995,-0.9921,-0.9876,-0.9684,-0.9628,-0.9628,-0.962,-0.9616,-0.9616,-0.9603,-0.9603,-0.9603,-0.9603,-0.9603,-0.9603,-0.9603,-0.9603,0.0,0.0,0.0,-0.9909,0.0,0.0,0.0,0.0,0.0,0.0,0.0,0.0,0.0,0.0,0.0,0.0,0.0,0.0,0.0,0.0,-1.5808,-1.5808,-1.5808,-1.5808,-1.5808,0.0,-1.5808,-1.5941,-1.6284,-1.6553,-1.6847,-1.7199,-1.7468,-1.7608,-1.7608,-1.7608,-1.7608,-1.7608,-1.7608,-1.7608,-1.7608,-1.7608,-1.7608,-1.7608,-1.7608,-1.7608,-1.7608,-1.7608,-1.7608,-1.7608,-1.7608,-1.7608,-1.7608,-0.5354,-0.5409,-0.5409,0.0,-0.5409,-0.5409,0.0,0.0,0.0,0.0,-0.8066,-0.9027,-0.9027,-0.9833,-1.0359,-1.0359,-1.0582,0.0,0.0,0.0,0.0,-1.0692,-1.0692,-1.0692,-1.0692,-1.0692,0.0,-1.0692,0.0,0.0,-1.0692,-1.0692,-1.0692,-1.0692,0.0,-1.0692,-1.0688,-1.0643,-1.0554,-1.0393,-1.0263,-1.0272,-1.0341,0.0,-1.0444,-1.0544,-1.0227,-1.0117,-1.0109,-1.0064,-1.0052,-1.0027,-0.9864,-0.9819,-0.9791,-0.964,-0.9603,-0.9603,-0.9603,-0.9603,-0.9603,-0.9603,-0.9603,-0.9603,0.0,0.0,0.0,0.0,0.0,0.0,0.0,0.0,0.0,0.0,0.0,0.0,0.0,0.0,0.0,-1.2557,0.0,0.0,0.0,-1.5808,-1.5808,-1.5808,-1.5808,-1.5808,-1.5808,0.0,-1.5941,-1.6284,-1.6553,-1.6847,-1.7199,-1.7468,-1.7608,-1.7608,-1.7608,-1.7608,-1.7608,-1.7608,-1.7608,-1.7608,-1.7608,-1.7608,-1.7608,-1.7608,-1.7608,-1.7608,-1.7608,-1.7608,-1.7608,-1.7608,-1.7608,-1.7608,-0.5409,0.0,0.0,-0.5409,0.0,0.0,-0.5972,-0.671,0.0,-0.7817,-0.9089,0.0,-0.997,-1.0414,-1.0692,-1.0692,-1.0692,0.0,-1.0692,0.0,0.0,-1.0692,-1.0692,-1.0692,-1.0692,-1.0692,0.0,-1.0692,0.0,0.0,-1.0692,-1.0692,-1.0692,0.0,0.0,-1.0692,-1.0692,-1.0692,-1.0635,-1.0511,-1.0463,-1.0456,0.0,-1.0519,-1.0607,-1.0668,-1.0491,-1.0373,-1.027,-1.0215,-1.0186,-1.017,-1.0064,-1.0031,-1.0011,-0.9892,-0.9803,-0.9738,-0.9738,-0.966,-0.9603,-0.9603,-0.9603,-0.9603,-0.9603,-0.9676,-0.9766,0.0,-0.9758,-0.9791,0.0,0.0,0.0,0.0,0.0,0.0,0.0,0.0,0.0,0.0,-1.3926,0.0,-1.5706,-1.5808,-1.5808,-1.5808,-1.5808,-1.5808,0.0,0.0,-1.5941,-1.6284,-1.6553,-1.6847,-1.7199,-1.7468,-1.7608,-1.7608,-1.7608,-1.7608,-1.7608,-1.7608,-1.7608,-1.7608,-1.7608,-1.7608,-1.7608,-1.7608,-1.7608,-1.7608,-1.7608,-1.7608,-1.7608,-1.7608,-1.7608,-1.7608,-0.5156,0.0,0.0,0.0,0.0,0.0,0.0,-0.7635,0.0,-0.931,0.0,-1.0692,-1.0692,-1.0692,-1.0692,-1.0692,0.0,-1.0692,-1.0692,-1.0692,-1.0692,-1.0692,-1.0692,-1.0692,-1.0692,-1.0692,-1.0692,0.0,0.0,0.0,-1.066,-1.068,0.0,0.0,0.0,0.0,0.0,-1.0692,-1.0692,-1.0692,-1.0692,-1.0692,-1.0692,-1.0692,-1.0692,-1.0692,-1.0692,-1.0595,-1.0417,-1.0312,-1.0259,-1.0255,-1.0231,-1.0223,-1.0219,-1.022,-1.0072,-0.9946,-0.9946,-0.9811,-0.9672,-0.9672,-0.9656,-0.9636,-0.9636,-0.962,-0.9644,-0.9819,-0.9734,-0.9746,0.0,0.0,0.0,0.0,0.0,0.0,0.0,0.0,0.0,0.0,0.0,0.0,0.0,-1.5808,-1.5808,-1.5808,-1.5808,0.0,0.0,0.0,-1.5961,-1.6344,-1.6573,-1.6867,-1.7253,-1.7481,-1.7608,-1.7608,-1.7608,-1.7608,-1.7608,-1.7608,-1.7608,-1.7608,-1.7608,-1.7608,-1.7608,-1.7608,-1.7608,-1.7608,-1.7608,-1.7608,-1.7608,-1.7608,-1.7608,-1.7608,0.0,0.0,0.0,0.0,0.0,-0.7174,-0.7693,-0.8662,-0.9388,-0.9532,-1.0227,-1.0692,-1.0692,-1.0692,-1.0692,-1.0692,-1.0692,0.0,0.0,0.0,0.0,-1.0692,-1.0692,-1.0692,-1.0692,-1.0692,-1.0692,0.0,0.0,0.0,-1.0454,0.0,0.0,0.0,0.0,0.0,-1.0692,-1.0692,0.0,-1.0692,-1.0692,-1.0692,-1.0692,-1.0692,-1.0692,-1.0692,-1.0692,-1.0672,-1.0643,-1.0611,-1.0599,-1.0574,-1.0432,-1.0361,-1.0332,-1.0231,-1.0192,-1.0137,-1.0137,-1.0117,-1.0092,-1.0092,-0.9978,-0.9839,-0.9839,-0.973,-0.9611,-0.964,-0.9624,-0.9892,-1.0854,0.0,0.0,0.0,0.0,0.0,0.0,0.0,0.0,0.0,0.0,-1.5611,0.0,0.0,0.0,0.0,0.0,0.0,0.0,0.0,-1.6048,0.0,-1.668,-1.6961,0.0,0.0,-1.7608,-1.7608,-1.7608,-1.7608,-1.7608,-1.7608,-1.7608,-1.7608,-1.7608,-1.7608,-1.7608,-1.7608,-1.7608,-1.7608,-1.7608,-1.7608,-1.7608,-1.7608,-1.7608,-1.7608,0.0,0.0,0.0,0.0,0.0,0.0,0.0,-0.969,-1.0278,-1.019,-1.0469,-1.0692,-1.0692,-1.0692,-1.0692,-1.0692,-1.0692,-1.0692,-1.0692,-1.0692,-1.0692,-1.0692,-1.0692,-1.0692,-1.0692,-1.0692,-1.0692,-1.0692,0.0,0.0,-1.0413,0.0,0.0,-1.0417,0.0,-1.0692,0.0,0.0,0.0,-1.0692,-1.0692,-1.0692,-1.0692,-1.0692,-1.0692,-1.0692,-1.0692,-1.0692,-1.0692,-1.0692,-1.0692,-1.0676,-1.0595,-1.0968,-1.1428,-1.1358,-1.171,-1.2126,-1.2126,-1.2039,-1.1953,-1.1953,-1.1902,-1.1821,-1.1821,-1.1749,-1.1643,-1.1513,-1.1464,-1.1579,-1.1897,-1.2363,0.0,0.0,0.0,0.0,0.0,0.0,0.0,0.0,0.0,0.0,0.0,0.0,0.0,0.0,0.0,0.0,0.0,0.0,-1.6075,0.0,0.0,0.0,-1.7602,0.0,-1.7608,-1.7608,-1.7608,-1.7608,-1.7608,-1.7608,-1.7608,-1.7608,-1.7608,-1.7608,-1.7608,-1.7608,-1.7608,-1.7608,-1.7608,-1.7608,-1.7628,-1.7762,-1.7822,-1.7802,0.0,-0.4479,0.0,0.0,-0.7643,0.0,-0.9469,-1.0374,-1.0943,-1.0769,-1.0716,-1.0692,-1.0692,-1.0692,-1.0692,-1.0692,-1.0692,-1.0692,-1.0692,-1.0692,-1.0692,-1.0692,-1.0692,-1.0692,-1.0692,-1.0692,-1.0692,0.0,0.0,0.0,0.0,0.0,0.0,0.0,0.0,0.0,0.0,0.0,-1.0692,-1.0692,-1.0692,-1.0692,-1.0692,-1.0692,-1.0857,-1.1044,-1.0798,-1.1017,-1.1396,-1.1149,-1.0907,-1.0692,-1.0692,-1.1314,-1.2041,-1.2041,-1.26,-1.3265,-1.353,-1.3472,-1.3402,-1.366,-1.3674,-1.3667,-1.3667,-1.3623,-1.3536,-1.3326,-1.3463,-1.346,-1.2924,-1.3172,0.0,0.0,0.0,0.0,0.0,0.0,0.0,0.0,0.0,0.0,-1.5808,0.0,0.0,0.0,0.0,0.0,-1.5808,0.0,0.0,0.0,0.0,-1.7054,-1.7575,0.0,-1.7608,-1.7608,-1.7608,-1.7608,-1.7608,-1.7608,-1.7608,-1.7608,-1.7608,-1.7608,-1.7608,-1.7608,-1.7608,-1.7615,-1.7655,-1.7682,-1.7716,-1.8002,-1.8116,-1.8083,0.0,0.0,0.0,0.0,0.0,-0.9465,-0.9431,-1.0325,-1.0992,-1.0972,-1.0798,-1.0692,-1.0692,-1.0692,-1.0692,-1.0692,-1.0692,-1.0692,-1.0692,-1.0692,-1.0692,-1.0692,-1.0692,-1.0692,-1.0692,-1.0692,-1.0692,0.0,0.0,-1.0684,0.0,0.0,0.0,0.0,0.0,0.0,0.0,-1.0692,-1.0692,-1.0692,-1.0692,-1.0692,-1.0692,-1.0692,-1.1341,-1.2123,-1.1067,-1.2041,-1.3625,-1.2603,-1.1555,-1.0692,-1.0692,-1.0774,-1.0852,-1.0852,-1.0922,-1.1233,-1.2253,-1.2532,-1.2761,-1.3799,-1.3969,-1.387,-1.387,-1.3723,-1.358,-1.3558,-1.4351,-1.4635,-1.3372,-1.4691,-1.5575,0.0,0.0,0.0,0.0,0.0,-1.5808,-1.5808,0.0,0.0,0.0,-1.5808,0.0,0.0,-1.5808,0.0,0.0,0.0,0.0,-1.6693,-1.6993,-1.7313,-1.7608,-1.7608,-1.7608,-1.7608,-1.7608,-1.7608,-1.7608,-1.7608,-1.7608,-1.7608,-1.7608,-1.7608,-1.7608,-1.7608,-1.7608,-1.7609,-1.7869,-1.7949,-1.8016,-1.8337,-1.845,-1.8444,0.0,0.0,0.0,0.0,0.0,0.0,0.0,-1.0532,-1.0829,-1.0829,-1.0741,-1.0692,-1.0692,-1.0692,-1.0692,-1.0692,-1.0692,-1.0692,-1.0692,-1.0692,-1.0692,-1.0692,-1.0692,-1.0692,-1.0692,-1.0692,-1.0692,0.0,0.0,0.0,0.0,0.0,0.0,0.0,0.0,-1.0692,-1.0692,-1.0692,-1.0692,-1.0692,-1.0692,-1.0692,-1.0774,-1.1446,-1.2014,-1.244,-1.2657,-1.3329,-1.4024,-1.3566,-1.3112,-1.263,-1.1932,-1.22,-1.2603,-1.1932,-1.2711,-1.3922,-1.4379,-1.4995,-1.5642,-1.6095,-1.6153,-1.6132,-1.6132,-1.6071,-1.5973,-1.5779,-1.5929,-1.5934,-1.5388,-1.5974,-1.6369,-1.5832,0.0,0.0,0.0,0.0,0.0,0.0,0.0,0.0,0.0,0.0,0.0,0.0,0.0,0.0,0.0,0.0,0.0,-1.6986,0.0,-1.734,-1.7608,-1.7608,-1.7608,-1.7608,-1.7608,-1.7608,-1.7608,-1.7608,-1.7608,-1.7608,-1.7608,-1.7608,-1.7622,-1.7782,-1.7836,-1.7862,-1.8169,-1.8176,-1.8029,-1.8384,-1.849,-1.8517,-0.4758,0.0,-0.6864,0.0,-0.9165,-0.9998,-1.061,-1.0692,-1.0692,-1.0692,-1.0692,-1.0692,-1.0692,-1.0692,-1.0692,-1.0692,-1.0692,-1.0692,-1.0692,-1.0692,-1.0692,-1.0692,-1.0692,0.0,-1.0692,-1.0692,-1.0692,-1.0692,-1.0692,0.0,0.0,0.0,0.0,0.0,-1.0692,-1.0692,-1.0692,-1.0692,-1.0692,-1.0692,-1.0692,-1.0907,-1.1286,-1.2091,-1.282,-1.3491,-1.3949,-1.4534,-1.5076,-1.4754,-1.4862,-1.4862,-1.3356,-1.3464,-1.3949,-1.3139,-1.4083,-1.5455,-1.5808,-1.6479,-1.718,-1.7529,-1.7608,-1.7608,-1.7608,-1.7608,-1.7548,-1.7373,-1.7133,-1.6934,-1.6854,-1.6859,-1.6807,-1.672,0.0,0.0,0.0,-1.6424,0.0,0.0,-1.6061,-1.6061,-1.6061,-1.6061,0.0,0.0,0.0,0.0,0.0,0.0,0.0,0.0,0.0,0.0,-1.7608,-1.7608,-1.7608,-1.7608,-1.7608,-1.7608,-1.7608,-1.7608,-1.7608,-1.7615,-1.7675,-1.7716,-1.7742,-1.8022,-1.8149,-1.8176,-1.8504,-1.8409,-1.8189,-1.851,-1.8617,-1.8637,-0.5616,-0.6974,-0.8278,-0.9223,-1.0107,-1.0692,-1.0692,-1.0692,-1.0692,-1.0692,-1.0692,-1.0692,-1.0692,-1.0692,-1.0692,-1.0692,-1.0692,-1.0692,-1.0692,-1.0692,-1.0692,0.0,0.0,-1.0692,-1.0692,-1.0692,-1.0692,-1.0692,0.0,0.0,-1.0992,0.0,-1.0894,-1.0692,-1.0692,-1.0692,-1.0692,-1.0692,-1.0692,-1.0692,-1.0692,-1.1364,-1.239,-1.2385,-1.3841,-1.5695,-1.4508,-1.5583,-1.7391,-1.626,-1.6638,-1.7147,-1.4808,-1.4078,-1.4105,-1.4078,-1.4105,-1.4374,-1.5589,-1.5914,-1.618,-1.7312,-1.7608,-1.7608,-1.7608,-1.7608,-1.7608,-1.7608,-1.7602,-1.7508,-1.7246,-1.7199,-1.7099,-1.6754,0.0,0.0,0.0,0.0,0.0,-1.6693,-1.6693,-1.6693,-1.6693,-1.6693,0.0,0.0,0.0,0.0,0.0,0.0,0.0,-1.7199,-1.7454,0.0,-1.7608,-1.7608,-1.7608,-1.7608,-1.7608,-1.7608,-1.7608,-1.7608,-1.7608,-1.7602,-1.7882,-1.8016,-1.8009,-1.8364,-1.8484,-1.8517,-1.8776,-1.8738,-1.8517,-1.8811,-1.889,-1.885,-0.5926,-0.6674,-0.7476,-0.8592,-0.9509,-1.0091,-1.0091,-1.0091,-1.0091,-1.0091,-1.0358,-1.0572,-1.0572,-1.0767,-1.0911,0.0,-1.0988,-1.1053,0.0,-1.1053,-1.1053,-1.1053,-1.0944,-1.0911,-1.0911,-1.0785,-1.0692,-1.0692,0.0,0.0,0.0,-1.0809,-1.0749,-1.0692,-1.0692,-1.0692,-1.0692,-1.0692,-1.0692,-1.0692,-1.0692,-1.1391,-1.2472,-1.3248,-1.454,-1.5941,-1.634,-1.6962,-1.7529,-1.718,-1.7312,-1.7477,-1.6717,-1.5941,-1.5156,-1.4347,-1.4674,-1.5402,-1.5808,-1.6479,-1.7147,-1.7503,-1.7608,-1.7608,-1.7608,-1.7608,-1.7608,-1.7608,-1.7608,-1.7582,-1.7488,-1.7468,-1.7441,-1.7321,-1.7301,0.0,-1.7066,0.0,-1.6959,-1.6734,-1.6707,-1.6707,-1.6707,-1.6707,0.0,0.0,0.0,0.0,0.0,0.0,0.0,0.0,-1.7561,0.0,-1.7608,-1.7608,-1.7608,-1.7608,-1.7608,-1.7695,-1.7876,-1.7876,-1.8009,-1.821,-1.831,-1.835,-1.837,-1.8636,-1.8756,-1.879,-1.9112,-1.8953,-1.8524,-1.879,-1.877,-1.8644,-0.6566,-0.7093,-0.7731,-0.8788,-0.9427,-0.9789,-0.9789,-0.9841,-0.9882,-0.9882,-1.0196,-1.0412,-1.0412,-1.0784,0.0,-1.107,-1.1159,-1.1195,-1.1195,-1.1195,-1.1167,-1.1131,-1.1025,-1.0964,-1.0894,-1.0753,0.0,-1.0692,-1.0692,-1.0692,-1.0692,-1.0692,-1.0692,-1.0692,-1.0692,-1.0692,-1.0692,-1.0692,-1.0692,-1.0747,-1.1177,-1.201,-1.3171,-1.4325,-1.5509,-1.6638,-1.7338,-1.7608,-1.7608,-1.7608,-1.7608,-1.7608,-1.7608,-1.712,-1.6393,-1.5642,-1.5941,-1.6532,-1.6532,-1.7067,-1.7608,-1.7608,-1.7608,-1.7608,-1.7608,-1.7608,-1.7608,-1.7608,-1.7608,-1.7608,-1.7608,-1.7608,-1.7608,-1.7608,-1.7608,-1.7541,-1.7361,0.0,-1.7267,0.0,0.0,0.0,0.0,-1.7034,-1.7114,0.0,0.0,0.0,0.0,0.0,-1.7421,-1.7602,-1.7608,-1.7608,-1.7608,-1.7608,-1.7642,-1.7756,-1.7869,-1.8023,-1.8189,-1.8189,-1.831,-1.8497,-1.8604,-1.8651,-1.8677,-1.8971,-1.9092,-1.9112,-1.9321,-1.904,-1.8524,-1.879,-1.8738,-1.8504,-0.7426,-0.8039,-0.8678,0.0,-0.9734,-0.9737,-0.9748,-0.9853,-0.9957,-0.9968,-1.0165,-1.029,-1.029,-1.0703,-1.1036,-1.1157,0.0,0.0,-1.1232,-1.1219,-1.1171,-1.1041,-1.1008,-1.0915,-1.0716,-1.07,-1.0692,-1.0692,-1.0692,-1.0692,-1.0692,-1.0692,-1.0692,-1.0692,-1.0692,-1.0692,-1.0692,-1.0692,-1.0747,-1.0907,-1.196,-1.3139,-1.4347,-1.5482,-1.6611,-1.7608,-1.7608,-1.7608,-1.7608,-1.7608,-1.7608,-1.7608,-1.7608,-1.7608,-1.7608,-1.7608,-1.7608,-1.7608,-1.7608,-1.7608,-1.7608,-1.7608,-1.7608,-1.7608,-1.7608,-1.7608,-1.7608,-1.7608,-1.7608,-1.7608,-1.7608,-1.7608,-1.7608,-1.7608,-1.7608,-1.7608,-1.7608,-1.7608,-1.7608,0.0,0.0,0.0,-1.7608,-1.7608,-1.7608,0.0,0.0,0.0,0.0,0.0,-1.7608,-1.7608,-1.7608,-1.7622,-1.7642,-1.7642,-1.7769,-1.8056,-1.8357,-1.8504,-1.8517,-1.8517,-1.8531,-1.8571,-1.8838,-1.8923,-1.895,-1.9281,-1.9395,-1.9395,-1.9395,-1.9047,-1.8557,-1.8816,-1.8771,-1.8484,0.0,0.0,-0.7792,-0.8909,-0.9103,-0.9168,-0.9307,-0.9356,-0.9425,-0.9515,-0.9898,-1.0144,-1.0144,-1.0576,-1.0865,-1.0887,-1.1369,-1.1676,-1.1676,-1.1512,-1.1415,-1.1374,-1.1143,-1.0976,-1.0935,-1.0793,-1.0692,-1.0692,-1.0692,-1.0692,-1.0692,-1.0692,-1.0692,-1.0692,-1.0692,-1.0692,-1.0692,-1.0692,-1.1204,-1.201,-1.2282,-1.3625,-1.5509,-1.5781,-1.6611,-1.7608,-1.7608,-1.7608,-1.7608,-1.7608,-1.7608,-1.7608,-1.7608,-1.7608,-1.7608,-1.7608,-1.7608,-1.7608,-1.7608,-1.7608,-1.7608,-1.7608,-1.7608,-1.7608,-1.7608,-1.7608,-1.7608,-1.7608,-1.7608,-1.7608,-1.7608,-1.7608,-1.7608,-1.7608,-1.7608,-1.7608,-1.7608,-1.7608,-1.7608,0.0,-1.7608,-1.7608,-1.7608,-1.7608,-1.7608,0.0,0.0,-1.7608,-1.7608,-1.7608,-1.7608,-1.7608,-1.7608,-1.7695,-1.7909,-1.7909,-1.8063,-1.8384,-1.8457,-1.8604,-1.8824,-1.8824,-1.8945,-1.9194,-1.9261,-1.9294,-1.9294,-1.9368,-1.9395,-1.9395,-1.9395,-1.9174,-1.883,-1.9152,-1.9078,-1.8816,-0.774,-0.7962,-0.8146,-0.8913,-0.9035,-0.9086,-0.9264,-0.9345,-0.942,-0.9473,-0.976,-0.9973,-0.9973,-1.0315,-1.0577,-1.0577,-1.1035,-1.1345,-1.1345,-1.1185,-1.1051,-1.0969,-1.0829,-1.0735,-1.0679,-1.069,-1.0692,-1.0692,-1.0692,-1.0692,-1.0692,-1.0692,-1.0692,-1.0692,-1.0692,-1.0692,-1.0719,-1.1259,-1.1823,-1.2494,-1.3572,-1.4754,-1.5968,-1.6479,-1.7067,-1.7608,-1.7608,-1.7608,-1.7608,-1.7608,-1.7608,-1.7608,-1.7608,-1.7608,-1.7608,-1.7608,-1.7608,-1.7608,-1.7608,-1.7608,-1.7608,-1.7608,-1.7608,-1.7608,-1.7608,-1.7608,-1.7608,-1.7608,-1.7608,-1.7608,-1.7608,-1.7608,-1.7608,-1.7608,-1.7608,-1.7608,-1.7608,-1.7608,-1.7608,-1.7608,-1.7608,-1.7608,-1.7608,-1.7608,-1.7608,-1.7608,-1.7608,0.0,-1.7789,-1.7796,-1.7796,-1.7796,-1.7796,-1.7943,-1.8223,-1.8349,-1.8503,-1.8691,-1.8824,-1.9007,-1.9125,-1.9125,-1.9219,-1.9395,-1.9395,-1.9395,-1.9395,-1.9395,-1.9395,-1.9395,-1.9395,-1.9185,-1.893,-1.9287,-1.9178,-1.8916,-0.8128,-0.8606,-0.9018,-0.9189,-0.9216,-0.9267,-0.942,-0.9527,-0.9615,-0.9639,-0.9717,-0.9792,-0.9792,-1.0061,-1.0213,-1.0213,-1.0486,-1.0698,-1.0789,-1.0647,-1.0483,-1.0308,-1.0353,-1.0353,-1.0233,-1.05,-1.0637,-1.0637,-1.0692,-1.0692,-1.0692,-1.0692,-1.0692,-1.0692,-1.0692,-1.0692,-1.0774,-1.1719,-1.2336,-1.282,-1.4835,-1.5829,-1.626,-1.7232,-1.7608,-1.7608,-1.7608,-1.7608,-1.7608,-1.7608,-1.7608,-1.7608,-1.7608,-1.7608,-1.7608,-1.7608,-1.7608,-1.7608,-1.7608,-1.7608,-1.7608,-1.7608,-1.7608,-1.7608,-1.7608,-1.7608,-1.7608,-1.7608,-1.7608,-1.7608,-1.7608,-1.7608,-1.7608,-1.7608,-1.7608,-1.7608,-1.7608,0.0,-1.7608,-1.7608,-1.7608,-1.7608,-1.7608,-1.7648,-1.7655,-1.7655,-1.7722,-1.7836,-1.8069,-1.8089,-1.8082,-1.8122,-1.8109,-1.8229,-1.8551,-1.8844,-1.8991,-1.8991,-1.9274,-1.9395,-1.9395,-1.9395,-1.9395,-1.9395,-1.9395,-1.9395,-1.9395,-1.9395,-1.9395,-1.9395,-1.9395,-1.9241,-1.9018,-1.9308,-1.9205,-1.8991,-0.8783,-0.9092,-0.9196,-0.9349,-0.9376,-0.9427,-0.9551,-0.9595,-0.9652,-0.9741,-0.9775,-0.9792,-0.9792,-0.9852,-0.9879,-0.9879,-0.991,-1.0213,-1.0759,-1.0509,-1.033,-1.0304,-1.0042,-0.9898,-0.9871,-1.0202,-1.0363,-1.0363,-1.0582,-1.0692,-1.0692,-1.0692,-1.0692,-1.0692,-1.0692,-1.0692,-1.0719,-1.088,-1.2069,-1.3868,-1.4239,-1.5562,-1.7364,-1.7529,-1.7608,-1.7608,-1.7608,-1.7608,-1.7608,-1.7608,-1.7608,-1.7608,-1.7608,-1.7608,-1.7608,-1.7608,-1.7608,-1.7608,-1.7608,-1.7608,-1.7608,-1.7608,-1.7608,-1.7608,-1.7608,-1.7608,-1.7608,-1.7608,-1.7608,-1.7608,-1.7608,-1.7608,-1.7608,-1.7608,-1.7608,-1.7608,-1.7608,0.0,-1.7608,-1.7608,-1.7608,-1.7608,-1.7608,-1.7796,-1.7949,-1.7949,-1.821,-1.837,-1.8424,-1.8424,-1.8537,-1.875,-1.8551,-1.8564,-1.883,-1.9152,-1.9328,-1.9328,-1.9374,-1.9395,-1.9395,-1.9395,-1.9395,-1.9395,-1.9395,-1.9395,-1.9395,-1.9395,-1.9395,-1.9395,-1.9395,-1.9368,-1.9334,-1.9381,-1.9368,-1.9328,-0.916,-0.9305,-0.9352,-0.9479,-0.9503,-0.9554,-0.97,-0.9694,-0.9717,-0.9781,-0.9792,-0.9792,-0.9792,-0.9792,-0.9792,-0.9792,-0.9792,-0.994,-1.0243,-0.9986,-0.9812,-0.9812,-0.9655,-0.9651,-0.9789,-0.9954,-1.0036,-1.0036,-1.0143,-1.0308,-1.0472,-1.0472,-1.0555,-1.0692,-1.0692,-1.0692,-1.0774,-1.201,-1.3139,-1.4212,-1.5482,-1.6638,-1.7608,-1.7608,-1.7608,-1.7608,-1.7608,-1.7608,-1.7608,-1.7608,-1.7608,-1.7608,-1.7608,-1.7608,-1.7608,-1.7608,-1.7608,-1.7608,-1.7608,-1.7702,-1.7836,-1.7836,-1.7956,-1.8029,-1.7869,-1.7836,-1.7756,-1.7615,-1.7608,-1.7608,-1.7608,-1.7608,-1.7608,-1.7608,-1.7608,0.0,-1.7608,-1.7722,-1.7836,-1.7836,-1.7969,-1.807,-1.807,-1.8203,-1.8263,-1.8263,-1.841,-1.8557,-1.8718,-1.8724,-1.8858,-1.9152,-1.906,-1.9025,-1.9158,-1.9328,-1.9395,-1.9395,-1.9395,-1.9395,-1.9395,-1.9395,-1.9395,-1.9395,-1.9395,-1.9395,-1.9395,-1.9395,-1.9395,-1.9395,-1.9395,-1.9395,-1.9395,-1.9395,-1.9395,-1.9395,-0.9434,-0.9435,-0.9483,-0.9632,-0.9659,-0.9696,-0.9775,-0.9792,-0.9792,-0.9792,-0.9792,-0.9792,-0.9792,-0.9792,-0.9792,-0.9792,-0.9792,-0.9792,-0.9792,-0.9578,-0.9435,-0.9435,-0.9402,-0.9442,-0.9596,-0.9678,-0.9706,-0.9706,-0.9761,-0.9926,-1.0174,-1.0174,-1.0339,-1.061,-1.061,-1.0637,-1.0825,-1.2847,-1.3863,-1.4266,-1.6366,-1.7364,-1.7608,-1.7608,-1.7608,-1.7608,-1.7608,-1.7608,-1.7608,-1.7608,-1.7608,-1.7622,-1.7669,-1.7689,-1.7702,-1.7802,-1.7822,-1.7822,-1.7822,-1.7969,-1.8123,-1.8123,-1.8323,-1.843,-1.8176,-1.8123,-1.8056,-1.7842,-1.7822,-1.7822,-1.7822,-1.7822,-1.7822,-1.7822,0.0,-1.7822,-1.7822,-1.8003,-1.8123,-1.8123,-1.835,-1.849,-1.849,-1.8551,-1.8591,-1.8591,-1.8685,-1.8791,-1.9018,-1.9025,-1.9132,-1.9388,-1.9395,-1.9395,-1.9395,-1.9395,-1.9395,-1.9395,-1.9395,-1.9395,-1.9395,-1.9395,-1.9395,-1.9395,-1.9395,-1.9395,-1.9395,-1.9395,-1.9395,-1.9395,-1.9395,-1.9395,-1.9395,-1.9395,-1.9395,-1.9395,-0.9561,-0.9591,-0.9639,-0.9751,-0.9775,-0.9778,-0.9788,-0.9792,-0.9792,-0.9792,-0.9792,-0.9792,-0.9792,-0.9792,-0.9792,-0.9792,-0.9792,-0.9792,-0.9792,-0.968,-0.9591,-0.9591,-0.9357,-0.9129,-0.8968,-0.9268,-0.9434,-0.9434,-0.9678,-0.9816,-0.9844,-0.9844,-1.0009,-1.0339,-1.0339,-1.0476,-1.0774,-1.2014,-1.3139,-1.4212,-1.5509,-1.6664,-1.7608,-1.7608,-1.7608,-1.7608,-1.7608,-1.7608,-1.7608,-1.7608,-1.7608,-1.7629,-1.7896,-1.7955,-1.8042,-1.8343,-1.8424,-1.8424,-1.8424,-1.8437,-1.8457,-1.8457,-1.8477,-1.8484,-1.8464,-1.8457,-1.845,-1.843,-1.8424,-1.8424,-1.8424,-1.8424,-1.8424,-1.8424,0.0,0.0,-1.8424,-1.8444,-1.8457,-1.8457,-1.8477,-1.849,-1.849,-1.8731,-1.8863,-1.8863,-1.9145,-1.9341,-1.9361,-1.9361,-1.9374,-1.9395,-1.9395,-1.9395,-1.9395,-1.9395,-1.9395,-1.9395,-1.9395,-1.9395,-1.9395,-1.9395,-1.9395,-1.9395,-1.9395,-1.9395,-1.9395,-1.9395,-1.9395,-1.9395,-1.9395,-1.9395,-1.9395,-1.9395,-1.9395,-1.9395,-0.971,-0.971,-0.9727,-0.9781,-0.9792,-0.9792,-0.9792,-0.9792,-0.9792,-0.9792,-0.9792,-0.9792,-0.9792,-0.9792,-0.9792,-0.9792,-0.9792,-0.9792,-0.9792,-0.9741,-0.9659,-0.9476,-0.9294,-0.9155,-0.91,-0.9095,-0.9103,-0.9103,-0.9185,-0.9351,-0.9541,-0.9541,-0.9816,-1.0312,-1.0312,-1.0852,-1.1823,-1.2977,-1.4137,-1.5322,-1.6505,-1.7206,-1.7608,-1.7608,-1.7608,-1.7608,-1.7608,-1.7608,-1.7608,-1.7608,-1.7608,-1.7662,-1.7922,-1.7995,-1.8089,-1.8589,-1.8758,-1.8798,-1.9013,-1.8898,-1.8758,-1.8758,-1.8898,-1.8985,-1.8804,-1.8758,-1.8704,-1.8524,-1.849,-1.849,-1.849,-1.849,-1.849,-1.849,0.0,-1.849,-1.849,-1.8644,-1.8758,-1.8758,-1.8918,-1.9067,-1.9067,-1.916,-1.9199,-1.9199,-1.9334,-1.9395,-1.9395,-1.9395,-1.9395,-1.9395,-1.9395,-1.9395,-1.9395,-1.9395,-1.9395,-1.9395,-1.9395,-1.9395,-1.9395,-1.9395,-1.9395,-1.9395,-1.9395,-1.9395,-1.9395,-1.9395,-1.9395,-1.9395,-1.9395,-1.9395,-1.9395,-1.9395,-1.9395,-1.9395,-0.9771,-0.9792,-0.9792,-0.9792,-0.9792,-0.9792,-0.9792,-0.9792,-0.9792,-0.9792,-0.9792,-0.9792,-0.9792,-0.9792,-0.9792,-0.9792,-0.9792,-0.9792,-0.9792,-0.9792,-0.971,-0.9462,-0.9335,-0.923,-0.921,-0.9011,-0.8912,-0.8912,-0.8912,-0.9023,-0.9241,-0.9241,-0.9517,-1.0009,-1.0009,-1.0661,-1.1851,-1.3329,-1.4513,-1.5482,-1.6988,-1.7608,-1.7608,-1.7608,-1.7608,-1.7608,-1.7608,-1.7649,-1.7729,-1.7729,-1.7789,-1.7923,-1.8203,-1.8356,-1.8516,-1.8945,-1.9065,-1.9112,-1.9341,-1.9219,-1.9065,-1.9065,-1.9219,-1.9348,-1.9112,-1.9065,-1.9005,-1.8811,-1.8792,-1.8792,-1.8792,-1.8792,-1.8792,-1.8792,-1.8792,-1.8792,-1.8792,-1.8938,-1.9065,-1.9065,-1.9267,-1.9395,-1.9395,-1.9395,-1.9395,-1.9395,-1.9395,-1.9395,-1.9395,-1.9395,-1.9395,-1.9395,-1.9395,-1.9395,-1.9395,-1.9395,-1.9395,-1.9395,-1.9395,-1.9395,-1.9395,-1.9395,-1.9395,-1.9395,-1.9395,-1.9395,-1.9395,-1.9395,-1.9395,-1.9395,-1.9395,-1.9395,-1.9395,-1.9395,-1.9395,-1.9395,-0.9792,-0.9792,-0.9792,-0.9792,-0.9792,-0.9792,-0.9792,-0.9792,-0.9792,-0.9792,-0.9792,-0.9792,-0.9792,-0.9792,-0.9792,-0.9792,-0.9792,-0.9792,-0.9792,-0.9792,-0.9727,-0.9615,-0.9462,-0.9339,-0.9214,-0.9015,-0.8912,-0.8912,-0.8912,-0.8912,-0.8912,-0.8912,-0.9075,-0.9406,-0.9406,-0.9734,-1.0472,-1.2733,-1.3863,-1.432,-1.6664,-1.7608,-1.7608,-1.7615,-1.7615,-1.7615,-1.7615,-1.7789,-1.7995,-1.7995,-1.8216,-1.8544,-1.8831,-1.9125,-1.9395,-1.9395,-1.9395,-1.9395,-1.9395,-1.9395,-1.9395,-1.9395,-1.9395,-1.9395,-1.9395,-1.9395,-1.9395,-1.9395,-1.9395,-1.9395,-1.9395,-1.9395,-1.9395,-1.9395,-1.9395,-1.9395,-1.9395,-1.9395,-1.9395,-1.9395,-1.9395,-1.9395,-1.9395,-1.9395,-1.9395,-1.9395,-1.9395,-1.9395,-1.9395,-1.9395,-1.9395,-1.9395,-1.9395,-1.9395,-1.9395,-1.9395,-1.9395,-1.9395,-1.9395,-1.9395,-1.9395,-1.9395,-1.9395,-1.9395,-1.9395,-1.9395,-1.9395,-1.9395,-1.9395,-1.9395,-1.9395,-1.9395,-1.9395,-1.9395,-1.9395,-1.9395,-0.9792,-0.9792,-0.9792,-0.9792,-0.9792,-0.9792,-0.9792,-0.9792,-0.9792,-0.9792,-0.9792,-0.9792,-0.9792,-0.9792,-0.9792,-0.9792,-0.9792,-0.9792,-0.9792,-0.9792,-0.9771,-0.9727,-0.9618,-0.9469,-0.9345,-0.9196,-0.9042,-0.8912,-0.8912,-0.8912,-0.8912,-0.8912,-0.9075,-0.9406,-0.9406,-1.0056,-1.1246,-1.2972,-1.4207,-1.515,-1.6902,-1.7608,-1.7609,-1.7796,-1.7882,-1.7909,-1.8143,-1.8277,-1.8357,-1.8357,-1.8417,-1.8544,-1.8831,-1.9125,-1.9395,-1.9395,-1.9395,-1.9395,-1.9395,-1.9395,-1.9395,-1.9395,-1.9395,-1.9395,-1.9395,-1.9395,-1.9395,-1.9395,-1.9395,-1.9395,-1.9395,-1.9395,-1.9395,-1.9395,-1.9395,-1.9395,-1.9395,-1.9395,-1.9395,-1.9395,-1.9395,-1.9395,-1.9395,-1.9395,-1.9395,-1.9395,-1.9395,-1.9395,-1.9395,-1.9395,-1.9395,-1.9395,-1.9395,-1.9395,-1.9395,-1.9395,-1.9395,-1.9395,-1.9395,-1.9395,-1.9395,-1.9395,-1.9395,-1.9395,-1.9395,-1.9395,-1.9395,-1.9395,-1.9395,-1.9395,-1.9395,-1.9395,-1.9395,-1.9395,-1.9395,-1.9395,-0.9792,-0.9792,-0.9792,-0.9792,-0.9792,-0.9792,-0.9792,-0.9792,-0.9792,-0.9792,-0.9792,-0.9792,-0.9792,-0.9792,-0.9792,-0.9792,-0.9792,-0.9792,-0.9792,-0.9792,-0.9792,-0.9792,-0.9707,-0.9595,-0.9417,-0.926,-0.9111,-0.8912,-0.8967,-0.9022,-0.9025,-0.9086,-0.9198,-0.9395,-0.9395,-0.9918,-1.0911,-1.24,-1.3775,-1.5123,-1.6615,-1.7499,-1.7963,-1.815,-1.8196,-1.8216,-1.843,-1.8564,-1.8657,-1.8657,-1.8744,-1.8865,-1.9045,-1.9254,-1.9395,-1.9395,-1.9395,-1.9395,-1.9395,-1.9395,-1.9395,-1.9395,-1.9395,-1.9395,-1.9395,-1.9395,-1.9395,-1.9395,-1.9395,-1.9395,-1.9395,-1.9395,-1.9395,-1.9395,-1.9395,-1.9395,-1.9395,-1.9395,-1.9395,-1.9395,-1.9395,-1.9395,-1.9395,-1.9395,-1.9395,-1.9395,-1.9395,-1.9395,-1.9395,-1.9395,-1.9395,-1.9395,-1.9395,-1.9395,-1.9395,-1.9395,-1.9395,-1.9395,-1.9395,-1.9395,-1.9395,-1.9395,-1.9395,-1.9395,-1.9395,-1.9395,-1.9395,-1.9395,-1.9395,-1.9395,-1.9395,-1.9395,-1.9395,-1.9395,-1.9395,-1.9395,-0.9792,-0.9792,-0.9792,-0.9792,-0.9792,-0.9792,-0.9792,-0.9792,-0.9792,-0.9792,-0.9792,-0.9792,-0.9792,-0.9792,-0.9792,-0.9792,-0.9792,-0.9792,-0.9792,-0.9792,-0.9792,-0.9792,-0.9792,-0.969,-0.9437,-0.9294,-0.9152,-0.895,-0.9138,-0.9231,-0.9231,-0.9345,-0.941,-0.941,-0.941,-0.9526,-0.9867,-1.1491,-1.3027,-1.4509,-1.6126,-1.7458,-1.8497,-1.8517,-1.8531,-1.8537,-1.8557,-1.8738,-1.8936,-1.8936,-1.9145,-1.9395,-1.9366,-1.9366,-1.9336,-1.9307,-1.9336,-1.9336,-1.9307,-1.9336,-1.9336,-1.9307,-1.9336,-1.9366,-1.9395,-1.9395,-1.9395,-1.9395,-1.9395,-1.9395,-1.9395,-1.9395,-1.9395,-1.9395,-1.9395,-1.9395,-1.9395,-1.9395,-1.9395,-1.9395,-1.9395,-1.9395,-1.9395,-1.9395,-1.9395,-1.9395,-1.9395,-1.9395,-1.9395,-1.9395,-1.9395,-1.9395,-1.9395,-1.9395,-1.9395,-1.9395,-1.9395,-1.9395,-1.9395,-1.9395,-1.9395,-1.9395,-1.9395,-1.9395,-1.9395,-1.9395,-1.9395,-1.9395,-1.9395,-1.9395,-1.9395,-1.9395,-1.9395,-1.9395,-1.9395,-1.9395,-0.9792,-0.9792,-0.9792,-0.9792,-0.9792,-0.9792,-0.9792,-0.9792,-0.9792,-0.9792,-0.9792,-0.9792,-0.9792,-0.9792,-0.9792,-0.9792,-0.9792,-0.9792,-0.9792,-0.9792,-0.9792,-0.9792,-0.9792,-0.9737,-0.9564,-0.9527,-0.9439,-0.9286,-0.9345,-0.9362,-0.9362,-0.9393,-0.941,-0.941,-0.941,-0.9439,-0.9668,-1.2342,-1.3676,-1.4249,-1.6977,-1.8262,-1.8517,-1.8744,-1.8803,-1.8858,-1.912,-1.9247,-1.9301,-1.9301,-1.9348,-1.9336,-1.9091,-1.8997,-1.8968,-1.8684,-1.88,-1.8939,-1.8684,-1.88,-1.8939,-1.8684,-1.88,-1.9091,-1.9336,-1.9395,-1.9395,-1.9395,-1.9395,-1.9395,-1.9395,-1.9395,-1.9395,-1.9395,-1.9395,-1.9395,-1.9395,-1.9395,-1.9395,-1.9395,-1.9395,-1.9395,-1.9395,-1.9395,-1.9395,-1.9395,-1.9395,-1.9395,-1.9395,-1.9395,-1.9395,-1.9395,-1.9395,-1.9395,-1.9395,-1.9395,-1.9395,-1.9395,-1.9395,-1.9395,-1.9395,-1.9395,-1.9395,-1.9395,-1.9395,-1.9395,-1.9395,-1.9395,-1.9395,-1.9395,-1.9395,-1.9395,-1.9395,-1.9395,-1.9395,-1.9395,-0.9792,-0.9792,-0.9792,-0.9792,-0.9792,-0.9792,-0.9792,-0.9792,-0.9792,-0.9792,-0.9792,-0.9792,-0.9792,-0.9792,-0.9792,-0.9792,-0.9792,-0.9792,-0.9792,-0.9792,-0.9792,-0.9792,-0.9792,-0.9754,-0.971,-0.971,-0.9602,-0.941,-0.9456,-0.949,-0.9493,-0.9557,-0.9591,-0.9591,-0.9591,-0.9591,-0.9736,-1.2106,-1.3529,-1.4424,-1.6815,-1.8239,-1.8953,-1.9078,-1.9132,-1.9158,-1.9341,-1.9395,-1.9395,-1.9395,-1.9395,-1.9366,-1.9185,-1.9149,-1.9091,-1.8923,-1.901,-1.9091,-1.8923,-1.901,-1.9091,-1.8923,-1.9004,-1.9149,-1.9156,-1.9301,-1.9395,-1.9395,-1.9395,-1.9395,-1.9395,-1.9395,-1.9395,-1.9395,-1.9395,-1.9395,-1.9395,-1.9395,-1.9395,-1.9395,-1.9395,-1.9395,-1.9395,-1.9395,-1.9395,-1.9395,-1.9395,-1.9395,-1.9395,-1.9395,-1.9395,-1.9395,-1.9395,-1.9395,-1.9395,-1.9395,-1.9395,-1.9395,-1.9395,-1.9395,-1.9395,-1.9395,-1.9395,-1.9395,-1.9395,-1.9395,-1.9395,-1.9395,-1.9395,-1.9395,-1.9395,-1.9395,-1.9395,-1.9395,-1.9395,-1.9395,-0.9792,-0.9792,-0.9792,-0.9792,-0.9792,-0.9792,-0.9792,-0.9792,-0.9792,-0.9792,-0.9792,-0.9792,-0.9792,-0.9792,-0.9792,-0.9792,-0.9792,-0.9792,-0.9792,-0.9792,-0.9792,-0.9792,-0.9792,-0.9792,-0.9792,-0.9792,-0.97,-0.9456,-0.9585,-0.9646,-0.9649,-0.9737,-0.9792,-0.9822,-1.0031,-1.0122,-1.0243,-1.2079,-1.3655,-1.5079,-1.6691,-1.8152,-1.9395,-1.9395,-1.9395,-1.9395,-1.9395,-1.9395,-1.9395,-1.9395,-1.9395,-1.9395,-1.9336,-1.9307,-1.9307,-1.9249,-1.9278,-1.9307,-1.9249,-1.9272,-1.9307,-1.9249,-1.9272,-1.9243,-1.8968,-1.9156,-1.9395,-1.9395,-1.9395,-1.9395,-1.9395,-1.9395,-1.9395,-1.9395,-1.9395,-1.9395,-1.9395,-1.9395,-1.9395,-1.9395,-1.9395,-1.9395,-1.9395,-1.9395,-1.9395,-1.9395,-1.9395,-1.9395,-1.9395,-1.9395,-1.9395,-1.9395,-1.9395,-1.9395,-1.9395,-1.9395,-1.9395,-1.9395,-1.9395,-1.9395,-1.9395,-1.9395,-1.9395,-1.9395,-1.9395,-1.9395,-1.9395,-1.9395,-1.9395,-1.9395,-1.9395,-1.9395,-1.9395,-1.9395,-1.9395,-1.9395,-0.9792,-0.9792,-0.9792,-0.9792,-0.9792,-0.9792,-0.9792,-0.9792,-0.9792,-0.9792,-0.9792,-0.9792,-0.9792,-0.9792,-0.9792,-0.9792,-0.9792,-0.9792,-0.9792,-0.9792,-0.9792,-0.9792,-0.9792,-0.9792,-0.9792,-0.9792,-0.9771,-0.9761,-0.9751,-0.9761,-0.9761,-0.9781,-0.9792,-0.9852,-1.0936,-1.145,-1.1631,-1.4331,-1.579,-1.6391,-1.7987,-1.8946,-1.9395,-1.9395,-1.9395,-1.9395,-1.9395,-1.9395,-1.9395,-1.9395,-1.9395,-1.9336,-1.9062,-1.8968,-1.891,-1.8625,-1.8742,-1.891,-1.8625,-1.8735,-1.891,-1.8625,-1.8735,-1.8968,-1.891,-1.9156,-1.9395,-1.9395,-1.9395,-1.9395,-1.9395,-1.9395,-1.9395,-1.9395,-1.9395,-1.9395,-1.9395,-1.9395,-1.9395,-1.9395,-1.9395,-1.9395,-1.9395,-1.9395,-1.9395,-1.9395,-1.9395,-1.9395,-1.9395,-1.9395,-1.9395,-1.9395,-1.9395,-1.9395,-1.9395,-1.9395,-1.9395,-1.9395,-1.9395,-1.9395,-1.9395,-1.9395,-1.9395,-1.9395,-1.9395,-1.9395,-1.9395,-1.9395,-1.9395,-1.9395,-1.9395,-1.9395,-1.9395,-1.9395,-1.9395,-1.9395,-0.9792,-0.9792,-0.9792,-0.9792,-0.9792,-0.9792,-0.9792,-0.9792,-0.9792,-0.9792,-0.9792,-0.9792,-0.9792,-0.9792,-0.9792,-0.9792,-0.9792,-0.9792,-0.9792,-0.9792,-0.9792,-0.9792,-0.9792,-0.9792,-0.9792,-0.9792,-0.9792,-0.9792,-0.9792,-0.9792,-0.9792,-0.9792,-0.9792,-0.9852,-1.1118,-1.1692,-1.1903,-1.4777,-1.6203,-1.6626,-1.8256,-1.9091,-1.9395,-1.9395,-1.9395,-1.9395,-1.9395,-1.9395,-1.9395,-1.9395,-1.9395,-1.9366,-1.9243,-1.9178,-1.9156,-1.901,-1.9068,-1.9156,-1.901,-1.9068,-1.9156,-1.901,-1.9068,-1.9178,-1.9178,-1.9301,-1.9395,-1.9395,-1.9395,-1.9395,-1.9395,-1.9395,-1.9395,-1.9395,-1.9395,-1.9395,-1.9395,-1.9395,-1.9395,-1.9395,-1.9395,-1.9395,-1.9395,-1.9395,-1.9461,-1.9599,-1.9606,-1.9679,-1.9846,-1.9853,-1.9853,-1.9853,-1.9853,-1.9853,-1.9853,-1.9686,-1.9606,-1.9606,-1.9475,-1.9395,-1.9395,-1.9395,-1.9395,-1.9395,-1.9395,-1.9395,-1.9395,-1.9395,-1.9395,-1.9395,-1.9395,-1.9395,-1.9395,-1.9395,-1.9395,-1.9395]},{"header":{"parameterUnit":"m.s-1","parameterCategory":1,"la1":30.6,"la2":28.766,"lo1":-90.7593,"lo2":-88.6598,"dy":0.0162,"dx":0.0183,"nx":116,"ny":114,"refTime":"2023-04-03T18:00:00:Z","depth":0,"parameterNumber":3,"parameterNumberName":"V-component_of_WINDS"},"data":[0.0,0.0,0.0,0.0,0.0,0.0,0.0,0.0,0.0,0.0,0.0,0.0,0.0,0.0,0.0,0.0,0.0,0.0,0.0,0.0,0.0,0.0,0.0,0.0,0.0,0.0,0.0,0.0,0.0,0.0,0.0,0.0,0.0,0.0,0.0,0.0,0.0,0.0,0.0,0.0,0.0,0.0,0.0,0.0,0.0,0.0,0.0,0.0,0.0,0.0,0.0,0.0,0.0,0.0,0.0,0.0,0.0,0.0,0.0,0.0,0.0,0.0,0.0,0.0,0.0,0.0,0.0,0.0,0.0,0.0,0.0,0.0,0.0,0.0,0.0,0.0,0.0,0.0,0.0,0.0,0.0,0.0,0.0,0.0,0.0,0.0,0.0,0.0,0.0,0.0,0.0,0.0,0.0,0.0,0.0,0.0,0.0,0.0,0.0,0.0,0.0,0.0,0.0,0.0,0.0,0.0,0.0,0.0,0.0,0.0,0.0,0.0,0.0,0.0,0.0,0.0,0.0,0.0,0.0,0.0,0.0,0.0,0.0,0.0,0.0,0.0,0.0,0.0,0.0,0.0,0.0,0.0,0.0,0.0,0.0,0.0,0.0,0.0,0.0,0.0,0.0,0.0,0.0,0.0,0.0,0.0,0.0,0.0,0.0,0.0,0.0,0.0,0.0,0.0,0.0,0.0,0.0,0.0,0.0,0.0,0.0,0.0,0.0,0.0,0.0,0.0,0.0,0.0,0.0,0.0,0.0,0.0,0.0,0.0,0.0,0.0,0.0,0.0,0.0,0.0,0.0,0.0,0.0,0.0,0.0,0.0,0.0,0.0,0.0,0.0,0.0,0.0,0.0,0.0,0.0,0.0,0.0,0.0,0.0,0.0,0.0,0.0,0.0,0.0,0.0,0.0,0.0,0.0,0.0,0.0,0.0,0.0,0.0,0.0,0.0,0.0,0.0,0.0,0.0,0.0,0.0,0.0,0.0,0.0,0.0,0.0,0.0,0.0,0.0,0.0,0.0,0.0,0.0,0.0,0.0,0.0,0.0,0.0,0.0,0.0,0.0,0.0,0.0,0.0,0.0,0.0,0.0,0.0,0.0,0.0,0.0,0.0,0.0,0.0,0.0,0.0,0.0,0.0,0.0,0.0,0.0,0.0,0.0,0.0,0.0,0.0,0.0,0.0,0.0,0.0,0.0,0.0,0.0,0.0,0.0,0.0,0.0,0.0,0.0,0.0,0.0,0.0,0.0,0.0,0.0,0.0,0.0,0.0,0.0,0.0,0.0,0.0,0.0,0.0,0.0,0.0,0.0,0.0,0.0,0.0,0.0,0.0,0.0,0.0,0.0,0.0,0.0,0.0,0.0,0.0,0.0,0.0,0.0,0.0,0.0,0.0,0.0,0.0,0.0,0.0,0.0,0.0,0.0,0.0,0.0,0.0,0.0,0.0,0.0,0.0,0.0,0.0,0.0,0.0,0.0,0.0,0.0,0.0,0.0,0.0,0.0,0.0,0.0,0.0,0.0,0.0,0.0,0.0,0.0,0.0,0.0,0.0,0.0,0.0,0.0,0.0,0.0,0.0,0.0,0.0,0.0,0.0,0.0,0.0,0.0,0.0,0.0,0.0,0.0,0.0,0.0,0.0,0.0,0.0,0.0,0.0,0.0,0.0,0.0,0.0,0.0,0.0,0.0,0.0,0.0,0.0,0.0,0.0,0.0,0.0,0.0,0.0,0.0,0.0,0.0,0.0,0.0,0.0,0.0,0.0,0.0,0.0,0.0,0.0,0.0,0.0,0.0,0.0,0.0,0.0,0.0,0.0,0.0,0.0,0.0,0.0,0.0,0.0,0.0,0.0,0.0,0.0,0.0,0.0,0.0,0.0,0.0,0.0,0.0,0.0,0.0,0.0,0.0,0.0,0.0,0.0,0.0,0.0,0.0,0.0,0.0,0.0,0.0,0.0,0.0,0.0,0.0,0.0,0.0,0.0,0.0,0.0,0.0,0.0,0.0,0.0,0.0,0.0,0.0,0.0,0.0,0.0,0.0,0.0,0.0,0.0,0.0,0.0,0.0,0.0,0.0,0.0,0.0,0.0,0.0,0.0,0.0,0.0,0.0,0.0,0.0,0.0,0.0,0.0,0.0,0.0,0.0,0.0,0.0,0.0,0.0,0.0,0.0,0.0,0.0,0.0,0.0,0.0,0.0,0.0,0.0,0.0,0.0,0.0,0.0,0.0,0.0,0.0,0.0,0.0,0.0,0.0,0.0,0.0,0.0,0.0,0.0,0.0,0.0,0.0,0.0,0.0,0.0,0.0,0.0,0.0,0.0,0.0,0.0,0.0,0.0,0.0,0.0,0.0,0.0,0.0,0.0,0.0,0.0,0.0,0.0,0.0,0.0,0.0,0.0,0.0,0.0,0.0,0.0,0.0,0.0,0.0,0.0,0.0,0.0,0.0,0.0,0.0,0.0,0.0,0.0,0.0,0.0,0.0,0.0,0.0,0.0,0.0,0.0,0.0,0.0,0.0,0.0,0.0,0.0,0.0,0.0,0.0,0.0,0.0,0.0,0.0,0.0,0.0,0.0,0.0,0.0,0.0,0.0,0.0,0.0,0.0,0.0,0.0,0.0,0.0,0.0,0.0,0.0,0.0,0.0,0.0,0.0,0.0,0.0,0.0,0.0,0.0,0.0,0.0,0.0,0.0,0.0,0.0,0.0,0.0,0.0,0.0,0.0,0.0,0.0,0.0,0.0,0.0,0.0,0.0,0.0,0.0,0.0,0.0,0.0,0.0,0.0,0.0,0.0,0.0,0.0,0.0,0.0,0.0,0.0,0.0,0.0,0.0,0.0,0.0,0.0,0.0,0.0,0.0,0.0,0.0,0.0,0.0,0.0,0.0,0.0,0.0,0.0,0.0,0.0,0.0,0.0,0.0,0.0,0.0,0.0,0.0,0.0,0.0,0.0,0.0,0.0,0.0,0.0,0.0,0.0,0.0,0.0,0.0,0.0,0.0,0.0,0.0,0.0,0.0,0.0,0.0,0.0,0.0,0.0,0.0,0.0,0.0,0.0,0.0,0.0,0.0,0.0,0.0,0.0,0.0,0.0,0.0,0.0,0.0,0.0,0.0,0.0,0.0,0.0,0.0,0.0,0.0,0.0,0.0,0.0,0.0,0.0,0.0,0.0,0.0,0.0,0.0,0.0,0.0,0.0,0.0,0.0,0.0,0.0,0.0,0.0,0.0,0.0,0.0,0.0,0.0,0.0,0.0,0.0,0.0,0.0,0.0,0.0,0.0,0.0,0.0,0.0,0.0,0.0,0.0,0.0,0.0,0.0,0.0,0.0,0.0,0.0,0.0,0.0,0.0,0.0,0.0,0.0,0.0,0.0,0.0,0.0,0.0,0.0,0.0,0.0,0.0,0.0,0.0,0.0,0.0,0.0,0.0,0.0,0.0,0.0,0.0,0.0,0.0,0.0,0.0,0.0,0.0,0.0,0.0,0.0,0.0,0.0,0.0,0.0,0.0,0.0,0.0,0.0,0.0,0.0,0.0,0.0,0.0,0.0,0.0,0.0,0.0,0.0,0.0,0.0,0.0,0.0,0.0,0.0,0.0,0.0,0.0,0.0,0.0,0.0,0.0,0.0,0.0,0.0,0.0,0.0,0.0,0.0,0.0,0.0,0.0,0.0,0.0,0.0,0.0,0.0,0.0,0.0,0.0,0.0,0.0,0.0,0.0,0.0,0.0,0.0,0.0,0.0,0.0,0.0,0.0,0.0,0.0,0.0,0.0,0.0,0.0,0.0,0.0,0.0,0.0,0.0,0.0,0.0,0.0,0.0,0.0,0.0,0.0,0.0,0.0,0.0,0.0,0.0,0.0,0.0,0.0,0.0,0.0,0.0,0.0,0.0,0.0,0.0,0.0,0.0,0.0,0.0,0.0,0.0,0.0,0.0,0.0,0.0,0.0,0.0,0.0,0.0,0.0,0.0,0.0,0.0,0.0,0.0,0.0,0.0,0.0,0.0,0.0,0.0,0.0,0.0,0.0,0.0,0.0,0.0,0.0,0.0,0.0,0.0,0.0,0.0,0.0,0.0,0.0,0.0,0.0,0.0,0.0,0.0,0.0,0.0,0.0,0.0,0.0,0.0,0.0,0.0,0.0,0.0,0.0,0.0,0.0,0.0,0.0,0.0,0.0,0.0,0.0,0.0,0.0,0.0,0.0,0.0,0.0,0.0,0.0,0.0,0.0,0.0,0.0,0.0,0.0,0.0,0.0,0.0,0.0,0.0,0.0,0.0,0.0,0.0,0.0,0.0,0.0,0.0,0.0,0.0,0.0,0.0,0.0,0.0,0.0,0.0,0.0,0.0,0.0,0.0,0.0,0.0,0.0,0.0,0.0,0.0,0.0,0.0,0.0,0.0,0.0,0.0,0.0,0.0,0.0,0.0,0.0,0.0,0.0,0.0,0.0,0.0,0.0,0.0,0.0,0.0,0.0,0.0,0.0,0.0,0.0,0.0,0.0,0.0,0.0,0.0,0.0,0.0,0.0,0.0,0.0,0.0,0.0,0.0,0.0,0.0,0.0,0.0,0.0,0.0,0.0,0.0,0.0,0.0,0.0,0.0,0.0,0.0,0.0,0.0,0.0,0.0,0.0,0.0,0.0,0.0,0.0,0.0,0.0,0.0,0.0,0.0,0.0,0.0,0.0,0.0,0.0,0.0,0.0,0.0,0.0,0.0,0.0,0.0,0.0,0.0,0.0,0.0,0.0,0.0,0.0,0.0,0.0,0.0,0.0,0.0,0.0,0.0,0.0,0.0,0.0,0.0,0.0,0.0,0.0,0.0,0.0,0.0,0.0,0.0,0.0,0.0,0.0,0.0,0.0,0.0,0.0,0.0,0.0,0.0,0.0,0.0,0.0,0.0,0.0,0.0,0.0,0.0,0.0,0.0,0.0,0.0,0.0,0.0,0.0,0.0,0.0,0.0,0.0,0.0,0.0,0.0,0.0,0.0,0.0,0.0,0.0,0.0,0.0,0.0,0.0,0.0,0.0,0.0,0.0,0.0,0.0,0.0,0.0,0.0,0.0,0.0,0.0,0.0,0.0,0.0,0.0,0.0,0.0,0.0,0.0,0.0,0.0,0.0,0.0,0.0,0.0,0.0,0.0,0.0,0.0,0.0,0.0,0.0,0.0,0.0,0.0,0.0,0.0,0.0,0.0,0.0,0.0,0.0,0.0,0.0,0.0,0.0,0.0,0.0,0.0,0.0,0.0,0.0,0.0,0.0,0.0,0.0,0.0,0.0,0.0,0.0,0.0,0.0,0.0,0.0,0.0,0.0,0.0,0.0,0.0,0.0,0.0,0.0,0.0,0.0,0.0,0.0,0.0,0.0,0.0,0.0,0.0,0.0,0.0,0.0,0.0,0.0,0.0,0.0,0.0,0.0,0.0,0.0,0.0,0.0,0.0,0.0,0.0,0.0,0.0,0.0,0.0,0.0,0.0,0.0,0.0,0.0,0.0,0.0,0.0,0.0,0.0,0.0,0.0,0.0,0.0,0.0,0.0,0.0,0.0,0.0,0.0,0.0,0.0,0.0,0.0,0.0,0.0,0.0,0.0,0.0,0.0,0.0,0.0,0.0,0.0,0.0,0.0,0.0,0.0,0.0,0.0,0.0,0.0,0.0,0.0,0.0,0.0,0.0,0.0,0.0,0.0,0.0,0.0,0.0,0.0,0.0,0.0,0.0,0.0,0.0,0.0,0.0,0.0,0.0,0.0,0.0,0.0,0.0,0.0,0.0,0.0,0.0,0.0,0.0,0.0,0.0,0.0,0.0,0.0,0.0,0.0,0.0,0.0,0.0,0.0,0.0,0.0,0.0,0.0,0.0,0.0,0.0,0.0,0.0,0.0,0.0,0.0,0.0,0.0,0.0,0.0,0.0,0.0,0.0,0.0,0.0,0.0,0.0,0.0,0.0,0.0,0.0,0.0,0.0,0.0,0.0,0.0,0.0,0.0,0.0,0.0,0.0,0.0,0.0,0.0,0.0,0.0,0.0,0.0,0.0,0.0,0.0,0.0,0.0,0.0,0.0,0.0,3.9651,3.9501,0.0,0.0,0.0,0.0,0.0,0.0,0.0,0.0,0.0,0.0,0.0,0.0,0.0,0.0,0.0,0.0,0.0,0.0,0.0,0.0,0.0,0.0,0.0,0.0,0.0,0.0,0.0,0.0,0.0,0.0,0.0,0.0,0.0,0.0,0.0,0.0,0.0,0.0,3.646,3.6507,3.6507,3.6507,3.6507,3.6507,0.0,0.0,0.0,0.0,0.0,0.0,0.0,0.0,0.0,0.0,0.0,0.0,0.0,0.0,0.0,0.0,0.0,0.0,0.0,0.0,0.0,0.0,0.0,0.0,0.0,0.0,0.0,0.0,0.0,0.0,0.0,0.0,0.0,0.0,0.0,0.0,0.0,0.0,0.0,0.0,0.0,0.0,0.0,0.0,0.0,0.0,0.0,0.0,0.0,0.0,0.0,0.0,0.0,0.0,0.0,0.0,0.0,0.0,0.0,0.0,0.0,0.0,0.0,0.0,0.0,0.0,0.0,0.0,0.0,0.0,3.9902,3.9849,0.0,0.0,0.0,0.0,0.0,0.0,0.0,0.0,0.0,0.0,0.0,0.0,0.0,0.0,0.0,0.0,0.0,0.0,0.0,0.0,0.0,0.0,0.0,3.5504,3.5504,3.5504,3.5504,3.5504,0.0,0.0,0.0,0.0,0.0,0.0,0.0,3.6179,3.6289,3.6507,3.663,3.6661,3.6692,3.6784,3.6846,3.6862,3.7138,0.0,0.0,0.0,0.0,0.0,0.0,0.0,0.0,0.0,0.0,0.0,0.0,0.0,0.0,0.0,0.0,0.0,0.0,0.0,0.0,0.0,0.0,0.0,0.0,0.0,0.0,0.0,0.0,0.0,0.0,0.0,0.0,0.0,0.0,0.0,0.0,0.0,0.0,0.0,0.0,0.0,0.0,0.0,0.0,0.0,0.0,0.0,0.0,0.0,0.0,0.0,0.0,0.0,0.0,0.0,0.0,0.0,0.0,0.0,0.0,0.0,0.0,0.0,4.0191,4.031,4.0293,4.0293,4.0339,4.0375,4.012,4.0182,4.0506,4.0515,0.0,0.0,0.0,0.0,0.0,0.0,0.0,0.0,0.0,0.0,0.0,0.0,0.0,0.0,0.0,0.0,0.0,0.0,0.0,0.0,0.0,3.5504,3.5504,3.5504,3.5504,3.5504,3.5504,0.0,0.0,0.0,0.0,0.0,3.6021,3.6037,3.6179,3.6507,3.7076,3.7369,3.7384,3.7969,3.8246,3.8185,3.7109,3.7777,3.9694,0.0,0.0,0.0,0.0,0.0,0.0,0.0,0.0,0.0,0.0,0.0,0.0,0.0,0.0,0.0,0.0,0.0,0.0,0.0,0.0,0.0,0.0,0.0,0.0,0.0,0.0,0.0,0.0,0.0,0.0,0.0,0.0,0.0,0.0,0.0,0.0,0.0,0.0,0.0,0.0,0.0,4.1405,4.1427,0.0,0.0,0.0,0.0,0.0,0.0,0.0,0.0,0.0,0.0,0.0,0.0,0.0,4.1747,4.0901,4.1165,4.0941,4.0249,4.0272,4.0306,4.0296,4.0296,4.0346,4.0407,4.0357,0.0,4.0495,4.0556,0.0,0.0,0.0,0.0,0.0,0.0,0.0,0.0,0.0,0.0,0.0,0.0,0.0,0.0,0.0,0.0,0.0,0.0,0.0,0.0,0.0,3.5504,3.5504,3.5504,3.5848,3.5893,3.5534,3.5848,0.0,0.0,0.0,3.5941,3.6258,3.6273,3.6551,3.7061,3.7353,3.7692,3.8077,3.8353,3.8883,3.9533,3.8591,3.8779,3.9804,4.0604,0.0,0.0,0.0,0.0,0.0,0.0,0.0,0.0,0.0,0.0,0.0,0.0,0.0,0.0,0.0,0.0,0.0,0.0,0.0,0.0,0.0,0.0,0.0,0.0,0.0,0.0,0.0,0.0,0.0,0.0,0.0,0.0,0.0,0.0,0.0,0.0,0.0,0.0,0.0,4.2899,4.2925,4.3114,4.2824,4.2633,0.0,0.0,0.0,0.0,0.0,0.0,0.0,0.0,0.0,4.3046,4.3168,4.2865,4.2065,4.1685,4.1328,4.0979,4.0516,4.0301,4.029,4.029,4.0345,4.0392,4.048,4.0527,4.056,4.0548,4.0574,4.0612,0.0,0.0,0.0,0.0,3.9274,3.8823,0.0,0.0,0.0,0.0,0.0,0.0,0.0,0.0,0.0,0.0,0.0,0.0,3.5504,3.5504,3.5579,3.5744,3.6074,3.6119,3.5774,3.6058,3.6146,3.5925,3.591,3.6084,3.6429,3.6645,3.6999,3.7507,3.7846,3.8343,3.9001,3.9022,3.9705,4.0921,4.0478,4.0395,4.0687,4.1735,4.1861,4.1358,0.0,0.0,0.0,0.0,0.0,0.0,0.0,0.0,0.0,0.0,0.0,0.0,0.0,0.0,0.0,0.0,0.0,0.0,0.0,0.0,0.0,0.0,0.0,0.0,0.0,0.0,0.0,0.0,0.0,0.0,0.0,0.0,0.0,0.0,0.0,0.0,0.0,4.4239,4.4242,4.4491,4.4227,4.4035,0.0,0.0,0.0,0.0,0.0,0.0,4.5114,4.5131,4.4867,4.4287,4.4249,4.3894,4.3114,4.2469,4.1915,4.15,4.0883,4.0496,4.0308,4.0308,4.0331,4.0383,4.0519,4.057,4.06,4.062,4.0662,4.0729,4.076,4.0783,4.0735,4.0161,3.9956,3.9834,0.0,0.0,0.0,0.0,0.0,0.0,0.0,0.0,0.0,0.0,0.0,3.5504,3.5504,3.5504,3.5759,3.6387,3.5893,3.5804,3.6419,3.5893,3.56,3.5704,3.572,3.5863,3.6211,3.7028,3.7461,3.7507,3.8768,3.9734,4.0403,4.0399,4.11,4.2392,4.236,4.2835,4.3557,4.1617,4.1676,4.2948,4.1521,0.0,0.0,0.0,0.0,0.0,0.0,0.0,0.0,0.0,0.0,0.0,0.0,0.0,0.0,0.0,0.0,0.0,0.0,0.0,0.0,0.0,0.0,0.0,0.0,0.0,0.0,0.0,0.0,0.0,0.0,0.0,0.0,0.0,0.0,0.0,0.0,0.0,0.0,4.487,4.4577,0.0,0.0,0.0,0.0,4.4499,4.4857,4.5114,4.5186,4.5192,4.5219,4.5239,4.522,4.4814,4.3949,4.3892,4.3075,4.15,4.1461,4.1036,4.0306,4.0306,4.03,4.0306,4.0446,4.0531,4.062,4.0865,4.09,4.081,4.0935,4.09,4.08,4.0903,4.0929,4.0802,0.0,0.0,0.0,0.0,0.0,0.0,0.0,0.0,3.5504,3.5504,3.5504,3.5669,3.6088,3.6133,3.6387,3.703,3.6866,3.6656,3.6508,3.6352,3.6169,3.5894,3.599,3.6346,3.7027,3.7337,3.8133,3.9438,3.9923,4.0703,4.1788,4.1789,4.2269,4.3151,4.3151,4.3687,4.4551,4.3783,4.3355,4.3138,4.2603,4.2068,0.0,0.0,0.0,0.0,0.0,0.0,0.0,0.0,0.0,0.0,0.0,0.0,0.0,0.0,0.0,0.0,0.0,0.0,0.0,0.0,0.0,0.0,0.0,0.0,0.0,0.0,0.0,0.0,0.0,0.0,0.0,0.0,0.0,0.0,0.0,0.0,0.0,4.4895,4.4789,0.0,4.472,4.4777,4.4839,4.4881,4.5061,4.5192,4.527,4.5251,4.5281,4.5302,4.5302,4.5149,4.4838,4.4279,4.3701,4.3095,4.2584,4.2183,4.1891,4.1323,4.1114,4.1184,4.0796,4.0688,4.0807,4.0995,4.1003,4.0937,4.0982,4.1004,4.1004,4.1042,4.1068,4.1012,0.0,0.0,0.0,0.0,0.0,0.0,0.0,0.0,3.5504,3.5504,3.5504,3.5759,3.6434,3.6508,3.6731,3.736,3.721,3.7015,3.6806,3.6487,3.6412,3.6656,3.6867,3.715,3.7492,3.7938,3.8829,4.0158,4.0393,4.1181,4.2505,4.2269,4.2769,4.3854,4.3601,4.4054,4.4991,4.4991,4.4446,4.3552,4.3293,4.2879,4.2314,0.0,0.0,0.0,0.0,0.0,0.0,0.0,0.0,0.0,0.0,0.0,0.0,0.0,0.0,0.0,0.0,0.0,0.0,0.0,0.0,0.0,0.0,0.0,0.0,0.0,0.0,0.0,0.0,0.0,0.0,0.0,0.0,0.0,0.0,4.4895,4.4895,4.4895,4.4913,4.4925,4.4925,4.5009,4.5091,4.5131,4.5192,4.524,4.5302,4.5302,4.5302,4.5302,4.5302,4.5302,4.5302,4.4723,4.4298,4.3987,4.3532,4.3149,4.2847,4.2325,4.2112,4.2188,4.1774,4.1667,4.1765,4.1599,4.1511,4.1433,4.1141,4.1065,4.1109,4.1109,4.1109,4.1091,0.0,0.0,0.0,0.0,0.0,0.0,0.0,3.5504,3.5504,3.5504,3.5519,3.5789,3.6464,3.6523,3.6761,3.7389,3.6851,3.6763,3.7375,3.6207,3.6237,3.7899,3.8295,3.8168,3.7584,3.883,3.9524,3.9589,4.0252,4.1243,4.2552,4.1901,4.2661,4.457,4.3854,4.4069,4.4991,4.4991,4.4738,4.4276,4.3534,4.3224,4.3138,0.0,0.0,0.0,0.0,0.0,0.0,0.0,0.0,0.0,0.0,0.0,0.0,0.0,0.0,0.0,0.0,0.0,0.0,0.0,0.0,0.0,0.0,0.0,0.0,0.0,0.0,0.0,0.0,0.0,0.0,0.0,0.0,0.0,4.4895,4.4914,4.4933,4.4914,4.5012,4.5067,4.5054,4.5163,4.5235,4.5235,4.5289,4.5302,4.5302,4.5302,4.5302,4.5302,4.5302,4.5302,4.5302,4.5302,4.4876,4.405,4.4243,4.3897,4.3087,4.318,4.3234,4.3247,4.3369,4.3437,4.3448,4.2746,4.2445,4.2356,4.144,4.1109,4.1109,4.1109,4.1109,4.1095,0.0,0.0,0.0,0.0,0.0,0.0,0.0,3.5504,3.5504,3.5504,3.5923,3.6447,3.709,3.715,3.7419,3.8063,3.7137,3.6828,3.7577,3.652,3.6384,3.7592,3.7736,3.8138,3.8938,3.9307,4.0211,4.1694,4.1869,4.2661,4.4035,4.3829,4.4049,4.4584,4.4398,4.4564,4.4991,4.4991,4.5033,4.5031,4.4298,4.4,4.3845,0.0,0.0,0.0,0.0,0.0,0.0,0.0,0.0,0.0,0.0,0.0,0.0,0.0,0.0,0.0,0.0,0.0,0.0,0.0,0.0,0.0,0.0,0.0,0.0,0.0,0.0,0.0,0.0,0.0,0.0,0.0,4.5426,4.5615,4.499,4.5445,4.5634,4.5037,4.6061,4.6605,4.6063,4.6081,4.6145,4.6145,4.5614,4.5302,4.5302,4.5302,4.5302,4.5302,4.5302,4.5302,4.5302,4.5302,4.5187,4.4939,4.5092,4.5032,4.4791,4.4347,4.4191,4.4255,4.3713,4.3548,4.3628,4.3438,4.3331,4.3197,4.1694,4.1109,4.1109,4.1109,4.1102,4.1092,0.0,0.0,0.0,0.0,0.0,0.0,0.0,3.5504,3.5504,3.5504,3.5833,3.6312,3.6956,3.7015,3.718,3.7571,3.715,3.6976,3.7182,3.7239,3.7289,3.7364,3.8259,3.8984,3.9491,4.0056,4.0901,4.2078,4.2363,4.3241,4.4637,4.4301,4.4478,4.5058,4.4736,4.4751,4.4991,4.4991,4.514,4.5363,4.4941,4.4751,4.463,4.3418,4.3113,4.3252,4.2741,4.2786,4.3175,4.3632,0.0,0.0,0.0,0.0,0.0,0.0,0.0,0.0,0.0,0.0,0.0,0.0,0.0,0.0,0.0,0.0,0.0,0.0,0.0,0.0,0.0,0.0,0.0,0.0,4.5677,4.6069,4.56,4.6227,4.6581,4.6134,4.6976,4.7424,4.6984,4.7003,4.689,4.6527,4.6064,4.5665,4.5321,4.5302,4.5302,4.5302,4.5302,4.5302,4.5302,4.5356,4.5381,4.5386,4.5618,4.571,4.5694,4.5355,4.5245,4.5297,4.483,4.4697,4.4763,4.4398,4.4247,0.0,0.0,0.0,0.0,0.0,4.1091,4.1094,0.0,0.0,0.0,0.0,0.0,0.0,0.0,3.5504,3.5504,3.5504,3.5564,3.5833,3.6449,3.6508,3.6508,3.6508,3.7002,3.7111,3.6607,3.8058,3.8463,3.7389,3.9299,4.0218,3.9873,4.1038,4.1749,4.1977,4.259,4.359,4.4909,4.4212,4.4574,4.5805,4.5156,4.4952,4.5128,4.5138,4.5253,4.5397,4.5397,4.5397,4.5311,4.4591,4.4429,4.4545,4.4073,4.3667,4.3397,4.3618,0.0,0.0,0.0,0.0,0.0,0.0,0.0,0.0,0.0,0.0,0.0,0.0,0.0,0.0,0.0,0.0,0.0,0.0,0.0,0.0,0.0,0.0,0.0,0.0,4.5871,4.6509,4.6669,4.7331,4.7756,4.7633,4.7832,4.7957,4.7867,4.7918,4.7584,4.6705,4.6552,4.6156,4.534,0.0,0.0,0.0,0.0,4.5334,4.5336,4.546,4.5524,4.5528,4.5851,4.5999,4.6004,4.6142,4.6208,4.6204,4.6206,4.6242,4.6246,4.5465,4.5083,4.4821,4.3182,4.2479,4.2307,4.1523,4.1171,4.109,0.0,0.0,0.0,0.0,0.0,0.0,0.0,3.5504,3.5504,3.5504,3.5968,3.6359,3.6493,3.6508,3.6508,3.6508,3.6717,3.69,3.7041,3.8033,3.8486,3.8258,3.9182,4.0428,4.2039,4.2348,4.3296,4.4974,4.5099,4.5585,4.6404,4.622,4.6311,4.6597,4.6544,4.6294,4.59,4.6004,4.5797,4.5397,4.5397,4.5397,4.5311,4.4591,4.4459,4.46,4.4085,4.4395,4.5022,4.4855,4.4687,4.4483,4.4099,4.3577,0.0,0.0,0.0,0.0,0.0,0.0,0.0,0.0,0.0,0.0,0.0,0.0,0.0,0.0,0.0,0.0,0.0,0.0,0.0,4.5922,4.6781,4.7621,4.8397,4.9178,4.9185,4.7844,4.8885,4.9487,4.889,4.885,4.8487,4.7603,4.6896,4.6156,4.534,4.5302,4.5346,4.5451,4.546,4.5511,4.5615,4.5645,4.5664,4.5664,0.0,0.0,4.6004,4.6142,4.6208,4.6204,4.6198,4.6232,4.6286,4.6119,4.5591,4.4823,4.3769,4.2968,4.2363,4.2158,4.1624,4.1024,0.0,0.0,0.0,0.0,0.0,0.0,0.0,3.5504,3.5504,3.5504,3.5789,3.5998,3.5998,3.5998,3.5998,3.5998,3.6118,3.6771,3.8104,3.8327,3.8578,3.8984,3.9967,4.0988,4.208,4.3154,4.4199,4.5249,4.5968,4.6656,4.7329,4.6972,4.7005,4.7344,4.71,4.6666,4.6108,4.6237,4.5944,4.5397,4.5397,4.5397,4.5363,4.4979,4.5018,4.5227,4.5101,4.5064,4.5109,4.5096,4.468,4.4119,4.3879,4.3633,4.3426,0.0,0.0,0.0,0.0,0.0,0.0,0.0,0.0,0.0,0.0,0.0,0.0,0.0,0.0,4.504,0.0,0.0,4.5946,4.6842,4.771,4.8431,4.897,4.9722,4.9901,4.9104,4.9739,5.0114,4.9748,4.9691,4.9175,4.7908,4.7456,4.6718,4.5462,4.546,4.5537,4.5603,4.5607,4.5627,4.5707,4.5796,4.585,4.5853,4.603,4.6096,4.6098,4.616,4.6208,4.6204,4.6194,4.6224,4.6259,4.625,4.5976,4.5499,4.5036,4.4082,4.2997,4.2922,4.2614,4.2193,0.0,0.0,0.0,0.0,0.0,0.0,0.0,3.5504,3.5504,3.5504,3.5504,3.5504,3.5538,3.5538,3.563,3.5815,3.5825,3.6731,3.8918,3.8734,3.8883,3.9646,4.0982,4.1818,4.2124,4.3819,4.483,4.5101,4.6397,4.7327,4.7887,4.7445,4.7547,4.809,4.7672,4.7053,4.6327,4.6505,4.6126,4.5397,4.5397,4.5463,4.555,4.5559,4.5714,4.5895,4.5949,4.5551,4.5,4.4903,4.4225,4.3388,4.3242,4.3357,4.3538,4.357,4.3761,0.0,0.0,0.0,0.0,0.0,0.0,0.0,0.0,0.0,4.4952,4.5122,4.5141,4.5425,4.6353,4.6523,4.6832,4.7782,4.8494,4.9026,4.9346,4.9897,5.0298,5.0394,5.0361,5.0352,5.0352,5.0377,4.9772,4.8259,4.8255,4.7578,4.5877,4.5893,4.5895,4.5767,4.5767,4.5761,4.5809,4.5966,4.6032,4.6032,4.6148,4.6197,4.6197,4.6197,4.6208,4.6206,4.6203,4.6198,4.6194,4.6208,4.6185,4.6187,4.6122,4.5262,4.4037,4.3833,4.3656,4.3395,0.0,0.0,0.0,0.0,0.0,0.0,0.0,0.0,3.5504,3.5504,3.5504,3.5554,3.5671,3.5672,3.6042,3.6939,3.6484,3.6839,3.8474,3.9059,3.9677,4.0354,4.1677,4.3001,4.4309,4.4577,4.5307,4.6579,4.7383,4.7819,4.7921,4.8494,4.8798,4.8883,4.9133,4.8414,4.7096,4.7409,4.6711,4.5397,4.5397,4.5693,4.6124,4.6188,4.6188,4.6074,4.5372,4.5559,4.5904,4.4514,4.4088,4.4062,4.3406,4.3214,4.3295,4.3538,4.3712,4.391,4.4368,4.4666,4.4858,4.4889,4.4895,4.4895,0.0,0.0,4.5122,4.588,4.6051,4.6304,4.7125,4.7327,4.7675,4.8617,4.89,4.9322,5.0292,5.0495,5.0601,5.0737,5.0648,5.0576,5.0576,5.0678,5.0371,4.9467,4.9405,4.8663,4.693,4.6848,4.6584,4.5997,4.5961,4.6027,4.6133,4.6162,4.6185,4.6185,4.6194,4.6197,4.6197,4.6197,4.6208,4.6209,4.6193,4.6208,4.6191,4.6201,4.6167,4.6112,4.6103,4.5944,4.5641,4.4912,4.4169,4.3484,0.0,0.0,0.0,0.0,0.0,0.0,0.0,0.0,0.0,3.5621,3.5621,3.5638,3.5688,3.5799,3.6231,3.7111,3.6593,3.7184,3.9513,3.9566,4.015,4.1597,4.2575,4.336,4.3992,4.4848,4.556,4.616,4.6904,4.7259,4.7276,4.7581,4.7716,4.7731,4.8026,4.7574,4.6584,4.6925,4.6427,4.5423,4.5727,4.602,4.6244,4.6069,4.6121,4.6212,4.5873,4.5614,0.0,4.4656,4.4297,4.4071,4.3766,4.3664,4.3705,4.3942,4.4051,4.4173,4.453,4.4764,4.4895,4.4895,4.4895,4.5028,4.5539,4.5255,4.5274,4.6626,4.6531,4.662,4.7966,4.827,4.8654,0.0,4.9844,5.0063,5.0634,5.0248,4.9933,5.0035,4.9641,4.9521,4.9927,5.0004,4.9506,4.8194,4.8156,4.7682,4.6489,4.6499,4.6416,4.6126,4.6128,4.6144,4.6197,4.6197,4.6197,4.6197,4.6197,4.6197,4.6197,4.6197,4.6209,4.6194,4.6196,4.6172,4.6142,4.6143,4.6092,4.6046,4.6046,4.602,4.596,4.5611,4.5261,4.4889,0.0,0.0,0.0,0.0,0.0,0.0,0.0,0.0,0.0,0.0,3.5768,3.5799,3.5832,3.6179,3.6551,3.6979,3.6722,3.7499,3.9771,3.9832,4.0569,4.238,4.3324,4.381,4.381,4.4848,4.5399,4.5399,4.6143,4.6498,4.6498,4.6701,4.6815,4.6874,4.7104,4.6806,4.6175,4.6615,4.6339,4.568,4.62,4.6401,4.6337,4.6155,4.6018,4.5936,4.5729,4.5292,4.4769,4.4538,4.4254,4.4005,4.4005,4.4036,4.4105,4.4263,4.4358,4.4454,4.468,4.484,4.4952,4.5198,4.5255,4.5483,4.6342,4.6032,4.5937,4.7157,4.6942,4.6954,4.8268,4.8741,4.923,5.0062,5.0394,5.0542,5.0538,4.9934,4.945,4.9326,4.8877,4.8683,4.8916,4.9178,4.8891,4.7908,4.7914,4.7612,4.6822,4.6867,4.6704,4.6217,4.6197,4.6197,4.6197,4.6197,4.6197,4.6197,4.6197,4.6197,4.6199,4.6193,4.6203,4.6205,4.6189,4.6143,4.6099,4.6079,4.6044,4.5999,4.5999,4.5999,4.5999,4.5999,4.5999,4.5921,0.0,0.0,0.0,0.0,0.0,0.0,0.0,0.0,0.0,0.0,0.0,0.0,0.0,3.6891,3.7134,3.6569,3.7044,3.7672,3.8414,3.9716,4.1051,4.235,4.3778,4.4556,4.4556,4.4618,4.4618,4.4618,4.5365,4.5722,4.5754,4.6464,4.6874,4.7003,4.713,4.6862,4.634,4.6995,4.6846,4.6217,4.6757,4.6773,4.6517,4.6689,4.6085,4.5021,4.4251,4.4335,4.4685,4.391,4.3798,4.4005,4.4005,4.4139,0.0,4.43,4.4482,0.0,0.0,0.0,4.5103,4.5944,4.6171,4.638,4.7169,4.734,4.734,4.7384,4.7435,4.7514,4.7701,4.8473,4.9163,4.9393,5.0149,5.0496,4.9904,4.9809,4.9543,4.8906,4.8803,4.8472,0.0,4.8331,4.9111,4.9851,4.9911,4.9563,4.8766,4.8729,4.7951,4.6256,4.6197,4.6197,4.6197,4.6197,4.6197,4.6197,4.6197,4.6197,4.6199,4.6207,4.6196,4.6209,4.6129,4.609,4.6095,4.6029,4.6004,4.5999,4.5999,4.5999,4.5999,4.5999,4.5999,4.5999,0.0,0.0,0.0,0.0,0.0,0.0,0.0,0.0,0.0,0.0,0.0,0.0,0.0,0.0,0.0,0.0,3.7519,3.8041,3.9557,4.0104,4.116,4.299,4.3532,4.4045,4.4598,4.4615,4.4615,4.4615,4.4855,4.4973,4.4973,4.5309,4.5512,4.5552,4.5771,4.5922,4.607,4.6418,4.6635,4.6733,4.6694,4.6686,4.6628,4.5937,4.5488,4.5129,0.0,4.4101,4.4249,4.4106,4.4113,4.4214,4.4303,4.4376,0.0,4.4537,0.0,0.0,0.0,0.0,4.5956,4.6796,4.7005,4.7213,4.8066,4.782,4.7586,4.82,4.7846,4.7466,4.7617,4.7963,4.851,4.9321,4.9813,5.0056,4.9953,4.9463,4.8831,4.8025,4.7425,0.0,0.0,0.0,0.0,4.8319,4.8341,4.8475,4.8787,4.8806,4.8263,4.7094,4.7055,4.6782,4.6217,4.6197,4.6197,4.6197,4.6194,4.6201,4.6203,4.6201,4.6172,4.6128,4.6119,4.6061,4.6032,4.6015,4.5999,4.5999,4.5999,4.5999,4.5999,4.5999,4.5999,4.5999,0.0,0.0,0.0,0.0,0.0,0.0,0.0,0.0,0.0,0.0,0.0,0.0,0.0,0.0,0.0,0.0,0.0,3.8559,3.9824,4.0144,4.0985,4.255,4.2865,4.325,4.3772,4.3772,4.3907,4.4164,4.4164,4.433,4.4598,4.4737,4.4831,4.4899,4.5279,4.5662,4.6035,4.6543,4.6802,4.6826,4.6868,4.6616,4.6112,4.5431,4.5034,0.0,4.4191,4.4044,4.4131,4.4263,4.43,4.4322,4.4458,4.4524,0.0,0.0,0.0,0.0,0.0,4.6417,4.6834,4.7668,4.7858,4.8092,4.8971,4.8555,4.8065,4.8373,4.7779,4.7152,4.7016,4.7318,4.7957,4.9071,4.959,4.9807,4.9598,4.9372,4.8806,4.7639,4.7289,4.7347,0.0,0.0,0.0,4.8378,4.8397,4.8631,4.9196,4.9235,4.8845,4.799,4.7951,4.7542,4.6665,4.6664,4.6507,4.619,4.6195,4.6216,4.6249,4.623,4.62,4.6146,4.6146,4.6086,4.5999,4.5999,4.5999,4.5999,4.5999,4.5999,4.5997,4.5967,4.5953,4.5953,0.0,0.0,0.0,0.0,0.0,0.0,0.0,0.0,0.0,0.0,0.0,0.0,0.0,0.0,0.0,0.0,0.0,0.0,3.9246,3.9903,4.0561,4.1178,4.1863,4.2266,4.23,4.23,4.2642,4.3338,4.3338,4.3741,4.451,4.4632,4.478,4.4953,4.5535,4.5924,4.6233,4.7248,4.7203,4.6546,4.7223,4.6517,4.5117,4.5207,4.4711,4.4005,4.4013,4.4147,4.43,4.4307,0.0,0.0,0.0,0.0,0.0,0.0,0.0,4.6228,4.6304,4.6891,4.7668,4.8553,4.8775,4.8991,4.9777,4.9462,4.8783,4.794,4.7242,4.6614,0.0,0.0,4.7489,4.8608,4.9428,4.9664,4.8904,4.9488,4.9372,0.0,0.0,0.0,0.0,0.0,0.0,5.0014,0.0,5.0014,5.0053,5.0073,4.9703,4.8884,4.8869,4.8442,4.7584,4.7515,4.7063,4.6205,4.6205,4.6249,4.6306,4.6306,4.6266,4.6201,4.6199,4.6134,4.6004,4.6004,4.6002,4.5999,4.5999,4.5997,4.5983,4.5915,4.5896,4.589,0.0,0.0,0.0,0.0,0.0,0.0,0.0,0.0,0.0,0.0,0.0,0.0,0.0,0.0,0.0,0.0,0.0,0.0,3.9837,4.0048,4.0454,4.1174,4.139,4.1728,4.23,4.23,4.2388,4.2574,4.2574,4.2746,4.3043,4.3172,4.349,4.3965,4.4216,4.4778,4.5552,4.5808,4.6109,4.6319,4.5894,4.5531,4.5188,4.4573,4.4191,4.402,4.4169,4.4263,4.4314,0.0,0.0,0.0,0.0,4.4815,4.4984,0.0,0.0,4.6474,4.7725,4.8199,4.8598,4.9569,4.985,4.9803,4.9471,4.9317,4.8829,4.7409,4.694,4.658,0.0,0.0,0.0,4.8328,4.8866,0.0,4.8826,4.9488,0.0,4.7698,0.0,4.904,4.9644,4.9683,0.0,0.0,5.0365,5.0287,5.093,5.0969,5.0579,4.9722,4.9742,4.9352,4.8475,4.7826,4.7084,4.6269,4.6269,4.6286,4.6309,4.6257,4.622,4.6195,4.6209,4.615,4.6078,4.6078,4.6056,4.5999,4.5999,4.5961,4.5915,4.5909,4.5845,4.5739,0.0,0.0,0.0,0.0,0.0,0.0,0.0,0.0,0.0,0.0,0.0,0.0,0.0,0.0,0.0,0.0,0.0,0.0,0.0,4.0096,4.0269,4.0709,4.0726,4.0912,4.1318,4.1335,4.1487,4.1813,4.2078,4.2415,4.2817,4.318,4.3539,4.388,4.4276,4.4773,4.5328,4.5607,4.5743,0.0,0.0,4.5005,4.4689,4.4276,4.4139,4.4162,4.4336,4.4463,0.0,0.0,0.0,4.4983,4.5415,4.5512,4.5653,4.6586,0.0,4.7598,4.8523,4.9129,4.9604,5.0118,5.0333,5.0225,4.945,4.9094,4.8554,4.7296,4.6736,0.0,4.5986,4.5958,0.0,0.0,0.0,0.0,4.8282,4.9586,4.9956,0.0,4.9157,0.0,5.0521,5.0579,5.0774,0.0,5.0852,5.0774,5.1261,5.1305,5.1086,5.0599,5.0641,5.0253,4.9384,4.8122,4.7285,4.6865,4.6475,4.6294,4.63,4.6269,4.6238,4.6206,0.0,4.6156,4.6096,4.6073,4.6026,4.596,4.596,4.5903,4.5801,4.575,4.5684,4.5582,0.0,0.0,0.0,0.0,0.0,0.0,0.0,0.0,0.0,0.0,3.7983,0.0,0.0,0.0,0.0,0.0,0.0,0.0,0.0,0.0,4.0096,4.0096,4.0171,4.0204,4.0204,4.0274,4.0635,4.1274,4.1809,4.2402,4.3051,4.3637,4.3954,4.4063,4.4706,4.5049,4.5154,4.5739,4.5582,4.4977,4.5119,4.4713,4.4059,0.0,4.4322,4.4344,4.4487,4.4694,0.0,0.0,4.5106,4.5136,4.6134,4.6357,4.6478,4.7581,4.8401,4.898,4.9075,4.981,5.0486,5.0408,5.0428,5.0269,4.9482,4.8774,4.8058,4.7226,0.0,4.6136,4.6192,4.615,4.643,4.7342,0.0,4.836,4.762,4.9586,5.0541,4.8982,5.0287,5.1302,5.1292,5.1292,5.1296,5.1303,5.1303,5.1301,5.1292,5.1305,5.1309,5.1314,5.1374,5.0976,5.0114,4.861,4.7764,4.7587,4.6827,4.6417,4.6301,4.6301,4.625,4.6206,4.6198,4.6156,4.608,4.6015,4.5938,4.5876,4.5876,4.5791,4.5668,4.5549,4.549,4.5453,0.0,0.0,0.0,0.0,0.0,0.0,0.0,0.0,0.0,0.0,3.8238,3.849,0.0,0.0,0.0,0.0,0.0,0.0,0.0,0.0,0.0,4.0096,4.0516,4.0756,4.0756,4.1246,4.1561,4.169,4.1789,4.1968,4.2207,4.2324,4.2678,4.3217,4.3348,4.3678,4.4157,4.4282,4.4271,4.422,4.4393,4.4386,4.427,4.4416,0.0,0.0,4.4619,0.0,0.0,0.0,4.5346,4.546,4.6376,4.6635,4.6926,4.8489,4.9079,4.9379,5.0042,5.0404,5.0619,5.0765,5.0316,4.9673,4.898,4.8212,0.0,0.0,4.6279,4.619,4.6197,4.6192,4.6463,4.7365,4.7639,4.7678,4.7522,4.906,4.9878,0.0,5.0287,5.13,5.1305,5.1309,0.0,0.0,5.1388,5.1359,5.1291,5.1342,5.1381,5.1387,5.1387,5.0973,5.0112,4.98,4.8958,4.7607,4.7451,4.7002,4.6301,4.6301,4.625,4.6207,4.6202,0.0,4.5939,4.5931,4.5858,4.5739,4.5739,4.564,4.5535,4.5508,4.5419,4.5324,0.0,0.0,0.0,0.0,0.0,0.0,0.0,3.7252,3.7939,3.825,3.8574,3.9001,3.9588,3.9982,4.0201,0.0,0.0,0.0,0.0,0.0,0.0,0.0,0.0,0.0,4.1369,4.1643,4.181,4.181,0.0,4.2302,4.2372,4.2686,4.3005,4.3312,4.3416,4.3622,4.3897,4.3945,4.4039,4.4162,4.4263,4.4378,4.4522,0.0,0.0,0.0,0.0,0.0,0.0,0.0,4.5565,4.5792,4.6556,4.7064,4.764,4.896,4.9725,5.0222,5.0604,5.0813,5.0913,5.0949,5.0397,4.9666,4.8924,0.0,0.0,0.0,4.6197,4.6197,4.6197,4.6197,0.0,4.6762,4.7191,4.7494,4.7501,4.8967,0.0,4.9525,5.06,5.1347,0.0,5.1345,5.1369,5.1398,5.1404,5.1383,5.1346,5.1382,5.1406,5.1395,5.1394,5.1193,5.0788,5.0338,4.9694,4.8894,4.8016,4.7367,4.6907,4.646,4.618,4.6082,4.606,4.5942,4.5799,4.5802,4.5719,4.5601,4.5601,4.5517,4.54,4.54,4.535,4.5302,0.0,0.0,0.0,0.0,0.0,0.0,0.0,3.7208,3.781,3.8404,3.9028,3.9562,4.0045,4.0213,4.0305,0.0,0.0,0.0,0.0,0.0,0.0,0.0,0.0,0.0,0.0,0.0,0.0,4.2165,4.2638,0.0,0.0,0.0,0.0,0.0,4.3832,4.3929,4.3984,4.4071,4.4214,0.0,0.0,4.4629,0.0,0.0,0.0,0.0,0.0,0.0,0.0,0.0,4.5722,4.5983,4.6522,4.7355,4.8312,4.9278,5.0231,5.0968,5.0968,5.1094,5.1191,5.1089,5.0393,4.9586,4.8943,4.799,0.0,0.0,4.6197,4.6197,4.6197,4.6197,4.6197,0.0,4.6762,4.721,4.7218,4.8568,4.9614,0.0,5.0598,0.0,5.1383,5.1402,0.0,5.1405,5.1405,5.1405,5.1405,5.1405,5.1396,5.1395,5.1394,5.1394,5.1394,5.071,5.0278,5.0078,4.8751,4.7895,4.7408,4.6727,4.6248,4.5936,4.5889,4.5783,4.5661,4.5653,4.5584,4.5453,4.5453,4.5395,4.5302,4.5302,4.5302,4.5302,0.0,0.0,0.0,0.0,0.0,0.0,0.0,3.7839,3.8418,3.9041,3.9644,4.0033,4.0083,4.0213,4.0305,0.0,0.0,0.0,0.0,0.0,0.0,0.0,0.0,0.0,0.0,0.0,0.0,4.3339,4.347,0.0,0.0,0.0,0.0,0.0,0.0,4.405,4.4278,4.44,0.0,0.0,0.0,0.0,0.0,0.0,0.0,0.0,0.0,0.0,0.0,0.0,0.0,4.5905,4.5967,4.7165,4.8704,4.9522,0.0,0.0,5.1171,5.1234,5.1292,5.1286,5.0085,4.8884,4.8826,0.0,0.0,4.6217,4.6197,4.6197,4.6197,4.6197,4.6197,4.6197,0.0,4.6313,0.0,0.0,0.0,0.0,0.0,0.0,5.1328,5.1405,5.1402,5.1404,5.14,5.14,5.1403,5.14,5.1397,5.1394,5.1394,5.1394,5.1394,5.1316,5.0876,5.0093,4.9937,4.894,4.7216,4.7138,4.6602,4.5731,4.5724,4.5634,0.0,4.5527,4.5434,4.5328,4.5328,4.5317,4.5302,4.5302,4.5302,4.5302,0.0,0.0,0.0,0.0,0.0,0.0,3.7445,3.8023,3.8627,3.9239,3.9927,4.0313,4.0226,4.0416,4.0515,4.0424,0.0,0.0,0.0,0.0,0.0,0.0,0.0,0.0,0.0,0.0,4.3556,4.3556,4.3678,0.0,0.0,0.0,0.0,0.0,0.0,0.0,4.4669,4.4713,0.0,0.0,0.0,0.0,0.0,0.0,0.0,0.0,0.0,0.0,0.0,0.0,0.0,0.0,4.6017,4.6907,0.0,0.0,4.9367,5.0475,5.0475,5.0877,5.13,5.13,5.0034,4.8806,4.8806,0.0,4.6197,4.6197,4.6197,4.6197,4.6197,4.6197,4.6197,4.6197,0.0,0.0,4.6913,0.0,0.0,0.0,4.9565,0.0,0.0,0.0,5.1407,5.1395,5.1394,5.1394,5.1394,5.1394,5.1394,5.1394,5.1394,5.1408,5.1392,5.1288,5.1059,5.0683,5.0089,4.9374,4.8571,4.8037,4.7243,4.6305,4.6305,4.5958,0.0,4.538,4.5345,4.5302,4.5302,4.5302,4.5302,4.5302,4.5302,4.5302,0.0,0.0,0.0,0.0,0.0,3.7477,3.7937,3.8474,3.9035,3.9662,4.0179,4.0473,4.0362,4.0563,4.0704,4.0724,4.0942,0.0,0.0,0.0,0.0,0.0,0.0,0.0,0.0,0.0,4.3659,4.3659,4.3777,4.3837,0.0,0.0,0.0,0.0,0.0,0.0,0.0,0.0,0.0,0.0,0.0,0.0,0.0,0.0,0.0,0.0,0.0,0.0,0.0,0.0,0.0,0.0,0.0,0.0,0.0,0.0,4.8649,4.9995,4.9995,5.0638,5.13,5.13,5.0034,4.8806,0.0,0.0,4.6203,4.6198,4.6201,4.6206,4.6201,4.6202,4.6202,4.6202,0.0,4.6425,4.7067,4.7148,0.0,0.0,0.0,4.9558,0.0,5.0886,5.1394,5.1394,5.1394,5.1394,5.1394,5.1408,5.1407,5.1394,5.1408,5.137,5.1314,5.1163,5.1074,5.1007,5.0286,4.9761,4.9414,4.8803,4.7978,4.703,4.703,4.649,0.0,4.5646,4.5512,4.5302,4.5302,4.5302,4.5302,4.5302,4.5302,4.5302,0.0,0.0,0.0,0.0,0.0,0.0,3.8892,3.9335,3.9804,4.0407,4.0497,4.051,4.051,4.0624,4.0865,4.1264,4.1428,0.0,0.0,0.0,0.0,0.0,0.0,0.0,0.0,0.0,4.3796,4.3796,4.3867,4.3897,4.3905,4.4303,4.4499,4.4519,0.0,0.0,0.0,0.0,0.0,0.0,0.0,0.0,0.0,0.0,0.0,0.0,0.0,0.0,0.0,0.0,0.0,0.0,0.0,0.0,0.0,0.0,4.869,4.9995,4.9995,5.0638,5.13,5.13,5.0034,4.8806,0.0,0.0,4.6193,4.6199,4.6206,4.6197,4.62,4.6203,4.6203,4.6203,4.6204,0.0,4.6308,4.6307,0.0,0.0,0.0,4.8289,4.9948,5.0886,5.1394,5.1394,5.1394,0.0,5.1394,5.1391,5.1408,5.1393,5.139,5.1292,5.1116,5.1103,5.1,5.0798,5.0798,5.0278,4.9307,4.9288,4.8736,4.7794,4.7794,4.7297,0.0,4.6495,4.6023,4.5302,4.5302,4.5302,4.5302,4.5302,4.5302,4.5302,0.0,0.0,0.0,0.0,0.0,0.0,0.0,3.9476,3.9957,4.0558,4.0721,4.074,4.066,4.1001,4.1299,4.1428,4.1472,0.0,0.0,0.0,0.0,0.0,0.0,0.0,0.0,4.3775,4.3867,4.3867,4.4062,4.4225,4.4318,4.4726,4.4958,4.5066,4.5376,4.5539,0.0,0.0,0.0,0.0,0.0,0.0,0.0,0.0,0.0,0.0,0.0,0.0,0.0,0.0,0.0,0.0,0.0,0.0,0.0,4.6529,4.7405,0.0,4.8282,4.8923,4.9595,4.9589,4.874,4.791,4.7914,0.0,4.6206,4.6194,4.6196,4.6198,4.6203,4.6204,4.6204,4.6204,4.6249,0.0,0.0,0.0,0.0,4.6672,4.7725,4.8856,0.0,0.0,5.1394,5.1394,5.1274,5.1183,5.1183,5.1116,5.1106,5.12,5.1181,5.1102,5.0904,5.0797,5.0692,5.0587,5.0503,5.0289,4.9986,4.9986,4.9518,4.8697,4.8697,4.82,4.7393,4.7393,4.6896,4.6118,4.6118,4.5774,4.5302,4.5302,4.5302,4.5302,0.0,0.0,0.0,0.0,0.0,0.0,0.0,3.9973,4.0348,4.0733,4.0852,4.0876,4.0781,4.1203,4.1561,4.1746,4.1952,0.0,0.0,0.0,0.0,0.0,0.0,0.0,4.3699,4.3968,4.4128,4.4128,4.44,4.4566,4.4663,4.5036,4.526,4.5347,4.5657,4.5805,0.0,0.0,0.0,0.0,0.0,0.0,4.6056,0.0,0.0,0.0,0.0,0.0,0.0,0.0,0.0,0.0,0.0,0.0,0.0,0.0,4.6589,4.7085,0.0,4.8148,4.881,4.8792,4.8134,0.0,0.0,4.6828,4.6205,4.6229,4.6249,4.6249,4.623,4.623,4.623,4.623,4.6266,4.6301,0.0,0.0,0.0,4.6301,0.0,0.0,0.0,5.0624,5.1298,5.1252,5.1124,5.1054,5.1054,5.0933,5.0884,5.091,5.0969,5.0896,5.0721,5.0609,5.0518,5.0426,5.0335,5.0302,5.0302,5.0302,5.0034,4.9543,4.9543,4.906,0.0,4.829,4.7775,4.6991,4.6991,4.6481,4.5755,4.5755,4.5569,4.5302,0.0,0.0,0.0,0.0,0.0,0.0,0.0,4.0631,4.0912,4.0912,4.0912,4.0912,4.0912,4.1283,4.1724,4.2167,4.2723,0.0,0.0,0.0,0.0,0.0,0.0,0.0,4.3937,4.4325,4.452,4.452,4.4798,4.4924,4.4946,4.5256,4.5421,4.5448,4.5692,4.5835,4.5901,4.5983,4.6007,4.6012,4.6082,4.6102,0.0,0.0,0.0,0.0,0.0,0.0,0.0,0.0,0.0,0.0,0.0,0.0,0.0,0.0,0.0,0.0,0.0,4.8005,4.8623,0.0,0.0,0.0,0.0,0.0,0.0,4.6288,4.6306,4.6303,4.6305,4.6301,4.6301,4.6301,4.6301,4.6301,0.0,4.6298,0.0,0.0,4.7779,0.0,4.8707,5.0198,5.1135,5.1008,5.0982,5.0976,5.0976,5.0847,5.072,5.0577,5.0692,5.0696,5.0577,5.0513,5.0426,5.0302,5.0302,5.0302,5.0302,5.0302,5.0302,0.0,5.0302,4.9882,4.918,4.918,4.8678,4.7889,4.7889,4.7354,4.6571,4.6514,4.6023,4.5378,0.0,0.0,0.0,0.0,0.0,0.0,0.0,0.0,0.0,0.0,4.0912,4.0912,4.0912,4.1578,4.2098,0.0,0.0,0.0,0.0,0.0,0.0,0.0,0.0,0.0,4.4275,4.4619,4.4815,4.4815,4.5025,4.5189,4.5295,4.5472,4.5642,4.5789,4.5848,4.5904,4.5983,4.6059,4.608,4.6084,4.6148,4.6185,0.0,0.0,0.0,0.0,4.6197,4.6197,0.0,0.0,0.0,0.0,0.0,0.0,0.0,0.0,4.6247,4.6328,4.6523,0.0,4.6811,4.6875,4.6738,4.6581,0.0,0.0,0.0,0.0,0.0,0.0,0.0,4.6301,4.6301,4.6301,4.6301,4.6301,4.6301,0.0,0.0,4.6297,4.7646,4.8571,4.8619,5.0091,5.1016,5.0921,5.0786,5.0683,5.0683,5.0528,5.0391,5.0366,5.0391,5.0391,5.0366,5.0357,5.0323,5.0302,5.0302,5.0302,5.0302,5.0302,5.0302,5.0302,5.0302,5.0187,5.0015,5.0015,4.9538,4.8798,4.8798,4.8258,4.7412,4.6743,4.6385,4.6137,0.0,0.0,0.0,0.0,0.0,0.0,0.0,0.0,0.0,0.0,4.0912,4.1,4.1243,4.1846,4.2364,0.0,0.0,0.0,0.0,0.0,0.0,0.0,0.0,4.4472,4.4533,4.4926,4.5126,4.5126,4.5366,4.5533,4.5623,4.5703,4.5818,4.5955,4.598,4.601,4.6039,4.6128,4.6146,4.6148,4.619,0.0,0.0,0.0,0.0,0.0,4.6197,4.6197,0.0,4.6206,4.6194,4.6202,0.0,0.0,0.0,0.0,4.6268,4.6299,4.6299,4.6265,4.6248,4.6281,4.6299,4.6296,4.6304,0.0,0.0,0.0,0.0,0.0,0.0,0.0,4.6238,0.0,4.6206,0.0,0.0,0.0,4.6206,4.621,4.7595,4.8515,0.0,4.9901,5.0817,5.0711,5.0592,5.0512,5.0512,5.0385,5.0302,5.0302,5.0302,5.0302,5.0302,5.0302,5.0302,5.0302,5.0302,5.0302,5.0302,5.0302,5.0302,5.0302,5.0302,5.0302,5.0302,5.0302,5.0034,4.9652,4.9652,4.9137,4.8334,4.7876,4.7436,4.703,0.0,0.0,0.0,0.0,0.0,0.0,0.0,0.0,0.0,0.0,0.0,0.0,0.0,0.0,0.0,0.0,0.0,0.0,0.0,0.0,0.0,0.0,4.4465,4.4663,4.477,4.5226,4.5457,4.5457,4.5696,4.5835,4.5889,4.5901,4.5958,4.6015,4.6087,4.6126,4.6128,4.6185,4.6197,4.6197,4.6197,0.0,0.0,0.0,0.0,0.0,0.0,0.0,0.0,4.6203,4.6195,4.62,4.6202,0.0,0.0,0.0,0.0,0.0,4.6301,4.6301,4.6301,4.6301,4.6301,4.6301,4.6301,0.0,0.0,0.0,0.0,0.0,0.0,4.6185,0.0,0.0,0.0,0.0,4.6055,4.6143,4.6173,4.6084,4.7392,0.0,4.8187,4.956,5.0457,5.047,5.0424,5.0371,5.0371,5.0325,5.0302,5.0302,5.0302,5.0302,5.0302,5.0302,5.0302,5.0302,5.0302,5.0302,5.0302,5.0302,5.0302,5.0302,0.0,0.0,5.0302,5.0302,5.0302,5.0302,5.0302,4.9882,4.9276,4.9142,4.8621,4.7979,0.0,0.0,0.0,0.0,0.0,0.0,0.0,0.0,0.0,0.0,0.0,0.0,0.0,0.0,0.0,0.0,0.0,0.0,0.0,0.0,0.0,4.4763,4.499,4.5102,4.5118,4.5528,4.5741,4.5741,4.5835,4.5899,4.5892,4.5964,4.6017,4.6087,4.6152,4.6189,4.619,4.6196,4.6197,4.6197,4.6197,0.0,0.0,0.0,0.0,0.0,0.0,0.0,0.0,4.6194,4.62,4.6203,4.6269,0.0,0.0,0.0,0.0,0.0,4.6301,4.6301,4.6301,4.6301,4.6301,4.6301,4.6301,0.0,0.0,0.0,0.0,0.0,0.0,4.621,4.6242,0.0,0.0,4.6043,0.0,0.0,4.5835,4.5922,0.0,4.7277,4.7957,4.8836,4.9622,5.0279,5.0319,5.0314,5.0314,5.0302,5.0302,5.0302,5.0302,5.0302,5.0302,5.0302,5.0302,5.0302,5.0302,5.0302,5.0302,5.0302,5.0302,5.0302,0.0,5.0302,5.0302,5.0302,5.0302,5.0302,5.0302,5.0225,5.0034,4.9352,4.9028,4.8745,0.0,0.0,0.0,0.0,0.0,0.0,0.0,0.0,0.0,0.0,0.0,0.0,0.0,0.0,0.0,0.0,0.0,0.0,0.0,0.0,4.477,4.4884,4.5239,4.5419,4.5419,4.57,4.5845,4.5845,4.591,4.5978,4.6007,4.608,4.6113,4.6152,4.619,4.6197,4.6197,4.6197,4.6197,4.6201,0.0,0.0,0.0,0.0,0.0,0.0,0.0,0.0,0.0,0.0,4.625,4.6269,4.6282,0.0,0.0,0.0,0.0,0.0,4.6301,4.6301,4.6301,4.6301,4.6301,4.6301,4.6301,0.0,0.0,0.0,0.0,0.0,0.0,0.0,4.6028,4.5859,0.0,4.5957,4.5862,4.5818,4.5812,0.0,0.0,4.6938,4.7261,4.7966,4.8548,4.8926,4.9385,4.9652,4.9652,5.0054,5.0302,5.0302,5.0302,5.0302,5.0302,5.0302,5.0302,5.0302,5.0302,5.0302,5.0302,5.0302,5.0302,5.0302,0.0,5.0302,5.0302,5.0302,5.0302,5.0302,5.0302,5.0302,5.0227,4.9669,4.9486,4.9315,0.0,0.0,0.0,0.0,0.0,0.0,0.0,0.0,0.0,0.0,0.0,0.0,0.0,0.0,0.0,0.0,0.0,0.0,0.0,4.482,4.4996,4.5061,4.5427,4.5614,4.5614,4.5808,4.5917,4.5913,4.5991,4.6066,4.6113,4.6178,4.6196,4.6198,4.6209,4.6194,4.6194,4.6194,4.6198,4.6207,0.0,0.0,0.0,0.0,0.0,0.0,0.0,0.0,0.0,0.0,0.0,0.0,0.0,0.0,0.0,4.6301,4.6301,4.6301,4.6301,4.6301,4.6301,4.6301,4.6301,4.6301,0.0,0.0,0.0,0.0,0.0,0.0,0.0,4.5976,0.0,4.5669,4.5759,4.5825,4.5741,4.5763,4.5767,4.5715,4.618,4.6568,4.6675,4.7165,4.7584,4.7769,4.843,4.8875,4.9085,4.9671,5.0111,5.0283,5.0302,5.0302,5.0302,5.0302,5.0302,5.0302,5.0302,5.0302,5.0302,5.0302,5.0302,5.0302,5.0302,5.0302,5.0302,5.0302,5.0302,5.0296,5.0218,5.0138,5.0019,4.979,4.9688,4.9544,0.0,0.0,0.0,0.0,0.0,0.0,0.0,0.0,0.0,0.0,0.0,0.0,0.0,0.0,0.0,0.0,0.0,0.0,0.0,4.5065,4.5286,4.553,4.5646,4.57,4.57,4.5835,4.5938,4.5994,4.6068,4.6134,4.6196,4.6205,4.6203,4.6205,4.6192,4.62,4.62,4.62,4.6206,4.6191,4.6191,0.0,0.0,0.0,0.0,0.0,0.0,0.0,0.0,0.0,0.0,0.0,0.0,0.0,4.6301,4.6301,4.6301,4.6301,4.6301,4.6301,4.6301,4.6301,4.6301,0.0,4.6301,4.6209,0.0,4.6109,0.0,0.0,0.0,4.5907,4.5861,4.5794,4.5759,4.5673,4.5534,0.0,4.5419,4.5434,4.5423,4.5731,4.6527,4.6609,4.6934,4.7731,4.787,4.8252,4.9066,4.9142,4.9524,5.0283,5.0302,5.0302,5.0302,5.0302,5.0302,5.0302,5.0302,5.0302,5.0302,5.0302,5.0302,5.0302,5.0302,5.0302,5.0302,5.0302,5.0302,5.0278,4.9961,4.9653,4.9378,4.9337,4.9348,4.9276,0.0,0.0,0.0,0.0,0.0,0.0,0.0,0.0,0.0,0.0,0.0,0.0,0.0,0.0,0.0,0.0,0.0,0.0,0.0,4.5277,4.5464,4.5654,4.5806,4.5913,4.5953,4.6004,4.6049,4.6068,4.6134,4.6177,4.6195,4.6202,4.6205,4.6205,4.6152,4.6152,4.619,4.6152,4.6132,4.6149,4.6141,4.6136,0.0,0.0,0.0,0.0,0.0,0.0,0.0,0.0,4.6242,4.6242,4.6242,4.6271,4.6301,4.6301,4.6301,4.6301,4.6301,4.6242,4.6205,4.6275,4.6242,0.0,0.0,4.6139,4.6086,4.5994,4.593,0.0,0.0,0.0,4.5708,4.5684,4.562,4.5573,4.5553,4.5509,4.5453,4.5452,4.541,4.5495,4.5824,4.5792,4.5889,4.6214,4.6705,4.7373,4.8252,4.8817,4.9467,5.0264,5.0302,5.0302,5.0302,5.0302,5.0302,5.0302,5.0302,5.0302,5.0302,5.0302,5.0302,5.0302,5.0302,5.0175,4.9981,4.9981,4.9864,4.9667,4.9534,4.9416,4.9268,4.9064,4.9001,4.8942,0.0,0.0,0.0,0.0,0.0,0.0,0.0,0.0,0.0,0.0,0.0,0.0,0.0,0.0,0.0,0.0,0.0,0.0,4.5276,4.5464,4.563,4.5792,4.5944,4.6042,4.6096,4.6111,4.6126,4.6126,4.6186,4.6202,4.6191,4.6189,4.6167,4.6167,4.6134,4.6152,4.6199,4.615,4.6122,4.6095,4.6108,4.6096,0.0,0.0,0.0,0.0,0.0,0.0,0.0,0.0,4.6199,4.6207,4.6207,4.6244,4.6301,4.6301,4.6272,4.6242,4.6242,4.6139,4.6057,4.6146,0.0,0.0,4.6007,4.6022,4.5998,4.5892,4.5866,4.5847,4.5741,0.0,0.0,0.0,4.5531,4.5513,4.5564,4.5514,4.5477,4.5476,4.5419,4.5385,4.5408,4.5338,4.5302,4.5302,4.5812,4.6609,4.7731,4.8372,4.9175,5.0264,5.0302,5.0302,5.0302,5.0302,5.0302,5.0302,5.0181,5.0206,5.0296,5.0181,5.0144,5.0138,5.0038,4.985,4.9646,4.9646,4.9446,4.9145,4.9145,4.908,4.8949,4.8729,4.8641,4.8604,0.0,0.0,0.0,0.0,0.0,0.0,0.0,0.0,0.0,0.0,0.0,0.0,0.0,0.0,0.0,0.0,0.0,0.0,4.5481,4.5623,4.5796,4.5994,4.6071,4.6098,4.6098,4.6173,4.6208,4.6208,4.6207,4.6191,4.6191,4.6131,4.6108,4.6106,4.6162,4.6197,4.6197,4.6197,4.6154,4.6096,4.6096,4.6096,4.6096,0.0,0.0,0.0,0.0,0.0,0.0,0.0,4.6201,4.6207,4.6207,4.6244,4.6301,4.6301,4.621,4.61,4.61,4.6,4.5902,4.5902,0.0,0.0,4.5818,4.5853,4.5886,4.5815,4.5803,4.5757,4.5625,4.5715,0.0,4.562,4.5531,4.5499,4.5499,4.5434,4.5404,4.54,4.533,4.5328,4.5398,4.5333,4.5302,4.5302,4.5302,4.6023,4.7717,4.7794,4.8577,5.0245,5.0302,5.0302,5.0302,5.0302,5.0296,5.0296,4.9961,4.9968,5.029,4.9948,4.9803,4.979,4.9427,4.931,4.9283,4.9283,4.9097,4.8799,4.8799,4.8586,4.8296,4.8296,4.8296,4.8296,0.0,0.0,0.0,0.0,0.0,0.0,0.0,0.0,0.0,0.0,0.0,0.0,0.0,0.0,0.0,0.0,0.0,0.0,4.5679,4.5796,4.5911,4.6051,4.6138,4.616,4.6177,4.6186,4.6191,4.6191,4.6141,4.6133,4.6125,4.6118,4.6105,4.6103,4.6072,4.6087,4.6134,4.6082,4.6059,4.6025,4.6025,4.6025,4.6025,0.0,0.0,0.0,0.0,0.0,0.0,0.0,0.0,0.0,4.6195,4.6249,4.6301,4.6301,4.6273,4.6215,4.6133,4.6,0.0,4.5902,0.0,0.0,0.0,4.5818,0.0,0.0,4.5656,4.5658,4.5603,4.5637,0.0,4.5603,4.5531,4.5499,4.5499,4.5443,4.5395,4.5395,4.5379,4.5353,4.5328,4.5312,4.5302,4.5302,4.5302,4.6023,4.7717,4.7794,4.8577,5.0245,5.0302,5.0302,5.0302,5.0302,5.0175,4.9948,4.985,4.985,4.9942,4.9592,4.9453,4.9427,4.9337,4.9169,4.8934,4.8693,4.8532,4.8458,4.8458,4.8383,4.8296,4.8296,4.8296,4.8296,0.0,0.0,0.0,0.0,0.0,0.0,0.0,0.0,0.0,0.0,4.4065,4.4462,0.0,0.0,0.0,0.0,0.0,0.0,4.5825,4.5931,4.6039,4.614,4.6182,4.6196,4.615,4.616,4.6168,4.6153,4.6116,4.61,4.6096,4.6078,4.6068,4.6066,4.6015,4.602,4.6066,4.6015,4.5999,4.5999,4.5999,4.5999,4.5999,0.0,0.0,0.0,0.0,0.0,0.0,0.0,0.0,0.0,4.6197,4.6242,4.6277,4.6195,4.6156,4.6105,4.5971,4.5863,0.0,4.577,4.5743,4.5712,4.5712,0.0,0.0,0.0,4.5594,4.5594,4.5594,4.5594,0.0,4.5594,4.5531,4.5499,4.5499,4.5438,4.54,4.5408,4.5388,4.5338,4.5307,4.5302,4.5302,4.5302,4.5302,4.6023,4.7717,4.7794,4.8577,5.0245,5.0162,5.0088,5.0088,4.9968,4.981,4.9592,4.9461,4.9401,4.9394,4.9193,4.9105,4.9097,4.8957,4.878,4.8577,4.8383,4.8296,4.8296,4.8296,4.8296,4.8296,4.8296,4.8296,4.8296,0.0,0.0,0.0,0.0,0.0,0.0,0.0,0.0,0.0,0.0,4.4256,4.4591,0.0,0.0,0.0,0.0,0.0,0.0,0.0,4.6049,4.6142,4.6199,4.6195,4.6172,4.6107,4.6098,4.6093,4.6089,4.6089,4.6089,4.6089,4.6022,4.5999,4.5999,4.5999,4.5999,4.5999,4.5999,4.5999,4.5999,4.5999,4.5999,4.5999,4.5999,0.0,0.0,0.0,0.0,0.0,0.0,0.0,0.0,4.619,4.6235,4.6246,4.6052,4.5959,4.587,4.5745,0.0,0.0,4.5599,4.5594,0.0,4.5594,4.5594,4.5594,4.5594,0.0,4.5594,4.5594,4.5594,4.5594,4.5594,4.5531,4.5499,4.5495,4.5448,4.5403,4.5398,4.5333,4.5302,4.5302,4.5302,4.5302,4.5302,4.5302,4.6003,4.7603,4.7733,4.8485,5.0095,4.9897,4.975,4.975,4.9461,4.9276,4.9245,4.8951,4.879,4.8755,4.8755,4.8755,4.8737,4.8421,4.8296,4.8296,4.8296,4.8296,4.8296,4.8296,4.8296,4.8296,4.8296,4.8296,4.8296,0.0,0.0,0.0,0.0,0.0,0.0,0.0,0.0,0.0,0.0,0.0,0.0,0.0,0.0,0.0,0.0,0.0,0.0,0.0,4.6153,4.6172,4.6198,4.62,4.6164,4.6099,4.6109,4.6074,4.6017,4.6017,4.6017,4.6017,4.6007,4.5999,4.5999,4.5999,4.5999,4.5999,4.5999,4.5999,4.5999,4.5999,4.5999,4.5999,4.5999,4.5999,0.0,0.0,0.0,0.0,0.0,0.0,0.0,4.608,4.608,4.6109,4.598,4.5915,4.5875,4.5796,4.5775,0.0,0.0,4.5594,4.5594,4.5594,4.5594,4.5594,4.5594,4.5594,4.5594,4.5594,4.5594,4.5594,4.5594,4.5531,4.5485,4.5429,4.5404,4.5388,4.5328,4.5312,4.5302,4.5302,4.5302,4.5302,4.5302,4.5302,4.5741,4.6724,4.7184,4.7884,4.8934,4.9249,4.9416,4.9416,4.9348,4.9169,4.8908,4.8823,4.8667,4.8411,4.8411,4.8411,4.8402,4.8335,4.8296,4.8296,4.8296,4.8296,4.8296,4.8296,4.8296,4.8296,4.8296,4.8296,4.8296,0.0,0.0,0.0,0.0,0.0,0.0,0.0,0.0,0.0,0.0,0.0,0.0,0.0,0.0,0.0,0.0,0.0,0.0,0.0,0.0,4.6183,4.6143,4.6147,4.6117,4.6041,4.6043,4.6049,4.5999,4.5999,4.5999,4.5999,4.5999,4.5999,4.5999,4.5999,4.5999,4.5999,4.5999,4.5999,4.5999,4.5999,4.5999,4.5999,4.5999,4.5999,4.5994,4.5953,0.0,0.0,0.0,0.0,0.0,0.0,0.0,4.5962,4.5811,4.579,4.5822,4.5692,0.0,0.0,4.5616,0.0,4.5594,4.5594,4.5594,4.5594,4.5594,4.5594,4.5594,4.5594,4.5594,4.5586,4.5564,4.5499,4.5448,4.5395,4.536,4.5338,4.5307,4.5302,4.5302,4.5302,4.5302,4.5302,4.5302,4.5156,4.5438,4.6262,4.6442,4.7096,4.8322,4.8441,4.868,4.9056,4.889,4.8719,4.855,4.855,4.8467,4.8296,4.8296,4.8296,4.8296,4.8296,4.8296,4.8296,4.8296,4.8296,4.8296,4.8296,4.8296,4.8296,4.8296,4.8296,4.8296,0.0,0.0,0.0,0.0,0.0,0.0,0.0,0.0,0.0,0.0,0.0,0.0,0.0,0.0,0.0,0.0,0.0,0.0,0.0,0.0,0.0,4.6091,4.611,4.6061,4.6002,4.5999,4.5999,4.5999,4.5999,4.5999,4.5999,4.5999,4.5999,4.5999,4.5999,4.5999,4.5999,4.5999,4.5999,4.5999,4.5983,4.5978,4.5978,4.5961,4.5955,4.5944,4.5883,4.587,4.5856,4.5742,0.0,0.0,0.0,0.0,4.5806,4.5631,4.5661,4.57,4.5566,0.0,4.5594,4.5594,4.5594,0.0,4.5594,4.5594,4.5594,4.5594,4.5594,4.5594,4.5594,4.5586,4.5568,4.5508,4.5434,4.5395,4.5394,4.5338,4.5302,4.5302,4.5302,4.5302,4.5302,4.5302,4.5286,4.5224,4.4957,4.5085,4.578,4.5671,4.6296,4.7751,4.7624,4.7904,4.8711,4.8448,4.8296,4.8296,4.8296,4.8296,4.8296,4.8296,4.8296,4.8296,4.8296,4.8296,4.8296,4.8296,4.8296,4.8296,4.8296,4.8296,4.8296,4.8296,4.8296,4.8296,0.0,0.0,0.0,0.0,0.0,0.0,0.0,0.0,0.0,0.0,4.5256,4.54,0.0,0.0,0.0,0.0,0.0,0.0,0.0,0.0,0.0,4.6105,4.6109,4.6064,4.6002,4.5999,4.5999,4.5999,4.5999,4.5999,4.5999,4.5999,4.5999,4.5999,4.5999,4.5999,4.5999,4.5999,4.5999,4.5994,4.5934,4.5919,4.5909,4.5775,4.5734,4.5734,4.5735,4.5731,4.5727,4.5712,4.57,0.0,0.0,0.0,4.5623,4.5537,4.554,4.5553,0.0,0.0,4.5594,0.0,4.5594,4.5594,0.0,0.0,4.5594,0.0,4.5594,4.5594,4.5594,4.5559,4.5508,4.5504,4.5438,4.5394,4.5408,4.5338,4.5302,4.5302,4.5302,4.5302,4.5302,4.5302,4.5178,4.4879,4.4831,4.4751,4.4635,4.5032,4.5685,4.6591,4.6991,4.7546,4.8364,4.8325,4.8296,4.8296,4.8296,4.8296,4.8296,4.8296,4.8296,4.8296,4.8296,4.8296,4.8296,4.8296,4.8296,4.8296,4.8296,4.8296,4.8296,4.8296,4.8296,4.8296,0.0,0.0,0.0,0.0,0.0,0.0,0.0,0.0,0.0,0.0,0.0,4.5501,0.0,0.0,0.0,0.0,0.0,0.0,0.0,0.0,0.0,4.6103,4.6056,4.6029,4.6002,4.5999,4.5999,4.5999,4.5999,4.5999,4.5999,4.5999,4.5999,4.5999,4.5999,4.5999,4.5997,4.5966,4.5946,4.5937,4.5833,4.5787,4.578,4.5727,4.5704,4.5696,4.5603,4.5597,4.5584,4.5504,4.5485,4.5464,4.5434,0.0,0.0,0.0,4.5477,0.0,4.5581,4.5594,4.5594,0.0,4.5594,4.5594,4.5594,0.0,4.5594,4.5594,4.5594,4.5594,4.5594,4.5555,4.549,4.5443,4.5414,4.5393,4.5343,4.5317,4.5302,4.5302,4.5302,4.5302,4.5302,4.5126,4.4957,4.48,4.4531,4.4308,4.4177,4.4225,4.4823,4.6079,4.6314,4.703,4.8296,4.8296,4.8296,4.8296,4.8296,4.8296,4.8296,4.8296,4.8296,4.8296,4.8296,4.8296,4.8296,4.8296,4.8296,4.8296,4.8296,4.8296,4.8296,4.8296,4.8296,4.8296,0.0,0.0,0.0,0.0,0.0,0.0,0.0,0.0,0.0,0.0,0.0,0.0,0.0,0.0,0.0,0.0,0.0,0.0,0.0,0.0,0.0,4.607,4.6022,4.5999,4.5999,4.5999,4.5999,4.5999,4.5944,4.6061,4.6327,4.6058,4.6154,4.6542,4.6177,4.5989,4.5964,4.5912,4.5883,4.5849,4.5708,4.5656,4.5651,4.5618,4.5605,4.5593,4.5485,4.5443,4.5424,4.5324,4.5302,4.5302,4.5302,4.5333,0.0,0.0,0.0,0.0,0.0,0.0,4.5577,4.5609,4.5594,4.5594,0.0,0.0,4.5594,0.0,4.5594,4.559,4.5577,4.5517,4.5467,4.5415,4.538,4.5348,4.5307,4.5302,4.5302,4.5302,4.5302,4.5302,4.5302,4.5005,4.4763,4.4701,4.4265,4.3966,4.3878,4.3632,4.4149,4.5553,4.5792,4.6581,4.7984,4.8205,4.8296,4.8296,4.8296,4.8296,4.8296,4.8296,4.8296,4.8296,4.8296,4.8296,4.8296,4.8296,4.8296,4.8296,4.8296,4.8296,4.8296,4.8296,4.8296,4.8296,0.0,0.0,0.0,0.0,0.0,0.0,0.0,0.0,0.0,0.0,0.0,0.0,4.5964,4.6045,4.6146,4.6276,4.63,4.6264,4.619,4.6139,4.6066,4.6012,4.6004,0.0,4.5999,4.5999,4.5999,4.5999,4.5809,4.6238,4.7215,4.6193,4.6568,4.8014,4.6628,4.5953,4.5906,4.59,4.5838,4.5704,4.5552,4.5513,4.5495,4.537,4.5328,4.5328,4.5317,4.5317,4.5312,4.5307,4.5302,4.5302,4.5302,4.5307,0.0,0.0,0.0,0.0,0.0,4.5504,0.0,4.5581,4.5594,0.0,0.0,0.0,4.5594,4.5594,4.5594,4.5577,4.5513,4.5443,4.539,4.5399,4.5343,4.5307,4.5302,4.5302,4.5302,4.5302,4.5302,4.5302,4.5302,4.5005,4.4688,4.4431,4.4166,4.3862,4.3539,4.3515,4.3892,4.4737,4.5498,4.6296,4.7149,4.7911,4.8296,4.8296,4.8296,4.8296,4.8296,4.8296,4.8296,4.8296,4.8296,4.8296,4.8296,4.8296,4.8296,4.8296,4.8296,4.8296,4.8296,4.8296,4.8296,4.8296,0.0,0.0,0.0,0.0,0.0,0.0,0.0,0.0,0.0,0.0,0.0,0.0,0.0,4.6155,4.6245,4.6299,4.6268,4.6218,4.6141,4.6068,4.602,4.6002,4.5999,4.5999,4.5999,4.6003,4.5975,4.5934,4.5915,4.5976,4.6144,4.5838,4.5923,4.6312,4.5973,4.5981,4.6253,4.5634,4.5357,4.5294,4.5162,4.5178,4.5237,4.5197,4.5238,4.5302,0.0,0.0,0.0,0.0,0.0,0.0,0.0,0.0,0.0,0.0,0.0,0.0,0.0,0.0,0.0,4.5522,4.5546,4.5546,4.5546,4.5546,4.5546,4.5546,4.5573,4.5568,4.5467,4.5419,4.541,4.5394,4.5338,4.5302,4.5302,4.5302,4.5302,4.5302,4.5302,4.5224,4.5005,4.4701,4.4436,4.4166,4.386,4.3624,4.3515,4.3506,4.3873,4.4663,4.548,4.6526,4.7856,4.815,4.8296,4.8296,4.8296,4.8296,4.8296,4.8296,4.8296,4.8296,4.8296,4.8296,4.8296,4.8296,4.8296,4.8296,4.8296,4.8296,4.8296,4.8296,4.8296,4.8296,0.0,0.0,0.0,0.0,0.0,0.0,0.0,0.0,4.5754,4.5932,0.0,0.0,0.0,0.0,4.6285,4.6276,4.6202,4.6146,4.6103,4.6039,4.5999,4.5999,4.5999,4.5999,4.5999,4.6,4.5972,4.5931,4.5822,4.5838,4.5967,4.5644,4.5677,4.5983,4.5657,4.5706,4.6004,4.5692,4.5363,4.504,4.4972,4.4985,4.5032,4.5136,4.5192,0.0,0.0,0.0,0.0,0.0,0.0,0.0,0.0,0.0,0.0,0.0,0.0,0.0,4.5385,0.0,0.0,0.0,0.0,4.5576,4.5864,0.0,4.5476,4.5476,4.5504,4.5518,4.5415,4.54,4.538,4.5369,4.5328,4.5302,4.5302,4.5302,4.5302,4.5302,4.5194,4.504,4.4812,4.4484,4.4184,4.4002,4.3691,0.0,4.3506,4.3506,4.3983,4.5067,4.5626,4.6673,4.8278,4.8296,4.8296,4.8296,4.8296,4.8296,4.8296,4.8296,4.8296,4.8296,4.8296,4.8296,4.8296,4.8296,4.8296,4.8296,4.8296,4.8296,4.8296,4.8296,4.8296,4.8296,0.0,0.0,0.0,0.0,0.0,0.0,0.0,0.0,4.5956,4.6091,0.0,0.0,0.0,0.0,0.0,4.6191,4.6148,4.6098,4.6096,4.6036,4.5999,4.5999,4.5999,4.5999,4.5999,4.5999,4.5997,4.5994,4.5544,4.5842,4.682,4.5649,4.5893,4.7263,4.5778,4.5099,4.5143,4.6052,4.5842,4.4895,4.502,4.5003,4.4919,4.5186,0.0,0.0,4.524,4.5302,0.0,4.5302,0.0,0.0,0.0,0.0,0.0,0.0,0.0,0.0,0.0,0.0,0.0,0.0,0.0,0.0,4.6565,0.0,4.5405,4.5405,4.5405,4.541,4.5394,4.5403,4.5388,4.5312,4.5302,4.5302,4.5302,4.5302,4.5302,4.5302,4.4992,4.4788,4.4782,4.4315,4.3997,4.3989,4.3682,4.3506,4.3506,4.3506,4.424,4.5847,4.5902,4.6673,4.8278,4.8296,4.8296,4.8296,4.8296,4.8296,4.8296,4.8296,4.8296,4.8296,4.8296,4.8296,4.8296,4.8296,4.8296,4.8296,4.8296,4.8296,4.8296,4.8296,4.8296,4.8296,0.0,0.0,0.0,0.0,0.0,4.5846,4.5901,4.5992,4.6089,0.0,0.0,0.0,4.6299,4.6261,4.619,4.6121,4.6104,4.6076,4.6029,4.6017,4.5999,4.5999,4.5999,4.5999,4.5999,4.6,4.5934,4.5786,4.5696,4.5631,4.5592,4.5254,4.5228,4.5464,4.5666,4.5356,4.468,4.4945,4.4887,4.4612,4.4652,4.4751,0.0,0.0,0.0,0.0,0.0,4.5302,4.5302,0.0,4.5302,4.5302,0.0,0.0,0.0,0.0,0.0,0.0,4.5323,0.0,0.0,0.0,0.0,0.0,0.0,0.0,4.5409,4.5409,4.54,4.541,4.5394,4.5403,4.5388,4.5312,4.5302,4.5302,4.5302,4.5302,4.5302,4.5302,4.4992,4.472,4.4526,4.4192,4.3902,0.0,4.3548,4.3506,4.3506,4.3506,4.424,4.5847,4.5902,4.6673,4.8278,4.8296,4.8296,4.8296,4.8296,4.8296,4.8296,4.8296,4.8296,4.8296,4.8296,4.8296,4.8296,4.8296,4.8296,4.8296,4.8296,4.8296,4.8296,4.8296,4.8296,4.8296,0.0,0.0,0.0,0.0,0.0,4.6004,4.6037,4.6118,4.6212,0.0,0.0,0.0,4.6259,4.6209,4.6135,4.6107,4.607,4.6046,4.6004,4.5999,4.5999,4.5999,4.5999,4.5983,4.5966,4.5965,4.5867,4.5704,4.5625,4.5446,4.5175,4.5137,4.4995,4.4814,4.5376,4.5236,4.4578,4.4578,4.4544,4.4489,4.4551,0.0,0.0,4.4852,4.501,0.0,0.0,0.0,4.5302,4.5302,4.5302,0.0,0.0,0.0,0.0,0.0,0.0,0.0,0.0,0.0,0.0,0.0,0.0,0.0,4.5824,4.5612,4.5353,4.5353,4.5355,4.537,4.5359,4.5353,4.5343,4.5307,4.5302,4.5302,4.5302,4.5302,4.5246,4.5109,4.4813,4.4526,4.4265,4.396,4.3716,4.3505,4.3506,4.3506,4.3506,4.3506,4.424,4.5847,4.5902,4.6673,4.8278,4.8296,4.8296,4.8296,4.8296,4.8296,4.8296,4.8296,4.8296,4.8296,4.8296,4.8296,4.8296,4.8296,4.8296,4.8296,4.8296,4.8296,4.8296,4.8296,4.8296,4.8296,0.0,0.0,4.5911,4.5915,4.6021,4.6112,4.6112,4.6314,4.6436,0.0,4.6519,4.6553,4.6484,4.6417,4.6389,4.638,4.6326,4.6291,4.6291,4.6291,4.6252,4.6155,4.6135,4.6075,4.59,4.59,4.5838,4.5684,4.5438,4.5312,4.5292,4.5167,4.5045,4.4919,4.502,4.4931,4.4705,4.4705,4.4619,4.4515,4.4632,4.4612,0.0,0.0,4.4901,4.4931,4.5061,4.5197,4.5302,4.5302,4.5302,0.0,0.0,0.0,0.0,0.0,4.5302,0.0,0.0,0.0,0.0,0.0,0.0,0.0,4.6306,4.5926,4.5416,4.5321,4.5302,4.5302,4.5302,4.5302,4.5302,4.5302,4.5302,4.5302,4.5302,4.5302,4.5178,4.4843,4.4559,4.4289,4.4036,4.3699,4.3506,4.3506,4.3506,4.3506,4.3506,4.3506,4.424,4.5847,4.5902,4.6673,4.8278,4.8296,4.8296,4.8296,4.8296,4.8296,4.8296,4.8296,4.8296,4.8296,4.8296,4.8296,4.8296,4.8296,4.8296,4.8296,4.8296,4.8296,4.8296,4.8296,4.8296,4.8296,0.0,4.5969,4.6053,4.6057,4.6176,4.6269,4.6269,4.688,4.7353,4.7353,4.7903,4.8298,4.8211,4.8196,4.8171,4.8115,4.8108,4.8097,4.8097,4.8097,4.7784,4.7082,4.7043,4.6693,4.5919,4.59,4.578,4.5544,4.5495,4.541,4.5298,4.517,4.5091,4.5068,4.4986,4.4846,4.4705,4.4705,4.4619,4.4508,4.4535,4.4585,4.4679,4.4833,4.4961,4.5085,4.5208,4.5286,4.5302,4.5302,4.5302,4.5302,0.0,0.0,0.0,4.5302,0.0,0.0,0.0,0.0,0.0,0.0,0.0,0.0,4.5661,4.5918,4.608,4.5436,4.5302,4.5302,4.5302,4.5302,4.5302,4.5302,4.5302,4.5302,4.5302,4.5302,4.5178,4.4843,4.4559,4.4289,4.4036,4.3699,4.3506,4.3506,4.3506,4.3506,4.3506,4.3506,4.424,4.5847,4.5902,4.6673,4.8278,4.8296,4.8296,4.8296,4.8296,4.8296,4.8296,4.8296,4.8296,4.8296,4.8296,4.8296,4.8296,4.8296,4.8296,4.8296,4.8296,4.8296,4.8296,4.8296,4.8296,4.8296,4.5989,4.6103,4.6207,4.6207,4.6618,4.6944,4.6944,4.7661,4.8196,4.8196,4.851,4.8738,4.8691,4.8665,4.8638,4.8605,4.8599,4.8599,4.8599,4.8599,4.8405,4.7978,4.7874,4.7604,4.7054,4.6561,4.6198,4.5993,4.5596,4.5365,4.5302,4.5224,4.5197,4.5192,4.5131,4.5033,4.4895,4.4895,4.4777,4.4592,4.4535,0.0,4.4605,4.4679,4.4777,4.4901,4.4986,4.5091,4.5208,4.5281,4.5302,0.0,0.0,4.5302,4.5302,0.0,4.5302,4.5302,0.0,0.0,0.0,4.5793,0.0,0.0,0.0,4.5908,4.5793,4.5378,4.5302,4.5302,4.5302,4.5302,4.5302,4.5302,4.5302,4.524,4.5062,4.5189,4.5134,4.4669,4.4479,4.4231,4.3787,4.3599,4.3506,4.3506,4.3506,4.3506,4.3506,4.3506,4.424,4.5847,4.5902,4.6673,4.8278,4.8296,4.8296,4.8296,4.8296,4.8296,4.8296,4.8296,4.8296,4.8296,4.8296,4.8296,4.8296,4.8296,4.8296,4.8296,4.8296,4.8296,4.8296,4.8296,4.8296,4.8296,4.6628,4.6705,4.6789,4.6789,4.7354,4.7824,4.7831,4.8532,4.9101,4.9233,4.922,4.9185,4.9186,4.9136,4.9099,4.9059,4.9059,4.9059,4.9059,4.9022,4.8941,4.8823,4.8686,4.8474,4.8174,4.7375,4.6891,4.6743,4.6099,4.5779,4.5779,4.5607,4.5531,4.5512,4.5378,4.5238,4.5103,4.5103,0.0,4.4738,0.0,4.4556,4.4515,4.4578,4.4672,4.4757,4.4808,4.4949,4.5153,4.5224,4.5286,4.5297,4.5275,4.5286,0.0,0.0,0.0,0.0,0.0,0.0,0.0,0.0,0.0,4.587,0.0,0.0,0.0,0.0,0.0,0.0,0.0,0.0,0.0,0.0,0.0,0.0,0.0,4.5025,0.0,4.4402,4.4374,4.4166,4.3556,4.3506,4.3506,4.3506,4.3506,4.3506,4.3506,4.3506,4.424,4.5847,4.5902,4.6673,4.8278,4.8296,4.8296,4.8296,4.8296,4.8296,4.8296,4.8296,4.8296,4.8296,4.8296,4.8296,4.8296,4.8296,4.8296,4.8296,4.8296,4.8296,4.8296,4.8296,4.8296,4.8296,4.8499,4.8503,4.8525,4.8525,4.8603,4.8654,4.8652,4.9394,5.0189,5.0834,5.092,5.0917,5.092,5.0917,5.0855,5.0743,5.0736,5.0736,5.0736,5.0557,5.0194,4.9599,4.9451,4.8947,4.8044,4.7905,4.7781,4.7654,4.7564,4.7526,4.7507,4.6724,4.6366,4.6328,4.5627,4.5238,4.5103,0.0,4.5009,0.0,4.4852,4.4718,0.0,4.4908,4.4961,4.4901,4.5148,4.524,4.527,0.0,4.5197,4.5286,0.0,4.5197,4.5302,4.5302,0.0,0.0,0.0,0.0,0.0,0.0,4.6481,0.0,0.0,0.0,4.6156,4.5455,0.0,0.0,0.0,0.0,0.0,0.0,0.0,0.0,4.4204,4.4784,4.499,4.4155,4.4265,4.4166,4.3556,4.3506,4.3506,4.3506,4.3506,4.3506,4.3506,4.3506,4.424,4.5847,4.5902,4.6673,4.8278,4.8296,4.8296,4.8296,4.8296,4.8296,4.8296,4.8296,4.8296,4.8296,4.8296,4.8296,4.8296,4.8296,4.8296,4.8296,4.8296,4.8296,4.8296,4.8296,4.8296,4.8296,4.8998,4.8795,4.8804,4.8804,4.9199,4.9509,4.9502,5.0207,5.0847,5.1157,5.1196,5.1197,5.1205,0.0,0.0,0.0,0.0,5.096,0.0,0.0,5.0572,5.0294,5.0141,4.9875,4.946,4.8926,4.8616,4.8544,4.8042,4.7794,4.7788,4.7431,4.7259,4.7221,4.6366,0.0,4.5876,0.0,4.5142,0.0,0.0,0.0,0.0,4.4913,4.4943,4.4919,4.512,4.5181,4.5186,0.0,4.524,0.0,0.0,0.0,0.0,0.0,0.0,0.0,0.0,0.0,0.0,0.0,0.0,0.0,4.6156,0.0,4.5703,0.0,0.0,0.0,0.0,0.0,0.0,0.0,4.5053,0.0,0.0,0.0,4.5081,0.0,0.0,0.0,4.3556,4.3506,4.3506,4.3506,4.3506,4.3506,4.3506,4.3506,4.424,4.5847,4.5902,4.6673,4.8278,4.8296,4.8296,4.8296,4.8296,4.8296,4.8296,4.8296,4.8296,4.8296,4.8296,4.8296,4.8296,4.8296,4.8296,4.8296,4.8296,4.8296,4.8296,4.8296,4.8296,4.8296,4.9742,0.0,0.0,4.9489,4.9965,5.0354,5.0321,5.0828,5.1198,5.1192,5.1199,5.1199,5.1199,5.1178,0.0,0.0,5.0886,5.0805,0.0,0.0,5.0615,0.0,0.0,0.0,0.0,4.9778,4.9429,4.9429,4.8793,4.85,4.8481,4.8252,4.8162,4.8118,4.724,4.6858,4.68,0.0,4.5579,4.5469,4.5346,4.5181,4.5016,4.4961,4.4986,4.5014,4.5125,4.5153,4.5164,4.5219,4.5275,0.0,4.5265,0.0,0.0,0.0,0.0,0.0,4.5302,0.0,0.0,0.0,0.0,0.0,0.0,0.0,0.0,0.0,0.0,0.0,0.0,0.0,0.0,0.0,0.0,4.5372,0.0,4.4998,0.0,0.0,0.0,0.0,0.0,4.3506,4.3506,4.3506,4.3506,4.3506,4.3506,4.3506,4.424,4.5847,4.5902,4.6673,4.8278,4.8296,4.8296,4.8296,4.8296,4.8296,4.8296,4.8296,4.8296,4.8296,4.8296,4.8296,4.8296,4.8296,4.8296,4.8296,4.8296,4.8296,4.8296,4.8296,4.8296,4.8296,5.1249,5.1221,0.0,0.0,5.1238,5.1243,5.1179,5.1184,5.1205,5.1202,0.0,0.0,0.0,0.0,0.0,0.0,0.0,5.0512,5.0507,0.0,5.0374,0.0,0.0,5.0308,0.0,0.0,5.0264,5.0264,5.0225,5.0225,5.0206,4.9429,4.9066,4.9028,4.8157,4.7755,4.7693,4.6819,4.6457,4.6399,4.5602,4.5297,4.5281,0.0,4.5175,4.5291,4.5297,0.0,0.0,4.5148,4.5192,0.0,0.0,0.0,0.0,0.0,0.0,0.0,0.0,0.0,0.0,4.5531,0.0,0.0,0.0,0.0,4.6233,0.0,0.0,0.0,0.0,0.0,0.0,0.0,0.0,0.0,0.0,0.0,0.0,0.0,0.0,0.0,0.0,4.3506,4.3506,4.3506,4.3506,4.3506,4.3506,4.3506,4.424,4.5847,4.5902,4.6673,4.8278,4.8296,4.8296,4.8296,4.8296,4.8296,4.8296,4.8296,4.8296,4.8296,4.8296,4.8296,4.8296,4.8296,4.8296,4.8296,4.8296,4.8296,4.8296,4.8296,4.8296,4.8296,0.0,0.0,0.0,0.0,0.0,0.0,0.0,5.1209,0.0,0.0,0.0,0.0,0.0,5.0902,5.0733,0.0,0.0,5.0455,5.0361,5.0337,0.0,0.0,0.0,5.0302,0.0,0.0,0.0,0.0,5.0302,5.0302,5.0283,5.0015,4.9882,4.9862,4.9022,4.8659,0.0,0.0,0.0,0.0,0.0,4.5627,4.6036,0.0,4.527,4.5302,4.5302,4.5302,0.0,4.5259,4.5251,4.5297,4.5254,4.5251,4.5302,4.5302,4.5302,4.5302,0.0,0.0,4.6309,4.5493,0.0,0.0,0.0,0.0,0.0,0.0,0.0,0.0,0.0,0.0,0.0,0.0,0.0,0.0,0.0,0.0,0.0,0.0,0.0,0.0,0.0,0.0,4.3506,4.3506,4.3506,4.3506,4.3506,4.3506,4.3993,4.5067,4.5626,4.6416,4.7507,4.8021,4.8296,4.8296,4.8296,4.8296,4.8296,4.8296,4.8296,4.8296,4.8296,4.8296,4.8296,4.8296,4.8296,4.8296,4.8296,4.8296,4.8296,4.8296,4.8296,4.8296,5.1198,0.0,0.0,0.0,0.0,0.0,0.0,0.0,0.0,0.0,5.0997,0.0,5.0887,0.0,5.0596,0.0,5.0464,5.0383,5.0308,5.0302,0.0,5.0302,5.0302,0.0,0.0,0.0,0.0,0.0,0.0,5.0302,5.0302,5.0302,5.0302,5.0283,4.9754,4.9524,4.9467,4.8621,4.7933,0.0,0.0,4.65,0.0,0.0,4.6194,4.6156,0.0,4.5741,4.5684,4.5397,4.5302,4.5302,4.5302,4.5302,4.5302,4.5302,4.5302,4.5302,4.5302,4.5684,0.0,4.5436,4.5684,0.0,4.5416,0.0,4.6347,0.0,0.0,0.0,0.0,0.0,0.0,0.0,0.0,0.0,0.0,4.5302,0.0,0.0,0.0,0.0,0.0,0.0,4.3506,4.3506,4.3506,4.3506,4.3506,4.3506,4.3873,4.4663,4.548,4.6287,4.7094,4.7911,4.8296,4.8296,4.8296,4.8296,4.8296,4.8296,4.8296,4.8296,4.8296,4.8296,4.8296,4.8296,4.8296,4.8296,4.8296,4.8296,4.8296,4.8296,4.8296,4.8296,5.1203,0.0,0.0,0.0,5.1199,0.0,0.0,0.0,5.1009,0.0,5.0815,5.0692,5.0692,5.0567,5.0486,5.0486,5.0361,5.0302,5.0302,5.0302,0.0,0.0,5.0302,5.0302,5.0302,0.0,0.0,0.0,0.0,0.0,5.0302,5.0302,5.0302,5.0302,5.0302,0.0,5.0245,4.9486,4.9142,4.9028,4.8157,4.7832,4.787,4.787,4.7889,4.7794,4.6896,4.6552,4.6462,4.5684,4.5416,4.5416,4.5378,4.5359,4.5359,4.5302,4.5302,4.5302,4.5302,4.5302,4.5302,4.5302,4.5302,0.0,0.0,0.0,4.6495,0.0,0.0,0.0,0.0,0.0,0.0,0.0,0.0,0.0,0.0,0.0,0.0,0.0,0.0,0.0,0.0,4.3506,4.3506,4.3506,4.3506,4.3506,0.0,4.3506,4.3873,4.4663,4.548,4.6287,4.7094,4.7911,4.8296,4.8296,4.8296,4.8296,4.8296,4.8296,4.8296,4.8296,4.8296,4.8296,4.8296,4.8296,4.8296,4.8296,4.8296,4.8296,4.8296,4.8296,4.8296,4.8296,5.1205,5.1199,5.1199,0.0,5.1199,5.1199,0.0,0.0,0.0,0.0,5.075,5.0548,5.0548,5.0437,5.0352,5.0352,5.0325,0.0,0.0,0.0,0.0,5.0302,5.0302,5.0302,5.0302,5.0302,0.0,5.0302,0.0,0.0,5.0302,5.0302,5.0302,5.0302,0.0,5.0302,5.0283,5.0073,4.9652,4.9028,4.8157,4.8195,4.8779,0.0,4.9137,4.9475,4.7985,4.7469,4.7431,4.7221,4.7163,4.7049,4.6405,4.6194,4.6061,4.5474,4.5302,4.5302,4.5302,4.5302,4.5302,4.5302,4.5302,4.5302,0.0,0.0,0.0,0.0,0.0,0.0,0.0,0.0,0.0,0.0,0.0,0.0,0.0,0.0,0.0,4.4431,0.0,0.0,0.0,4.3506,4.3506,4.3506,4.3506,4.3506,4.3506,0.0,4.3873,4.4663,4.548,4.6287,4.7094,4.7911,4.8296,4.8296,4.8296,4.8296,4.8296,4.8296,4.8296,4.8296,4.8296,4.8296,4.8296,4.8296,4.8296,4.8296,4.8296,4.8296,4.8296,4.8296,4.8296,4.8296,5.1199,0.0,0.0,5.1199,0.0,0.0,5.1176,5.0966,0.0,5.0789,5.0576,0.0,5.041,5.034,5.0302,5.0302,5.0302,0.0,5.0302,0.0,0.0,5.0302,5.0302,5.0302,5.0302,5.0302,0.0,5.0302,0.0,0.0,5.0302,5.0302,5.0302,0.0,0.0,5.0302,5.0302,5.0302,5.0034,4.9582,4.9093,4.9194,0.0,4.962,4.9901,5.0187,4.9226,4.8672,4.8315,4.7927,4.7794,4.7717,4.7221,4.7068,4.6972,4.6538,4.6118,4.5812,4.5812,4.5569,4.5302,4.5302,4.5302,4.5302,4.5302,4.5646,4.5946,0.0,4.5908,4.6061,0.0,0.0,0.0,0.0,0.0,0.0,0.0,0.0,0.0,0.0,4.4083,0.0,4.3522,4.3506,4.3506,4.3506,4.3506,4.3506,0.0,0.0,4.3873,4.4663,4.548,4.6287,4.7094,4.7911,4.8296,4.8296,4.8296,4.8296,4.8296,4.8296,4.8296,4.8296,4.8296,4.8296,4.8296,4.8296,4.8296,4.8296,4.8296,4.8296,4.8296,4.8296,4.8296,4.8296,5.1206,0.0,0.0,0.0,0.0,0.0,0.0,5.0895,0.0,5.0695,0.0,5.0302,5.0302,5.0302,5.0302,5.0302,0.0,5.0302,5.0302,5.0302,5.0302,5.0302,5.0302,5.0302,5.0302,5.0302,5.0302,0.0,0.0,0.0,5.0149,5.0245,0.0,0.0,0.0,0.0,0.0,5.0302,5.0302,5.0302,5.0302,5.0302,5.0302,5.0302,5.0302,5.0302,5.0302,4.9843,4.9142,4.8386,4.8138,4.8118,4.8004,4.7966,4.7946,4.7826,4.7259,4.6667,4.6667,4.6156,4.5627,4.5627,4.555,4.5455,4.5455,4.5378,4.5493,4.6194,4.5793,4.5731,0.0,0.0,0.0,0.0,0.0,0.0,0.0,0.0,0.0,0.0,0.0,0.0,0.0,4.3506,4.3506,4.3506,4.3506,0.0,0.0,0.0,4.3928,4.4828,4.5535,4.6342,4.7241,4.7948,4.8296,4.8296,4.8296,4.8296,4.8296,4.8296,4.8296,4.8296,4.8296,4.8296,4.8296,4.8296,4.8296,4.8296,4.8296,4.8296,4.8296,4.8296,4.8296,4.8296,0.0,0.0,0.0,0.0,0.0,5.1869,5.0906,5.1246,5.1594,5.1588,5.0837,5.0302,5.0302,5.0302,5.0302,5.0302,5.0302,0.0,0.0,0.0,0.0,5.0302,5.0302,5.0302,5.0302,5.0302,5.0302,0.0,0.0,0.0,4.9314,0.0,0.0,0.0,0.0,0.0,5.0302,5.0302,0.0,5.0302,5.0302,5.0302,5.0302,5.0302,5.0302,5.0302,5.0302,5.0206,5.0073,4.992,4.9862,4.9748,4.9079,4.8875,4.8741,4.8004,4.7693,4.7564,4.7564,4.7469,4.7354,4.7354,4.6819,4.629,4.629,4.5774,4.534,4.5474,4.5397,4.532,4.532,0.0,0.0,0.0,0.0,0.0,0.0,0.0,0.0,0.0,0.0,4.3556,0.0,0.0,0.0,0.0,0.0,0.0,0.0,0.0,4.4167,0.0,4.5828,4.6599,0.0,0.0,4.8296,4.8296,4.8296,4.8296,4.8296,4.8296,4.8296,4.8296,4.8296,4.8296,4.8296,4.8296,4.8296,4.8296,4.8296,4.8296,4.8296,4.8296,4.8296,4.8296,0.0,0.0,0.0,0.0,0.0,0.0,0.0,5.1499,5.1524,5.1083,5.0608,5.0302,5.0302,5.0302,5.0302,5.0302,5.0302,5.0302,5.0302,5.0302,5.0302,5.0302,5.0302,5.0302,5.0302,5.0302,5.0302,5.0302,0.0,0.0,4.9123,0.0,0.0,4.9142,0.0,5.0302,0.0,0.0,0.0,5.0302,5.0302,5.0302,5.0302,5.0302,5.0302,5.0302,5.0302,5.0302,5.0302,5.0302,5.0302,5.0225,4.9843,4.9602,4.9378,4.8953,4.8428,4.7964,4.7964,4.7623,4.7282,4.7282,4.6972,4.6651,4.6651,4.6367,4.595,4.554,4.5451,4.5281,4.4693,4.4486,0.0,0.0,0.0,0.0,0.0,0.0,0.0,0.0,0.0,0.0,0.0,0.0,0.0,0.0,0.0,0.0,0.0,0.0,4.424,0.0,0.0,0.0,4.8278,0.0,4.8296,4.8296,4.8296,4.8296,4.8296,4.8296,4.8296,4.8296,4.8296,4.8296,4.8296,4.8296,4.8296,4.8296,4.8296,4.8296,4.8351,4.8802,4.8967,4.8912,0.0,5.1191,0.0,0.0,5.1526,0.0,5.156,5.1564,5.1347,5.0665,5.0417,5.0302,5.0302,5.0302,5.0302,5.0302,5.0302,5.0302,5.0302,5.0302,5.0302,5.0302,5.0302,5.0302,5.0302,5.0302,5.0302,0.0,0.0,0.0,0.0,0.0,0.0,0.0,0.0,0.0,0.0,0.0,5.0302,5.0302,5.0302,5.0302,5.0302,5.0302,5.0267,5.0206,5.0259,5.0212,5.0107,5.0162,5.0236,5.0302,5.0302,5.0126,4.9916,4.9916,4.9274,4.8552,4.8479,4.7968,4.742,4.7346,4.72,4.708,4.708,4.693,4.663,4.5999,4.5817,4.5532,4.4794,4.4558,0.0,0.0,0.0,0.0,0.0,0.0,0.0,0.0,0.0,0.0,4.3506,0.0,0.0,0.0,0.0,0.0,4.3506,0.0,0.0,0.0,0.0,4.6856,4.8288,0.0,4.8296,4.8296,4.8296,4.8296,4.8296,4.8296,4.8296,4.8296,4.8296,4.8296,4.8296,4.8296,4.8296,4.8315,4.8508,4.8581,4.8673,4.9545,4.9858,4.9766,0.0,0.0,0.0,0.0,0.0,5.154,5.0732,5.1176,5.1576,5.148,5.0799,5.0302,5.0302,5.0302,5.0302,5.0302,5.0302,5.0302,5.0302,5.0302,5.0302,5.0302,5.0302,5.0302,5.0302,5.0302,5.0302,0.0,0.0,5.0264,0.0,0.0,0.0,0.0,0.0,0.0,0.0,5.0302,5.0302,5.0302,5.0302,5.0302,5.0302,5.0302,5.012,4.9896,5.0181,4.9916,4.9446,4.9737,5.0051,5.0302,5.0302,5.0284,5.0248,5.0248,5.0172,5.0024,4.9723,4.9573,4.9454,4.9134,4.8517,4.7977,4.7977,4.7369,4.678,4.6705,4.6487,4.6153,4.5599,4.5048,4.4522,0.0,0.0,0.0,0.0,0.0,4.3506,4.3506,0.0,0.0,0.0,4.3506,0.0,0.0,4.3506,0.0,0.0,0.0,0.0,4.5865,4.6608,4.7406,4.8296,4.8296,4.8296,4.8296,4.8296,4.8296,4.8296,4.8296,4.8296,4.8296,4.8296,4.8296,4.8296,4.8296,4.8296,4.8379,4.9178,4.9482,4.9582,5.038,5.0692,5.0674,0.0,0.0,0.0,0.0,0.0,0.0,0.0,5.0635,5.0812,5.0812,5.0531,5.0302,5.0302,5.0302,5.0302,5.0302,5.0302,5.0302,5.0302,5.0302,5.0302,5.0302,5.0302,5.0302,5.0302,5.0302,5.0302,0.0,0.0,0.0,0.0,0.0,0.0,0.0,0.0,5.0302,5.0302,5.0302,5.0302,5.0302,5.0302,5.0302,5.0284,5.0076,4.9922,4.9778,4.9723,4.9527,4.9314,4.9442,4.9584,4.973,4.9942,4.9857,4.9737,4.9942,4.9709,4.9363,4.9232,4.9048,4.8866,4.8719,4.8452,4.8213,4.8213,4.7944,4.7565,4.7074,4.6508,4.6031,4.5825,4.5583,4.5359,4.5177,0.0,0.0,0.0,0.0,0.0,0.0,0.0,0.0,0.0,0.0,0.0,0.0,0.0,0.0,0.0,0.0,0.0,4.659,0.0,4.748,4.8296,4.8296,4.8296,4.8296,4.8296,4.8296,4.8296,4.8296,4.8296,4.8296,4.8296,4.8296,4.8333,4.8857,4.9087,4.916,5.0004,5.0023,4.9702,5.0508,5.0802,5.0875,5.1166,0.0,5.0847,0.0,5.0523,5.0405,5.0319,5.0302,5.0302,5.0302,5.0302,5.0302,5.0302,5.0302,5.0302,5.0302,5.0302,5.0302,5.0302,5.0302,5.0302,5.0302,5.0302,0.0,5.0302,5.0302,5.0302,5.0302,5.0302,0.0,0.0,0.0,0.0,0.0,5.0302,5.0302,5.0302,5.0302,5.0302,5.0302,5.0302,5.0236,5.0132,4.9884,4.9681,4.9483,4.9356,4.9166,4.9023,4.9121,4.9089,4.9089,4.952,4.949,4.9356,4.9577,4.9317,4.8925,4.8833,4.8632,4.843,4.8325,4.8296,4.8296,4.8296,4.8296,4.8131,4.7571,4.6994,4.6526,4.6305,4.6241,4.6177,4.5938,0.0,0.0,0.0,4.5048,0.0,0.0,4.4204,4.4204,4.4204,4.4204,0.0,0.0,0.0,0.0,0.0,0.0,0.0,0.0,0.0,0.0,4.8296,4.8296,4.8296,4.8296,4.8296,4.8296,4.8296,4.8296,4.8296,4.8315,4.8563,4.8673,4.8746,4.9601,4.9949,5.0023,5.0839,5.0665,5.0059,5.0857,5.1151,5.1206,5.102,5.0832,5.0656,5.0532,5.0383,5.0302,5.0302,5.0302,5.0302,5.0302,5.0302,5.0302,5.0302,5.0302,5.0302,5.0302,5.0302,5.0302,5.0302,5.0302,5.0302,0.0,0.0,5.0302,5.0302,5.0302,5.0302,5.0302,0.0,0.0,5.1576,0.0,5.1117,5.0302,5.0302,5.0302,5.0302,5.0302,5.0302,5.0302,5.0302,5.0094,4.981,4.9791,4.9386,4.8849,4.9174,4.8864,4.8354,4.8684,4.8577,4.8421,4.9105,4.9299,4.9291,4.9299,4.9291,4.9213,4.8883,4.8799,4.8711,4.8383,4.8296,4.8296,4.8296,4.8296,4.8296,4.8296,4.8278,4.8021,4.7223,4.7094,4.6819,4.603,0.0,0.0,0.0,0.0,0.0,4.5865,4.5865,4.5865,4.5865,4.5865,0.0,0.0,0.0,0.0,0.0,0.0,0.0,4.7094,4.7874,0.0,4.8296,4.8296,4.8296,4.8296,4.8296,4.8296,4.8296,4.8296,4.8296,4.8361,4.9215,4.9582,4.9647,5.0453,5.0784,5.0875,5.1675,5.1481,5.0875,5.1683,5.1987,5.1877,5.1024,5.0912,5.0781,5.0663,5.0539,5.0446,5.0446,5.0446,5.0446,5.0446,5.091,5.1245,5.1245,5.1204,5.1194,0.0,5.1697,5.2002,0.0,5.2002,5.2002,5.2002,5.1486,5.1194,5.1194,5.0602,5.0302,5.0302,0.0,0.0,0.0,5.0716,5.0569,5.0302,5.0302,5.0302,5.0302,5.0302,5.0302,5.0302,5.0302,5.0088,4.979,4.9549,4.9185,4.879,4.8658,4.8486,4.8325,4.843,4.8383,4.8344,4.855,4.879,4.8999,4.9221,4.9145,4.8942,4.8833,4.8632,4.8421,4.8335,4.8296,4.8296,4.8296,4.8296,4.8296,4.8296,4.8296,4.8223,4.7966,4.7911,4.7838,4.759,4.7535,0.0,4.681,0.0,4.6516,4.5975,4.5902,4.5902,4.5902,4.5902,0.0,0.0,0.0,0.0,0.0,0.0,0.0,0.0,4.8168,0.0,4.8296,4.8296,4.8296,4.8296,4.8296,4.8618,4.9197,4.9197,4.9481,5.0031,5.0306,5.0417,5.0472,5.1289,5.162,5.1712,5.2509,5.1985,5.0894,5.1712,5.1657,5.1224,5.0946,5.0875,5.0782,5.0649,5.0554,5.0505,5.0505,5.0774,5.0985,5.0985,5.1699,5.2194,5.2194,5.2418,0.0,5.2079,5.2499,5.2811,5.2811,5.2811,5.2677,5.2365,5.1868,5.1442,5.1117,5.0588,0.0,5.0302,5.0302,5.0302,5.0302,5.0302,5.0302,5.0302,5.0302,5.0302,5.0302,5.0302,5.0302,5.029,5.0156,4.9903,4.9589,4.9248,4.8908,4.8577,4.8373,4.8296,4.8296,4.8296,4.8296,4.8296,4.8296,4.843,4.864,4.8866,4.879,4.8614,4.8614,4.8449,4.8296,4.8296,4.8296,4.8296,4.8296,4.8296,4.8296,4.8296,4.8296,4.8296,4.8296,4.8296,4.8296,4.8296,4.8296,4.8113,4.7617,0.0,4.7361,0.0,0.0,0.0,0.0,4.6801,4.7021,0.0,0.0,0.0,0.0,0.0,4.7783,4.8278,4.8296,4.8296,4.8296,4.8296,4.8471,4.8783,4.9095,4.9517,5.0059,5.0059,5.0306,5.082,5.1114,5.1242,5.1316,5.2123,5.2454,5.2509,5.2994,5.2223,5.0894,5.1712,5.1481,5.0839,5.0827,5.0754,5.0668,0.0,5.0516,5.0535,5.0593,5.1289,5.1826,5.1883,5.2601,5.3094,5.3094,5.3809,5.3941,5.3058,0.0,0.0,5.2983,5.2925,5.2556,5.1805,5.1652,5.1213,5.0417,5.034,5.0302,5.0302,5.0302,5.0302,5.0302,5.0302,5.0302,5.0302,5.0302,5.0302,5.0302,5.0302,5.029,5.0236,4.9935,4.9577,4.9221,4.8917,4.8586,4.8296,4.8296,4.8296,4.8296,4.8296,4.8296,4.8296,4.8296,4.8296,4.8296,4.8296,4.8296,4.8296,4.8296,4.8296,4.8296,4.8296,4.8296,4.8296,4.8296,4.8296,4.8296,4.8296,4.8296,4.8296,4.8296,4.8296,4.8296,4.8296,4.8296,4.8296,4.8296,4.8296,4.8296,0.0,0.0,0.0,4.8296,4.8296,4.8296,0.0,0.0,0.0,0.0,0.0,4.8296,4.8296,4.8296,4.8333,4.8388,4.8388,4.882,4.9692,5.0435,5.0839,5.0875,5.0875,5.0912,5.1022,5.1756,5.2079,5.2152,5.2884,5.3196,5.3196,5.3196,5.2242,5.0986,5.1785,5.1573,5.0784,0.0,0.0,5.0812,5.0688,5.0653,5.086,5.147,5.1739,5.2123,5.2782,5.3566,5.4076,5.4076,5.4729,5.5091,5.4888,5.481,5.4785,5.4785,5.4161,5.3702,5.3511,5.2283,5.1499,5.1308,5.064,5.0302,5.0302,5.0302,5.0302,5.0302,5.0302,5.0302,5.0302,5.0302,5.0302,5.0302,5.0302,5.015,4.9903,4.9837,4.9446,4.8908,4.8842,4.8586,4.8296,4.8296,4.8296,4.8296,4.8296,4.8296,4.8296,4.8296,4.8296,4.8296,4.8296,4.8296,4.8296,4.8296,4.8296,4.8296,4.8296,4.8296,4.8296,4.8296,4.8296,4.8296,4.8296,4.8296,4.8296,4.8296,4.8296,4.8296,4.8296,4.8296,4.8296,4.8296,4.8296,4.8296,0.0,4.8296,4.8296,4.8296,4.8296,4.8296,0.0,0.0,4.8296,4.8296,4.8296,4.8296,4.8296,4.8296,4.8618,4.9288,4.9288,4.9711,5.0508,5.071,5.1114,5.172,5.172,5.205,5.2645,5.2829,5.292,5.292,5.3122,5.3196,5.3196,5.3196,5.259,5.1822,5.2619,5.2417,5.1785,5.084,5.0806,5.0895,5.1203,5.1241,5.1529,5.237,5.2832,5.3255,5.3722,5.4484,5.4982,5.4982,5.5316,5.5545,5.5545,5.5476,5.5453,5.5453,5.4668,5.4018,5.3616,5.2349,5.147,5.1063,5.0562,5.0302,5.0302,5.0302,5.0302,5.0302,5.0302,5.0302,5.0302,5.0302,5.0302,5.0296,5.0138,4.9968,4.9764,4.9461,4.9121,4.8781,4.8632,4.8449,4.8296,4.8296,4.8296,4.8296,4.8296,4.8296,4.8296,4.8296,4.8296,4.8296,4.8296,4.8296,4.8296,4.8296,4.8296,4.8296,4.8296,4.8296,4.8296,4.8296,4.8296,4.8296,4.8296,4.8296,4.8296,4.8296,4.8296,4.8296,4.8296,4.8296,4.8296,4.8296,4.8296,4.8296,4.8296,4.8296,4.8296,4.8296,4.8296,4.8296,4.8296,4.8296,0.0,4.8875,4.8893,4.8893,4.8893,4.8893,4.9297,5.0151,5.05,5.0922,5.1353,5.172,5.2131,5.2546,5.2546,5.2803,5.3196,5.3196,5.3196,5.3196,5.3196,5.3196,5.3196,5.3196,5.2711,5.2097,5.2902,5.2692,5.206,5.0957,5.0918,5.1144,5.1947,5.2101,5.239,5.3255,5.403,5.453,5.4664,5.5285,5.5708,5.5708,5.564,5.5613,5.5613,5.5562,5.5522,5.5504,5.4616,5.3773,5.3031,5.2047,5.117,5.0437,5.0342,5.0314,5.0314,5.0302,5.0302,5.0302,5.0302,5.0302,5.0302,5.0302,5.0302,5.0284,5.0012,4.9824,4.9681,4.9097,4.8806,4.8684,4.8411,4.8296,4.8296,4.8296,4.8296,4.8296,4.8296,4.8296,4.8296,4.8296,4.8296,4.8296,4.8296,4.8296,4.8296,4.8296,4.8296,4.8296,4.8296,4.8296,4.8296,4.8296,4.8296,4.8296,4.8296,4.8296,4.8296,4.8296,4.8296,4.8296,4.8296,4.8296,4.8296,4.8296,0.0,4.8296,4.8296,4.8296,4.8296,4.8296,4.8406,4.8508,4.8508,4.8608,4.9003,4.9729,4.9784,4.9849,4.9959,4.9839,5.017,5.0967,5.1775,5.2179,5.2179,5.2865,5.3196,5.3196,5.3196,5.3196,5.3196,5.3196,5.3196,5.3196,5.3196,5.3196,5.3196,5.3196,5.2774,5.2252,5.2957,5.2766,5.2179,5.1621,5.1726,5.1986,5.2851,5.3005,5.3294,5.4164,5.4414,5.4741,5.542,5.5612,5.5708,5.5708,5.5698,5.5673,5.5673,5.5668,5.5613,5.551,5.4066,5.3146,5.3012,5.1511,5.0623,5.0489,5.0424,5.0371,5.0371,5.0325,5.0302,5.0302,5.0302,5.0302,5.0302,5.0302,5.0302,5.0296,5.0242,4.9909,4.9378,4.9252,4.8892,4.8364,4.8325,4.8296,4.8296,4.8296,4.8296,4.8296,4.8296,4.8296,4.8296,4.8296,4.8296,4.8296,4.8296,4.8296,4.8296,4.8296,4.8296,4.8296,4.8296,4.8296,4.8296,4.8296,4.8296,4.8296,4.8296,4.8296,4.8296,4.8296,4.8296,4.8296,4.8296,4.8296,4.8296,4.8296,0.0,4.8296,4.8296,4.8296,4.8296,4.8296,4.8976,4.9399,4.9399,5.0031,5.0472,5.0618,5.0618,5.093,5.1601,5.0967,5.1004,5.1822,5.2619,5.3012,5.3012,5.3141,5.3196,5.3196,5.3196,5.3196,5.3196,5.3196,5.3196,5.3196,5.3196,5.3196,5.3196,5.3196,5.3122,5.3031,5.3159,5.3122,5.3012,5.2448,5.2601,5.287,5.376,5.3895,5.4184,5.5011,5.5151,5.5285,5.5651,5.5708,5.5708,5.5708,5.5708,5.5708,5.5708,5.5708,5.5662,5.5607,5.4046,5.3105,5.3105,5.1465,5.0532,5.0505,5.0473,5.0457,5.0457,5.0416,5.0382,5.0348,5.0348,5.0331,5.0302,5.0302,5.0302,5.0284,4.9903,4.9577,4.926,4.8917,4.8577,4.8296,4.8296,4.8296,4.8296,4.8296,4.8296,4.8296,4.8296,4.8296,4.8296,4.8296,4.8296,4.8296,4.8296,4.8296,4.8296,4.8296,4.8636,4.9003,4.9003,4.9334,4.9536,4.9095,4.9003,4.8866,4.8398,4.8296,4.8296,4.8296,4.8296,4.8296,4.8296,4.8296,0.0,4.8296,4.8691,4.9003,4.9003,4.937,4.9646,4.9646,5.0013,5.0261,5.0261,5.0582,5.0986,5.1426,5.1444,5.1811,5.2619,5.2278,5.227,5.2637,5.3012,5.3196,5.3196,5.3196,5.3196,5.3196,5.3196,5.3196,5.3196,5.3196,5.3196,5.3196,5.3196,5.3196,5.3196,5.3196,5.3196,5.3196,5.3196,5.3196,5.3196,5.3332,5.351,5.378,5.4626,5.478,5.4991,5.5612,5.5708,5.5708,5.5708,5.5708,5.5708,5.5708,5.5708,5.5708,5.5708,5.5708,5.5708,5.5708,5.4318,5.351,5.351,5.183,5.079,5.0542,5.0527,5.0521,5.0521,5.0511,5.0478,5.0429,5.0429,5.0396,5.0319,5.0319,5.0314,5.0253,4.9674,4.936,4.9245,4.8649,4.8364,4.8296,4.8296,4.8296,4.8296,4.8296,4.8296,4.8296,4.8296,4.8296,4.8333,4.8545,4.86,4.8636,4.8829,4.8884,4.8884,4.8884,4.937,4.9876,4.9876,5.0343,5.0637,5.0023,4.9876,4.9692,4.9022,4.8884,4.8884,4.8884,4.8884,4.8884,4.8884,0.0,4.8884,4.8884,4.9462,4.9876,4.9876,5.0417,5.0802,5.0802,5.0967,5.1077,5.1077,5.1251,5.1628,5.2252,5.227,5.2564,5.3177,5.3196,5.3196,5.3196,5.3196,5.3196,5.3196,5.3196,5.3196,5.3196,5.3196,5.3196,5.3196,5.3196,5.3196,5.3196,5.3196,5.3196,5.3196,5.3196,5.3196,5.3196,5.3196,5.3196,5.3196,5.4222,5.4395,5.4664,5.5478,5.5612,5.5631,5.5689,5.5708,5.5708,5.5708,5.5708,5.5708,5.5708,5.5708,5.5708,5.5708,5.5708,5.5708,5.5708,5.4895,5.4395,5.4395,5.2731,5.1442,5.0697,5.0623,5.0593,5.0593,5.0527,5.05,5.0495,5.0495,5.0462,5.0396,5.0396,5.0367,5.0284,4.9922,4.9577,4.926,4.8908,4.8568,4.8296,4.8296,4.8296,4.8296,4.8296,4.8296,4.8296,4.8296,4.8296,4.8434,4.9252,4.95,4.9656,5.0398,5.0618,5.0618,5.0618,5.0655,5.071,5.071,5.0765,5.0784,5.0729,5.071,5.0692,5.0637,5.0618,5.0618,5.0618,5.0618,5.0618,5.0618,0.0,0.0,5.0618,5.0674,5.071,5.071,5.0765,5.0802,5.0802,5.1463,5.1914,5.1914,5.2601,5.3049,5.3104,5.3104,5.3141,5.3196,5.3196,5.3196,5.3196,5.3196,5.3196,5.3196,5.3196,5.3196,5.3196,5.3196,5.3196,5.3196,5.3196,5.3196,5.3196,5.3196,5.3196,5.3196,5.3196,5.3196,5.3196,5.3196,5.3196,5.3196,5.5068,5.5247,5.5343,5.5651,5.5708,5.5708,5.5708,5.5708,5.5708,5.5708,5.5708,5.5708,5.5708,5.5708,5.5708,5.5708,5.5708,5.5708,5.5708,5.542,5.478,5.3741,5.2544,5.1755,5.1447,5.0932,5.0653,5.0653,5.0638,5.0608,5.0553,5.0553,5.05,5.0401,5.0401,5.0248,4.9968,4.962,4.9302,4.8967,4.8623,4.842,4.8296,4.8296,4.8296,4.8296,4.8296,4.8296,4.8296,4.8296,4.8296,4.8443,4.9325,4.961,4.9867,5.1161,5.1536,5.1646,5.215,5.1922,5.1536,5.1536,5.1922,5.216,5.1665,5.1536,5.1389,5.0894,5.0802,5.0802,5.0802,5.0802,5.0802,5.0802,0.0,5.0802,5.0802,5.1224,5.1536,5.1536,5.1977,5.2297,5.2297,5.2553,5.2747,5.2747,5.3031,5.3196,5.3196,5.3196,5.3196,5.3196,5.3196,5.3196,5.3196,5.3196,5.3196,5.3196,5.3196,5.3196,5.3196,5.3196,5.3196,5.3196,5.3196,5.3196,5.3196,5.3196,5.3196,5.3196,5.3196,5.3196,5.3196,5.3196,5.3196,5.3196,5.5593,5.5708,5.5708,5.5708,5.5708,5.5708,5.5708,5.5708,5.5708,5.5708,5.5708,5.5708,5.5708,5.5708,5.5708,5.5708,5.5708,5.5708,5.5708,5.5708,5.5068,5.3664,5.2774,5.2178,5.1904,5.1106,5.0707,5.0707,5.0707,5.0687,5.0628,5.0628,5.0577,5.0462,5.0462,5.0289,4.9961,4.9527,4.9193,4.8917,4.8477,4.8296,4.8296,4.8296,4.8296,4.8296,4.8296,4.8489,4.871,4.871,4.8875,4.9242,5.0096,5.0518,5.0959,5.205,5.238,5.2509,5.3049,5.2803,5.238,5.238,5.2803,5.3067,5.2509,5.238,5.2215,5.1683,5.1544,5.1544,5.1544,5.1544,5.1544,5.1544,5.1544,5.1544,5.1544,5.2032,5.238,5.238,5.2847,5.3196,5.3196,5.3196,5.3196,5.3196,5.3196,5.3196,5.3196,5.3196,5.3196,5.3196,5.3196,5.3196,5.3196,5.3196,5.3196,5.3196,5.3196,5.3196,5.3196,5.3196,5.3196,5.3196,5.3196,5.3196,5.3196,5.3196,5.3196,5.3196,5.3196,5.3196,5.3196,5.3196,5.3196,5.3196,5.5708,5.5708,5.5708,5.5708,5.5708,5.5708,5.5708,5.5708,5.5708,5.5708,5.5708,5.5708,5.5708,5.5708,5.5708,5.5708,5.5708,5.5708,5.5708,5.5708,5.5343,5.453,5.3664,5.2794,5.1923,5.1125,5.0707,5.0707,5.0707,5.0707,5.0707,5.0707,5.0658,5.0598,5.0598,5.0516,5.0348,4.9683,4.936,4.9229,4.8568,4.8296,4.8296,4.8315,4.8315,4.8315,4.8315,4.8875,4.961,4.961,5.0133,5.0949,5.1738,5.2546,5.3196,5.3196,5.3196,5.3196,5.3196,5.3196,5.3196,5.3196,5.3196,5.3196,5.3196,5.3196,5.3196,5.3196,5.3196,5.3196,5.3196,5.3196,5.3196,5.3196,5.3196,5.3196,5.3196,5.3196,5.3196,5.3196,5.3196,5.3196,5.3196,5.3196,5.3196,5.3196,5.3196,5.3196,5.3196,5.3196,5.3196,5.3196,5.3196,5.3196,5.3196,5.3196,5.3196,5.3196,5.3196,5.3196,5.3196,5.3196,5.3196,5.3196,5.3196,5.3196,5.3196,5.3196,5.3196,5.3196,5.3196,5.3196,5.3196,5.3196,5.3196,5.3196,5.5708,5.5708,5.5708,5.5708,5.5708,5.5708,5.5708,5.5708,5.5708,5.5708,5.5708,5.5708,5.5708,5.5708,5.5708,5.5708,5.5708,5.5708,5.5708,5.5708,5.5593,5.5343,5.4549,5.3703,5.2832,5.1986,5.1279,5.0707,5.0707,5.0707,5.0707,5.0707,5.0658,5.0598,5.0598,5.0413,5.0081,4.9601,4.9241,4.898,4.8486,4.8296,4.8379,4.8976,4.9215,4.9288,4.9848,5.0215,5.0435,5.0435,5.06,5.0949,5.1738,5.2546,5.3196,5.3196,5.3196,5.3196,5.3196,5.3196,5.3196,5.3196,5.3196,5.3196,5.3196,5.3196,5.3196,5.3196,5.3196,5.3196,5.3196,5.3196,5.3196,5.3196,5.3196,5.3196,5.3196,5.3196,5.3196,5.3196,5.3196,5.3196,5.3196,5.3196,5.3196,5.3196,5.3196,5.3196,5.3196,5.3196,5.3196,5.3196,5.3196,5.3196,5.3196,5.3196,5.3196,5.3196,5.3196,5.3196,5.3196,5.3196,5.3196,5.3196,5.3196,5.3196,5.3196,5.3196,5.3196,5.3196,5.3196,5.3196,5.3196,5.3196,5.3196,5.3196,5.5708,5.5708,5.5708,5.5708,5.5708,5.5708,5.5708,5.5708,5.5708,5.5708,5.5708,5.5708,5.5708,5.5708,5.5708,5.5708,5.5708,5.5708,5.5708,5.5708,5.5708,5.5708,5.5228,5.4414,5.3236,5.2351,5.1505,5.0707,5.1015,5.1164,5.1183,5.1529,5.1668,5.1633,5.1633,5.1475,5.1194,5.0793,5.0418,5.005,4.9657,4.9415,4.9352,4.9866,5.0078,5.0133,5.0637,5.1004,5.1261,5.1261,5.1499,5.183,5.2325,5.281,5.3196,5.3196,5.3196,5.3196,5.3196,5.3196,5.3196,5.3196,5.3196,5.3196,5.3196,5.3196,5.3196,5.3196,5.3196,5.3196,5.3196,5.3196,5.3196,5.3196,5.3196,5.3196,5.3196,5.3196,5.3196,5.3196,5.3196,5.3196,5.3196,5.3196,5.3196,5.3196,5.3196,5.3196,5.3196,5.3196,5.3196,5.3196,5.3196,5.3196,5.3196,5.3196,5.3196,5.3196,5.3196,5.3196,5.3196,5.3196,5.3196,5.3196,5.3196,5.3196,5.3196,5.3196,5.3196,5.3196,5.3196,5.3196,5.3196,5.3196,5.3196,5.3196,5.5708,5.5708,5.5708,5.5708,5.5708,5.5708,5.5708,5.5708,5.5708,5.5708,5.5708,5.5708,5.5708,5.5708,5.5708,5.5708,5.5708,5.5708,5.5708,5.5708,5.5708,5.5708,5.5708,5.4953,5.3351,5.2544,5.1736,5.0919,5.1659,5.2019,5.2019,5.2832,5.3197,5.3197,5.3197,5.3177,5.3075,5.2647,5.2248,5.1876,5.1438,5.1063,5.082,5.0875,5.0912,5.093,5.0986,5.1481,5.2115,5.2115,5.2601,5.3196,5.3206,5.3206,5.3217,5.3227,5.3217,5.3217,5.3227,5.3217,5.3217,5.3227,5.3217,5.3206,5.3196,5.3196,5.3196,5.3196,5.3196,5.3196,5.3196,5.3196,5.3196,5.3196,5.3196,5.3196,5.3196,5.3196,5.3196,5.3196,5.3196,5.3196,5.3196,5.3196,5.3196,5.3196,5.3196,5.3196,5.3196,5.3196,5.3196,5.3196,5.3196,5.3196,5.3196,5.3196,5.3196,5.3196,5.3196,5.3196,5.3196,5.3196,5.3196,5.3196,5.3196,5.3196,5.3196,5.3196,5.3196,5.3196,5.3196,5.3196,5.3196,5.3196,5.3196,5.3196,5.5708,5.5708,5.5708,5.5708,5.5708,5.5708,5.5708,5.5708,5.5708,5.5708,5.5708,5.5708,5.5708,5.5708,5.5708,5.5708,5.5708,5.5708,5.5708,5.5708,5.5708,5.5708,5.5708,5.5222,5.4241,5.403,5.353,5.2664,5.2832,5.2928,5.2928,5.3101,5.3197,5.3197,5.3197,5.3192,5.3131,5.2414,5.2062,5.1928,5.1204,5.0864,5.0875,5.1499,5.1748,5.1811,5.2443,5.2792,5.2939,5.2939,5.3067,5.3217,5.3264,5.3277,5.3287,5.3408,5.3367,5.3297,5.3408,5.3367,5.3297,5.3408,5.3367,5.3264,5.3217,5.3196,5.3196,5.3196,5.3196,5.3196,5.3196,5.3196,5.3196,5.3196,5.3196,5.3196,5.3196,5.3196,5.3196,5.3196,5.3196,5.3196,5.3196,5.3196,5.3196,5.3196,5.3196,5.3196,5.3196,5.3196,5.3196,5.3196,5.3196,5.3196,5.3196,5.3196,5.3196,5.3196,5.3196,5.3196,5.3196,5.3196,5.3196,5.3196,5.3196,5.3196,5.3196,5.3196,5.3196,5.3196,5.3196,5.3196,5.3196,5.3196,5.3196,5.3196,5.5708,5.5708,5.5708,5.5708,5.5708,5.5708,5.5708,5.5708,5.5708,5.5708,5.5708,5.5708,5.5708,5.5708,5.5708,5.5708,5.5708,5.5708,5.5708,5.5708,5.5708,5.5708,5.5708,5.5497,5.5068,5.5068,5.4453,5.3197,5.3626,5.3818,5.3837,5.4203,5.4395,5.4395,5.4395,5.4395,5.435,5.3771,5.3391,5.3135,5.253,5.2136,5.1985,5.2417,5.2564,5.2637,5.3049,5.3196,5.3196,5.3196,5.3196,5.3206,5.3251,5.3243,5.3264,5.3345,5.3314,5.3264,5.3345,5.3314,5.3264,5.3345,5.3295,5.3243,5.3261,5.3209,5.3196,5.3196,5.3196,5.3196,5.3196,5.3196,5.3196,5.3196,5.3196,5.3196,5.3196,5.3196,5.3196,5.3196,5.3196,5.3196,5.3196,5.3196,5.3196,5.3196,5.3196,5.3196,5.3196,5.3196,5.3196,5.3196,5.3196,5.3196,5.3196,5.3196,5.3196,5.3196,5.3196,5.3196,5.3196,5.3196,5.3196,5.3196,5.3196,5.3196,5.3196,5.3196,5.3196,5.3196,5.3196,5.3196,5.3196,5.3196,5.3196,5.3196,5.5708,5.5708,5.5708,5.5708,5.5708,5.5708,5.5708,5.5708,5.5708,5.5708,5.5708,5.5708,5.5708,5.5708,5.5708,5.5708,5.5708,5.5708,5.5708,5.5708,5.5708,5.5708,5.5708,5.5708,5.5708,5.5708,5.5011,5.3626,5.4357,5.4703,5.4722,5.5401,5.5708,5.5703,5.5646,5.5629,5.5607,5.5198,5.4769,5.4373,5.3962,5.3571,5.3196,5.3196,5.3196,5.3196,5.3196,5.3196,5.3196,5.3196,5.3196,5.3196,5.3217,5.3227,5.3227,5.3248,5.3238,5.3227,5.3248,5.322,5.3227,5.3248,5.322,5.323,5.3287,5.3261,5.3196,5.3196,5.3196,5.3196,5.3196,5.3196,5.3196,5.3196,5.3196,5.3196,5.3196,5.3196,5.3196,5.3196,5.3196,5.3196,5.3196,5.3196,5.3196,5.3196,5.3196,5.3196,5.3196,5.3196,5.3196,5.3196,5.3196,5.3196,5.3196,5.3196,5.3196,5.3196,5.3196,5.3196,5.3196,5.3196,5.3196,5.3196,5.3196,5.3196,5.3196,5.3196,5.3196,5.3196,5.3196,5.3196,5.3196,5.3196,5.3196,5.3196,5.5708,5.5708,5.5708,5.5708,5.5708,5.5708,5.5708,5.5708,5.5708,5.5708,5.5708,5.5708,5.5708,5.5708,5.5708,5.5708,5.5708,5.5708,5.5708,5.5708,5.5708,5.5708,5.5708,5.5708,5.5708,5.5708,5.5593,5.5357,5.5478,5.5535,5.5535,5.5651,5.5708,5.5698,5.5455,5.5351,5.5314,5.4555,5.4171,5.4033,5.3564,5.3316,5.3196,5.3196,5.3196,5.3196,5.3196,5.3196,5.3196,5.3196,5.3196,5.3217,5.3274,5.3287,5.3308,5.3429,5.3388,5.3308,5.3429,5.3369,5.3308,5.3429,5.3369,5.3287,5.3308,5.3261,5.3196,5.3196,5.3196,5.3196,5.3196,5.3196,5.3196,5.3196,5.3196,5.3196,5.3196,5.3196,5.3196,5.3196,5.3196,5.3196,5.3196,5.3196,5.3196,5.3196,5.3196,5.3196,5.3196,5.3196,5.3196,5.3196,5.3196,5.3196,5.3196,5.3196,5.3196,5.3196,5.3196,5.3196,5.3196,5.3196,5.3196,5.3196,5.3196,5.3196,5.3196,5.3196,5.3196,5.3196,5.3196,5.3196,5.3196,5.3196,5.3196,5.3196,5.5708,5.5708,5.5708,5.5708,5.5708,5.5708,5.5708,5.5708,5.5708,5.5708,5.5708,5.5708,5.5708,5.5708,5.5708,5.5708,5.5708,5.5708,5.5708,5.5708,5.5708,5.5708,5.5708,5.5708,5.5708,5.5708,5.5708,5.5708,5.5708,5.5708,5.5708,5.5708,5.5708,5.5698,5.5419,5.5301,5.5256,5.4436,5.4049,5.3961,5.3494,5.3264,5.3196,5.3196,5.3196,5.3196,5.3196,5.3196,5.3196,5.3196,5.3196,5.3206,5.323,5.3233,5.3261,5.3314,5.3293,5.3261,5.3314,5.3293,5.3261,5.3314,5.3293,5.3233,5.3233,5.3209,5.3196,5.3196,5.3196,5.3196,5.3196,5.3196,5.3196,5.3196,5.3196,5.3196,5.3196,5.3196,5.3196,5.3196,5.3196,5.3196,5.3196,5.3196,5.3379,5.3849,5.3867,5.4069,5.4528,5.4546,5.4546,5.4546,5.4546,5.4546,5.4546,5.4087,5.3867,5.3867,5.3416,5.3196,5.3196,5.3196,5.3196,5.3196,5.3196,5.3196,5.3196,5.3196,5.3196,5.3196,5.3196,5.3196,5.3196,5.3196,5.3196,5.3196]}]]